GFSWCAN_850_thetae_036.txt.gz
Theta_e
297 300 301 300 302 301 302 302 300 300 301 301 300 300 300 300 300 301 300 301 304 306 308 307 308 308 308 308 311 310 311 311 316 314 315 315 318 315 312 313 320 318 321 325 325 324 324 322 320 321 323 322 321 321
299 300 300 301 301 301 301 301 301 301 302 300 300 300 300 300 301 300 301 302 304 305 307 307 307 308 309 308 309 310 311 312 312 314 316 316 322 321 318 318 316 318 317 323 321 324 323 319 320 321 321 322 321 322
301 300 301 301 302 300 301 301 302 301 301 300 300 300 300 301 300 300 303 303 303 305 306 307 307 308 308 309 308 311 311 312 313 310 316 318 318 321 322 318 317 317 315 317 316 320 321 322 322 321 321 322 321 321
301 300 301 301 301 300 301 301 301 300 301 300 301 300 300 300 299 301 303 303 304 305 306 306 306 307 308 308 310 310 311 311 310 313 316 318 319 316 319 317 317 316 317 318 318 316 314 317 318 321 322 321 322 321
300 301 301 301 302 301 300 301 302 301 300 300 300 300 299 300 301 303 303 303 304 304 306 307 307 306 306 307 309 310 309 312 312 312 317 317 316 318 320 318 318 315 316 318 319 318 320 320 319 320 321 320 322 320
300 301 301 301 300 301 301 300 301 301 301 301 300 300 300 301 302 303 301 302 303 303 306 308 306 306 305 306 307 309 310 312 312 313 314 313 313 314 321 318 315 313 313 314 317 318 319 318 319 320 319 319 320 320
302 301 301 301 300 300 300 301 300 299 300 300 300 300 300 300 302 303 304 303 303 303 305 306 307 306 306 306 307 308 310 312 313 313 314 315 315 314 317 317 316 314 315 315 316 317 318 316 318 318 317 317 318 318
302 301 302 301 300 300 300 300 300 301 302 301 300 300 301 301 301 301 302 303 303 304 304 305 305 305 307 307 308 309 310 311 312 313 314 316 316 316 318 315 315 315 315 314 316 317 317 316 316 315 314 315 316 316
301 302 302 302 301 300 301 301 300 300 300 300 300 300 300 301 301 302 301 302 302 303 304 303 305 305 304 309 309 310 310 313 311 315 314 315 317 315 308 307 310 312 313 313 313 314 314 314 314 313 312 312 313 315
300 301 300 302 302 301 301 301 300 300 300 300 300 301 301 301 299 301 300 302 303 303 304 304 304 304 303 305 310 312 310 312 312 314 312 314 312 301 299 300 303 303 307 311 311 312 311 312 314 312 310 310 311 312
299 300 300 300 300 300 300 299 299 300 300 301 302 300 300 300 302 302 303 303 303 304 304 303 303 304 301 305 308 308 308 311 314 315 314 315 308 299 297 296 297 299 302 305 307 308 308 309 311 309 307 307 307 308
298 299 299 299 299 299 298 298 299 301 301 301 300 300 300 300 300 303 304 304 305 306 306 307 306 303 300 306 307 306 309 308 314 314 313 304 299 297 295 294 293 295 297 301 303 304 304 305 304 305 303 303 303 302
298 299 298 298 298 298 298 300 300 301 301 302 303 301 300 301 305 305 304 304 307 301 303 306 304 305 306 306 307 309 308 310 304 307 303 299 296 295 294 292 291 292 293 295 295 297 298 298 299 299 297 296 297 297
296 297 296 296 296 296 299 301 301 302 302 301 302 302 303 301 299 298 298 300 299 298 298 301 306 304 303 303 303 308 304 304 309 306 299 296 293 292 291 290 290 289 289 290 290 290 291 292 291 291 291 291 292 290
298 296 296 296 297 298 299 299 300 300 295 295 296 297 296 295 295 294 295 298 296 296 298 302 303 303 304 304 303 307 307 301 299 297 294 292 291 290 289 289 288 288 287 287 287 288 288 288 288 287 288 289 289 288
297 297 297 298 298 298 299 298 298 296 294 290 289 293 291 294 293 293 293 295 294 296 300 301 303 304 303 302 300 300 299 297 294 292 290 290 289 288 288 287 287 287 286 286 286 286 287 287 287 286 287 287 287 287
297 297 297 297 299 299 299 297 294 290 291 292 291 289 290 290 291 293 293 293 295 297 301 300 299 300 300 298 295 294 293 292 289 289 287 287 287 286 286 286 286 286 286 285 286 286 285 286 286 286 285 284 285 285
297 299 299 299 298 297 294 293 291 290 289 289 290 288 289 289 290 291 291 292 296 296 295 295 294 293 294 295 293 293 289 287 285 284 285 285 284 284 284 284 284 285 285 284 284 284 284 284 283 283 283 282 282 282
299 299 299 299 299 297 295 294 292 290 289 289 288 288 288 288 288 289 290 290 289 291 291 290 289 289 289 289 290 290 288 286 285 283 283 283 283 283 283 283 283 282 282 282 282 282 282 282 281 281 281 281 281 281
299 299 299 299 299 298 296 294 293 292 292 290 290 289 287 287 287 286 287 288 287 286 286 285 285 285 285 284 285 287 286 285 284 284 283 282 282 282 282 282 281 281 281 281 280 279 279 279 279 279 279 278 278 278
298 298 296 296 295 296 296 296 295 293 293 294 291 291 290 287 285 285 286 284 285 286 285 284 283 282 282 283 283 284 284 284 283 283 282 281 281 280 280 279 279 279 278 277 277 276 276 276 276 276 276 275 275 275
298 297 295 295 294 294 295 296 296 296 294 293 292 292 291 290 288 286 284 284 283 283 283 283 282 282 282 282 281 281 281 281 280 280 280 280 279 279 279 278 278 277 276 276 275 274 274 274 274 274 274 274 274 273
293 292 293 294 294 294 294 295 294 295 295 294 293 292 291 289 288 286 285 283 283 282 282 281 281 281 281 280 280 280 281 281 280 279 279 278 278 277 277 276 276 276 276 275 274 274 273 272 272 272 272 271 272 272
291 291 292 294 294 294 293 294 294 293 293 293 292 290 289 289 288 286 284 283 282 282 282 283 282 281 280 279 279 279 280 280 279 279 279 278 277 275 274 273 273 273 274 273 273 272 271 271 271 271 270 269 269 270
292 289 293 294 294 295 294 294 294 293 293 292 291 290 289 289 289 287 285 283 282 282 281 281 282 281 280 279 278 277 277 277 277 276 276 277 278 278 276 274 273 271 271 271 271 271 270 270 269 269 269 268 268 268
291 289 292 293 293 294 294 294 293 293 292 290 289 288 289 289 288 286 284 282 280 279 280 281 280 279 278 278 277 276 275 277 275 274 273 273 273 274 274 273 272 270 269 269 269 269 269 268 268 268 268 268 267 267
291 290 289 290 292 292 292 291 291 291 291 291 290 289 289 287 285 282 280 279 278 277 278 278 278 278 277 276 274 273 274 274 274 273 273 272 272 272 271 271 270 270 269 269 268 268 268 268 267 267 267 267 266 266
288 289 289 288 287 288 289 288 288 288 287 286 287 285 285 285 283 280 278 277 276 276 275 275 276 275 275 274 274 274 273 274 274 272 272 272 272 271 270 269 270 269 269 269 269 269 268 268 267 267 267 267 266 266
288 286 284 283 283 283 283 285 284 281 280 285 285 282 279 278 277 276 276 276 276 275 275 274 273 273 273 274 274 274 273 272 272 272 272 272 272 270 269 269 268 268 269 268 267 268 268 268 268 268 267 267 266 265
287 287 283 282 282 281 280 280 279 280 279 278 276 276 275 275 275 275 275 276 276 275 275 274 274 274 274 274 272 273 272 271 271 271 271 270 269 269 267 267 268 268 268 267 268 268 267 267 267 266 266 265 265 265
288 286 284 282 281 279 278 278 278 278 279 279 278 277 275 274 273 274 274 274 274 273 273 273 273 273 273 272 272 272 271 271 270 270 269 269 269 267 267 268 267 268 268 267 267 267 265 267 266 265 265 265 264 264
287 286 283 282 280 279 280 283 282 282 281 280 278 277 277 278 277 274 273 273 274 274 274 273 273 272 273 272 271 270 270 270 270 270 269 269 269 269 268 268 268 266 267 267 267 266 265 265 265 264 264 264 264 264
285 285 284 283 283 283 282 284 283 282 282 281 279 279 278 279 278 273 274 274 273 274 272 272 273 273 271 270 270 270 270 270 269 269 269 269 269 268 268 268 268 268 268 267 267 266 265 264 264 264 265 265 264 263

GFSWCAN_850_thetae_039.txt.gz
Theta_e
296 296 296 299 300 300 301 301 301 301 301 301 300 300 301 300 301 300 301 301 301 301 305 306 306 307 306 307 307 307 308 309 307 306 309 308 309 313 313 314 313 313 314 316 317 318 320 316 319 319 316 318 319 319
296 298 300 300 300 301 301 301 301 301 301 301 301 300 300 300 301 300 301 300 300 302 305 306 306 307 307 307 307 307 308 309 309 308 308 309 306 308 310 311 315 315 313 315 319 317 316 314 316 318 318 320 321 319
299 300 300 301 301 301 300 301 301 301 301 300 300 300 300 300 300 300 300 300 299 301 303 306 307 306 308 307 308 309 309 310 310 310 309 310 308 306 306 311 315 315 315 315 313 313 315 314 315 316 320 320 320 321
300 300 301 301 301 300 301 300 301 301 301 301 301 301 300 301 300 300 300 300 300 303 303 303 306 307 308 308 308 308 309 309 310 309 308 308 308 311 307 311 311 315 315 316 315 314 314 315 315 314 315 318 318 320
300 301 301 302 300 301 301 301 301 300 300 300 300 300 300 300 300 301 300 301 303 305 305 307 306 306 307 306 307 309 310 309 311 310 308 310 310 311 311 311 311 312 314 314 314 315 316 317 316 315 318 318 317 319
301 301 300 300 300 301 301 301 300 300 301 300 300 300 300 301 301 301 302 300 303 304 306 305 306 307 306 308 309 309 309 309 311 309 307 311 313 313 307 311 313 314 313 314 314 316 316 314 317 318 318 318 318 318
300 301 300 300 300 300 300 301 300 300 300 301 300 300 300 300 300 302 302 303 303 304 305 301 302 306 306 306 307 308 308 309 309 310 311 310 311 312 303 308 311 310 314 315 315 316 316 317 316 316 316 316 316 317
301 301 300 300 299 299 300 301 300 300 299 299 299 300 301 302 302 303 303 302 303 304 304 299 300 303 306 307 306 308 308 308 309 307 311 311 311 311 307 306 305 305 308 311 312 313 314 314 314 314 313 313 314 315
302 300 300 301 300 299 299 300 300 300 300 301 301 301 301 301 302 302 303 303 303 303 301 299 303 302 304 307 307 308 308 305 309 307 309 311 307 304 302 300 301 301 303 305 309 310 312 313 313 312 311 311 312 313
301 301 300 300 301 300 300 300 299 300 300 301 301 301 300 301 301 302 302 302 302 302 304 299 303 302 303 302 302 302 308 305 305 307 311 307 302 298 296 296 296 296 300 302 305 303 307 309 309 309 308 308 310 309
301 301 301 300 300 300 300 300 300 300 301 301 300 301 300 301 302 302 302 301 302 300 304 303 303 303 302 302 306 307 301 301 305 307 307 305 299 296 294 294 293 294 296 298 299 300 302 304 305 306 305 305 306 305
300 300 299 299 299 299 299 300 300 301 301 302 300 300 300 301 301 300 299 301 300 302 302 302 303 303 302 301 305 305 307 304 307 304 303 299 295 294 292 291 290 291 292 294 295 297 298 300 300 301 301 300 299 299
299 298 298 298 299 299 300 300 301 302 303 303 302 300 301 300 302 298 302 302 303 299 299 302 303 300 301 301 304 303 308 308 303 303 298 294 292 291 290 289 289 289 289 291 291 292 293 293 294 294 293 292 293 293
298 298 297 297 298 300 300 301 302 302 302 299 300 295 298 296 296 295 296 297 297 297 297 298 300 301 300 302 302 307 302 302 303 299 294 292 290 289 289 288 287 286 287 287 287 288 288 289 288 288 289 289 290 289
297 297 296 297 299 300 300 301 301 301 294 292 293 294 293 294 293 293 293 296 295 295 296 300 301 300 302 302 301 304 301 297 295 292 291 289 288 287 287 286 286 285 285 285 286 286 286 286 286 286 286 286 287 286
296 296 298 298 298 299 299 298 299 294 291 289 289 288 290 288 288 293 292 294 294 295 299 299 301 301 299 297 296 296 295 293 290 289 288 287 286 286 286 285 285 285 285 285 285 285 285 286 285 285 286 286 285 285
298 297 298 298 296 297 298 298 295 289 289 291 289 289 290 290 291 292 291 291 295 297 298 298 295 295 297 295 293 292 289 288 287 285 285 286 285 285 285 285 284 284 284 284 284 284 284 284 284 284 283 283 283 283
297 297 299 299 299 297 293 292 290 289 289 289 288 289 288 287 288 291 290 291 294 295 294 293 291 290 290 291 291 287 285 284 284 284 284 284 284 283 283 283 283 283 283 283 283 283 283 282 282 281 281 281 281 281
299 299 299 299 297 295 294 293 291 290 289 288 286 287 287 287 286 288 288 289 288 289 289 287 286 287 287 286 288 286 285 284 283 282 282 283 282 282 282 282 282 282 281 281 281 280 280 281 281 281 280 280 279 278
299 299 299 298 298 296 294 293 292 291 291 289 287 286 285 285 285 285 285 286 286 284 284 284 284 284 284 284 286 285 284 283 282 282 281 281 281 281 281 280 280 280 280 280 280 279 279 278 278 277 278 278 278 277
298 296 296 296 296 296 295 295 293 292 291 291 289 289 287 285 284 284 284 284 284 284 284 283 282 282 283 284 284 284 283 282 282 281 281 280 279 279 279 279 279 278 277 276 276 276 276 275 275 275 275 274 274 274
297 298 294 294 294 295 295 295 294 294 293 292 291 290 289 288 286 284 283 283 283 282 282 281 281 282 282 281 281 281 281 281 281 280 280 279 278 278 277 276 276 276 275 275 274 274 273 273 273 273 273 272 272 272
293 293 294 294 294 294 294 294 294 295 291 292 291 289 288 288 286 284 283 283 282 281 281 281 281 280 280 280 280 280 280 279 278 278 278 277 277 277 276 276 275 274 274 273 273 273 272 272 272 272 271 272 271 270
292 292 293 294 293 291 293 294 294 293 292 289 288 286 287 288 286 284 283 282 282 282 282 281 280 279 279 279 279 279 279 279 278 278 277 277 277 276 275 274 273 273 272 272 272 271 271 270 270 270 270 269 269 269
291 289 293 289 294 289 288 288 288 288 287 287 285 288 286 288 284 283 282 282 281 281 281 281 280 279 278 277 277 277 277 277 278 278 277 276 276 275 274 274 273 272 271 271 270 270 270 269 269 269 269 269 268 268
285 289 290 290 290 289 290 287 287 287 285 286 286 289 288 281 280 282 283 280 279 280 280 279 279 278 277 277 276 276 276 276 276 276 274 274 275 274 273 272 272 271 270 270 269 269 268 268 268 268 267 267 267 267
287 288 290 289 291 291 289 290 289 285 284 284 285 284 280 278 278 280 279 278 278 278 279 278 277 276 275 275 274 274 274 274 274 273 273 273 272 272 271 271 270 269 269 269 269 269 269 268 268 267 267 267 267 266
288 286 284 285 284 285 283 282 282 282 281 284 284 277 277 278 278 279 277 277 277 277 277 277 276 276 275 275 274 274 274 273 273 272 272 272 271 271 270 270 270 269 269 269 269 269 268 268 268 268 267 267 267 266
286 284 283 280 282 281 281 281 280 280 280 282 278 276 278 278 277 276 276 276 276 275 275 275 275 275 274 274 274 274 272 272 273 272 272 271 271 271 269 269 269 269 269 269 268 268 268 268 268 268 267 267 266 266
286 284 282 280 277 278 279 280 280 277 278 277 276 276 276 276 276 276 276 276 276 275 275 274 274 274 274 274 274 273 272 271 271 271 271 271 270 269 270 269 269 269 269 269 269 268 268 268 267 267 267 266 265 265
286 284 282 280 279 279 279 279 279 278 277 277 276 275 274 274 275 275 275 276 275 275 274 274 274 274 274 274 273 272 272 271 271 270 270 269 269 270 269 268 268 269 269 269 269 268 268 268 268 267 267 266 266 265
285 283 281 277 280 279 279 281 281 279 279 278 277 276 276 276 275 274 274 274 274 274 274 274 273 274 273 273 271 271 270 270 270 270 269 269 269 269 269 269 269 269 269 269 268 268 268 268 267 266 266 266 265 265
284 283 282 281 280 282 282 283 282 282 281 280 278 279 278 278 275 274 273 274 274 274 274 274 274 273 272 271 271 271 271 270 270 270 269 269 269 269 269 269 269 269 269 269 268 268 268 267 267 266 266 266 265 265

GFSWCAN_850_thetae_042.txt.gz
Theta_e
296 296 296 296 296 298 299 300 300 300 300 300 301 301 300 301 299 299 300 300 300 300 302 304 305 305 305 305 304 305 306 307 307 307 307 305 305 309 310 311 311 311 311 311 313 314 317 315 316 319 316 317 320 319
297 296 296 299 300 300 301 301 301 301 301 301 301 301 301 300 301 299 301 300 300 300 302 303 304 305 306 305 305 306 306 306 308 308 305 304 305 300 307 308 312 312 312 312 313 313 316 315 314 315 318 319 318 318
296 299 300 300 301 301 301 300 300 300 300 300 300 301 301 300 301 300 300 300 300 300 300 301 302 305 306 306 306 306 307 307 308 308 306 306 306 303 304 307 308 310 311 314 315 314 313 314 315 315 314 315 317 317
299 300 301 301 301 301 300 300 300 300 301 301 301 301 301 301 300 301 300 300 301 300 301 301 301 306 305 306 307 306 307 307 308 308 307 307 304 307 303 307 306 311 313 314 314 313 313 314 313 315 312 314 315 316
300 301 300 301 300 301 301 300 300 300 301 301 300 301 301 300 300 301 299 300 301 300 300 302 304 305 306 307 307 308 308 307 308 308 304 305 307 308 306 308 307 311 312 313 312 311 311 311 312 313 314 314 317 315
301 300 300 300 300 300 301 300 300 300 300 301 300 300 299 300 301 299 301 300 300 301 305 304 304 305 307 307 307 307 308 308 308 308 305 309 310 308 305 308 309 306 306 309 310 312 315 315 314 316 316 316 315 314
301 300 300 301 300 300 301 300 300 300 300 301 302 300 300 301 301 300 301 301 300 302 304 304 305 306 306 307 307 308 307 307 308 308 309 307 309 309 300 306 305 304 303 308 309 312 314 313 313 314 314 314 314 316
300 300 300 299 301 300 300 300 300 300 301 300 300 300 300 300 300 301 303 301 300 300 303 301 303 304 305 306 305 307 308 308 308 307 308 308 309 308 305 300 300 300 301 304 306 308 308 311 311 311 312 312 313 313
300 300 299 300 300 300 299 299 300 300 300 300 300 301 300 300 300 302 302 302 303 303 299 297 299 305 304 305 307 307 308 303 308 306 306 309 302 299 297 297 297 296 297 299 303 306 306 306 306 308 310 310 310 308
299 301 300 300 300 300 300 299 300 299 300 300 300 301 300 301 301 302 302 302 302 302 302 298 300 300 304 302 301 301 302 303 306 305 308 302 298 295 294 293 293 293 295 297 299 299 301 301 301 302 301 302 302 300
300 300 301 301 300 300 301 300 300 301 301 300 301 301 301 302 302 302 301 300 301 300 302 302 301 302 302 300 304 304 299 300 305 304 305 300 296 293 291 291 290 291 292 294 295 295 296 297 297 298 297 297 298 298
300 299 300 300 300 300 300 300 301 301 301 300 301 300 300 301 301 299 298 298 299 302 300 298 301 302 301 303 304 304 302 303 305 301 299 296 293 291 290 288 288 289 290 291 291 291 291 292 292 293 293 293 292 291
298 299 299 299 300 300 300 301 302 302 301 302 301 299 299 296 293 294 300 302 301 298 297 299 302 301 301 301 302 303 306 306 302 298 293 292 290 289 288 287 286 287 287 288 287 288 289 289 289 289 288 288 289 290
298 298 298 298 299 300 301 301 302 301 300 297 294 290 290 290 292 292 294 295 296 296 295 296 299 300 300 301 302 305 300 299 297 293 291 290 288 287 286 285 285 285 285 286 285 285 286 286 286 287 287 288 289 288
297 297 298 299 299 298 300 301 301 301 293 290 290 289 288 290 290 292 292 294 294 295 295 299 300 300 300 299 296 299 295 293 291 289 288 287 286 286 285 284 284 284 284 284 284 284 284 284 285 284 285 286 286 286
296 298 297 297 299 299 298 299 297 293 290 288 289 286 288 285 287 291 291 292 293 294 297 298 299 299 295 294 292 293 292 290 288 288 286 285 285 285 285 284 284 283 283 283 283 283 283 283 283 283 284 284 284 284
297 298 297 298 296 299 299 299 290 289 289 289 286 287 288 289 288 289 290 289 292 295 296 295 292 294 294 293 290 288 287 286 284 284 284 284 283 283 283 283 283 283 283 283 282 282 282 282 282 283 282 282 282 282
298 298 298 298 297 295 293 291 289 288 287 286 286 287 286 285 285 287 288 287 292 293 291 291 289 288 289 290 287 285 284 284 283 282 282 283 283 283 283 283 283 283 283 283 282 282 283 282 281 280 280 280 280 279
298 298 298 297 296 294 293 291 289 289 287 285 284 285 285 284 284 285 286 286 286 287 286 286 284 285 285 285 284 283 283 282 282 282 281 281 282 282 282 282 282 282 282 281 281 280 280 280 280 279 279 279 278 277
298 297 297 297 296 295 293 292 291 289 288 286 285 284 283 283 283 283 284 284 284 283 283 282 283 283 284 284 283 283 282 282 282 281 280 280 281 281 281 281 280 280 280 279 279 278 277 277 277 277 277 277 277 275
295 295 295 296 296 296 294 293 291 290 289 288 287 286 284 283 282 282 283 283 283 282 283 281 281 282 284 284 283 283 282 282 281 280 279 279 279 279 278 277 277 277 277 277 276 275 276 275 274 274 274 274 274 273
296 294 294 294 295 295 294 294 293 292 291 290 290 288 287 285 283 282 282 282 282 281 281 281 281 282 282 282 282 282 281 281 280 280 279 279 278 277 276 276 276 276 275 274 274 274 273 272 272 272 272 272 271 271
293 293 293 293 293 294 293 294 294 293 290 290 289 288 286 285 283 282 282 282 281 280 280 280 280 280 280 280 280 280 280 280 279 278 278 277 277 276 276 275 275 274 273 272 272 272 272 271 271 271 271 271 270 270
293 293 294 294 293 288 293 293 293 291 290 287 286 286 286 284 283 281 282 281 281 280 280 280 280 279 279 279 278 278 278 278 277 276 276 276 275 274 274 273 273 273 272 271 271 271 271 271 270 270 269 269 269 269
292 289 292 285 293 286 283 282 282 285 283 283 282 281 282 286 279 277 279 280 280 280 279 279 278 278 278 277 277 277 277 278 278 277 276 276 275 275 274 273 272 271 271 271 271 270 270 269 270 270 269 269 269 268
284 289 289 285 286 287 285 283 281 282 281 283 283 288 285 276 276 278 280 279 279 279 279 279 279 278 277 276 277 277 276 275 275 276 275 274 274 274 273 273 272 271 270 270 270 270 270 270 270 269 269 269 268 268
284 287 287 286 288 289 284 287 286 282 282 282 280 279 274 272 274 278 278 278 279 279 279 278 278 277 276 275 275 275 274 274 274 274 273 272 272 271 271 271 270 270 270 269 269 269 269 269 268 268 268 267 267 267
285 283 279 281 282 282 276 275 276 277 277 282 279 273 272 272 275 278 277 277 278 278 278 277 277 276 276 275 274 274 274 274 273 272 272 272 272 271 270 270 270 269 269 269 269 268 268 268 268 267 267 267 266 266
284 283 281 274 278 279 279 275 276 278 278 280 271 272 277 276 277 277 276 276 276 276 276 276 275 275 274 274 273 273 272 273 272 272 272 271 270 270 269 269 269 268 268 268 268 268 268 268 268 267 267 267 266 265
283 282 279 277 272 275 278 277 275 276 277 276 275 275 276 276 275 275 275 275 275 275 275 275 274 274 274 274 274 272 272 271 271 271 271 271 270 270 269 269 269 269 269 269 268 268 268 267 267 266 266 266 266 266
283 281 279 278 277 277 277 277 277 277 276 275 275 274 274 275 275 275 276 275 275 275 274 274 274 274 274 274 273 272 271 271 271 270 270 270 269 269 269 269 269 269 269 269 269 268 268 268 268 268 267 267 266 266
282 280 278 275 278 278 279 280 279 278 277 276 275 275 275 275 274 274 274 274 274 274 274 274 274 274 273 273 271 271 271 271 270 270 270 269 269 269 269 269 269 269 269 269 268 268 268 268 267 267 267 267 266 266
281 281 280 280 279 278 281 281 282 280 279 278 278 277 277 276 273 273 273 274 274 274 274 274 274 273 272 271 271 271 270 270 270 270 270 269 269 269 269 269 269 269 269 269 268 268 268 268 268 268 267 267 267 266

GFSWCAN_850_thetae_045.txt.gz
Theta_e
295 296 297 297 296 296 297 296 296 296 296 297 297 299 299 299 298 298 298 300 300 300 301 303 304 304 304 304 303 303 305 305 306 305 307 306 302 306 308 309 309 310 311 310 312 314 314 312 316 316 315 313 316 318
295 297 298 296 296 298 300 300 300 300 300 300 300 299 300 300 301 299 299 298 300 300 300 301 301 303 305 304 304 304 305 305 305 306 304 303 302 298 306 308 308 309 307 308 310 310 311 316 316 313 314 314 316 317
298 297 296 298 300 299 300 300 301 301 301 301 300 300 300 300 301 300 300 300 299 300 300 301 302 301 302 305 304 304 305 305 306 307 303 304 304 301 304 304 308 308 309 310 311 311 311 312 312 313 315 315 314 315
296 298 299 300 300 300 301 300 300 300 300 300 300 300 300 301 300 300 300 300 299 300 300 299 300 302 303 305 306 305 305 306 306 307 305 304 303 305 302 306 305 306 309 310 310 311 312 313 313 313 314 315 314 315
300 300 300 300 300 300 300 300 300 300 300 300 300 300 301 300 301 301 301 300 300 300 299 299 300 300 300 301 305 306 306 305 306 306 301 303 304 307 305 304 304 308 309 310 309 311 310 312 313 314 314 314 313 315
301 300 300 300 300 300 300 300 300 300 301 300 301 300 300 300 301 301 300 300 300 300 301 298 301 302 301 302 305 306 306 307 306 307 303 306 307 308 308 308 307 305 304 305 307 306 308 311 311 312 312 313 315 316
300 300 300 300 300 301 300 300 300 300 301 301 301 301 301 301 301 300 300 300 299 300 300 302 304 305 305 305 307 307 307 307 307 307 305 306 308 308 303 307 302 301 301 304 304 307 310 309 306 309 311 311 311 312
299 299 300 300 300 300 300 300 301 300 300 300 300 301 300 301 300 301 302 301 300 301 300 302 303 304 305 305 307 307 307 306 305 306 307 306 306 304 301 298 297 297 298 303 304 303 303 303 306 308 308 309 309 309
299 300 299 299 300 300 301 301 300 301 300 301 300 300 300 300 300 302 301 300 300 301 300 299 303 305 302 303 306 305 305 303 304 303 306 306 299 296 294 294 293 294 295 296 300 302 302 302 302 302 302 302 300 297
300 301 300 299 299 300 300 300 300 300 299 299 300 301 299 301 300 300 300 299 299 299 301 300 299 303 304 301 300 302 301 303 305 306 302 298 296 292 291 290 290 291 293 294 297 298 296 296 297 296 293 293 294 292
300 300 300 299 299 300 300 300 300 300 300 300 300 299 300 301 301 300 300 300 300 298 300 300 300 301 302 301 302 301 299 298 303 306 300 297 294 291 289 288 288 289 290 291 292 292 292 292 291 291 291 290 291 289
299 299 300 300 300 300 300 300 300 300 301 301 300 300 300 299 299 297 296 296 300 302 299 296 300 301 301 303 304 303 301 302 304 298 295 292 291 289 288 286 286 286 287 288 288 289 288 289 288 289 288 287 287 288
299 299 300 299 299 300 301 301 300 301 301 301 299 297 295 292 290 292 299 300 299 298 296 299 301 301 301 301 301 303 304 304 297 294 291 290 288 287 286 285 284 285 284 284 284 284 285 285 285 285 284 285 286 286
298 299 299 300 300 301 301 302 302 301 299 295 292 288 288 287 289 290 292 292 294 295 295 296 299 300 299 300 302 302 297 295 293 288 288 288 286 285 284 284 283 283 283 283 283 284 284 284 284 284 284 285 286 285
297 298 299 299 300 301 300 300 298 299 292 289 289 286 287 288 289 290 291 293 292 293 295 298 299 297 294 296 293 294 292 289 289 286 286 286 285 284 284 283 283 282 282 282 283 283 284 285 285 284 284 284 285 284
297 298 298 299 299 300 299 297 297 292 289 288 286 286 286 285 287 288 289 290 291 292 296 296 298 295 292 293 288 289 288 286 285 284 284 284 283 283 283 283 282 282 282 283 283 284 284 284 283 283 283 283 283 283
298 297 296 296 299 299 300 297 290 288 288 288 286 285 285 285 285 285 287 287 290 293 294 293 291 293 292 289 287 285 285 284 283 282 283 283 283 283 283 283 283 283 283 283 283 282 282 282 282 282 281 280 281 281
298 297 297 298 297 297 295 290 288 287 284 284 282 284 284 284 284 285 285 286 291 290 289 290 288 285 286 286 284 284 283 282 282 282 282 283 283 283 283 282 282 282 282 282 282 282 282 282 281 279 279 279 279 279
298 297 295 295 297 293 291 289 287 285 284 284 283 283 283 283 283 284 285 285 285 286 285 285 285 284 285 284 283 282 282 281 280 280 281 282 282 282 282 282 282 282 282 281 281 281 280 280 279 279 279 278 278 276
297 296 296 296 295 293 292 290 288 286 285 285 284 283 283 282 283 283 284 284 284 283 282 282 282 283 283 282 282 282 281 281 282 280 279 280 281 281 281 281 281 281 281 280 279 279 278 278 277 277 277 276 276 275
295 295 295 295 295 294 293 291 289 287 286 285 284 284 283 283 282 282 283 283 283 282 282 281 281 282 283 282 282 282 282 282 281 280 279 278 279 280 279 279 278 278 278 277 277 276 276 275 274 274 274 273 273 272
294 294 294 294 294 293 291 291 291 289 289 288 288 287 285 283 282 282 281 280 280 280 280 280 281 282 282 282 282 282 282 282 281 280 280 279 278 277 276 276 276 276 275 274 273 273 273 273 272 272 272 272 271 270
293 293 292 293 293 293 293 293 293 291 289 289 288 285 283 282 282 282 281 280 279 279 280 280 280 280 280 280 281 280 280 280 280 279 278 278 277 276 275 274 274 273 273 272 272 271 271 271 270 271 271 270 270 269
293 293 293 293 292 287 292 291 291 289 288 284 284 284 281 282 282 281 280 280 280 280 280 279 280 279 279 279 278 278 277 278 277 276 275 275 275 274 273 273 273 272 272 271 271 270 270 270 269 269 269 269 269 268
292 288 291 283 290 285 283 282 282 284 283 281 282 281 280 283 277 275 276 279 279 279 279 279 279 279 278 277 277 277 277 277 277 277 275 275 275 274 273 272 272 271 270 270 270 270 269 269 269 268 268 268 268 268
285 287 286 283 284 285 282 281 280 280 279 280 280 282 282 274 274 276 278 278 279 279 279 279 279 278 277 276 276 275 275 275 276 276 275 274 273 273 272 272 271 270 270 270 269 269 269 269 269 269 268 268 268 268
285 285 284 283 285 286 281 283 283 280 279 280 279 273 273 272 272 277 278 278 279 278 278 277 277 277 277 276 276 275 274 274 274 274 273 272 272 271 271 270 270 270 270 270 269 269 269 269 269 269 268 268 268 268
282 281 276 278 279 279 272 271 271 274 276 280 277 272 271 271 275 277 278 278 278 278 277 277 276 276 275 275 274 275 274 274 273 273 272 272 272 271 270 270 270 270 269 269 269 269 269 269 268 268 268 267 267 267
281 280 279 270 276 277 276 271 273 276 277 278 268 270 275 276 276 277 276 277 276 277 277 277 276 275 275 274 274 273 272 272 272 272 271 271 271 270 270 270 269 269 269 269 268 268 268 268 268 268 267 267 267 266
280 279 277 276 271 272 275 274 274 275 276 275 275 275 275 275 275 276 276 275 276 276 275 275 274 274 274 274 273 272 271 271 271 271 270 270 270 269 269 269 268 268 268 268 268 268 268 268 267 267 267 267 266 266
281 280 278 277 275 275 275 275 275 275 275 275 275 274 274 274 274 275 275 275 275 274 274 274 274 274 274 274 273 271 271 271 271 270 270 270 270 269 269 269 269 269 269 268 268 268 268 268 268 267 267 267 267 266
280 279 277 273 277 277 278 279 278 277 276 275 275 275 275 275 273 273 273 274 274 274 274 273 273 273 273 273 271 271 271 271 270 270 270 270 269 269 269 269 269 269 269 269 269 269 268 268 268 268 267 267 267 267
280 280 279 278 277 278 280 280 279 278 278 277 277 276 275 275 273 273 273 273 274 274 273 274 274 273 272 271 271 270 270 270 270 270 269 269 269 269 269 269 269 269 269 269 269 268 268 268 268 268 267 267 267 266

GFSWCAN_850_thetae_048.txt.gz
Theta_e
293 293 293 294 295 296 297 297 296 297 297 297 297 298 299 299 299 299 299 300 299 300 301 302 303 303 304 303 303 302 303 303 304 305 304 305 303 305 306 308 309 309 308 310 311 313 310 309 315 313 311 313 313 313
294 294 295 296 296 297 297 297 297 296 297 297 297 297 297 297 298 299 298 299 300 300 300 301 303 303 304 304 304 303 303 304 303 303 302 302 301 297 305 306 307 308 306 307 308 308 308 313 315 315 315 312 313 314
296 297 297 297 297 297 297 298 299 300 300 300 299 299 297 297 298 298 298 299 298 299 299 300 301 302 303 304 304 304 304 305 305 305 302 302 303 299 302 303 307 307 306 307 308 308 308 310 311 312 312 313 313 313
297 297 298 298 298 299 300 300 300 300 300 300 301 301 300 299 299 299 299 299 298 299 300 300 300 301 301 301 302 304 304 304 305 306 305 301 301 303 300 304 303 304 306 308 308 307 309 310 311 311 312 314 313 314
300 300 300 300 300 300 301 300 300 300 300 300 300 300 300 300 300 300 301 300 299 299 299 298 300 300 301 302 302 303 304 304 305 305 304 303 302 304 302 303 303 306 307 307 306 306 307 308 310 309 310 311 311 313
300 299 299 299 300 300 300 300 300 300 299 300 300 300 300 300 299 301 299 299 300 299 300 298 301 300 300 301 302 304 306 306 305 305 305 306 306 306 302 301 306 304 303 303 306 305 305 306 308 308 306 310 310 306
299 300 300 300 300 300 300 300 300 300 300 301 300 300 300 300 301 300 300 300 299 299 300 299 297 303 301 300 301 302 304 305 305 305 305 305 306 307 299 302 301 299 299 302 302 303 306 304 302 303 303 310 306 303
299 299 300 300 300 300 300 300 300 300 300 301 300 300 300 301 301 300 301 300 300 300 300 297 303 304 304 304 304 304 305 306 306 302 305 306 306 302 304 295 294 294 296 300 300 301 300 300 300 301 297 302 301 299
300 299 300 299 300 300 299 300 300 300 301 301 301 300 300 299 300 301 300 300 300 300 299 300 302 304 304 304 305 305 305 303 304 304 304 305 297 293 292 292 291 291 292 294 296 298 299 298 297 298 297 298 293 289
299 299 300 300 300 299 300 300 299 299 300 299 300 300 299 301 300 300 300 300 300 300 300 297 299 303 303 301 301 302 301 303 305 303 298 296 293 291 289 289 289 289 289 291 293 294 293 293 291 291 293 289 287 287
299 299 299 299 300 300 300 300 300 299 300 300 299 301 300 300 300 300 298 299 299 300 299 300 299 303 301 301 302 301 300 299 306 304 299 295 292 290 288 287 286 286 287 289 289 289 289 289 288 288 287 286 287 285
300 298 299 300 300 301 300 300 300 300 300 301 300 300 300 300 298 299 299 298 300 302 299 300 301 300 301 303 302 303 301 300 303 296 294 290 290 287 286 285 285 285 285 286 286 286 285 286 285 285 284 283 284 285
299 299 299 300 300 301 301 301 300 300 300 301 299 294 294 289 288 289 300 299 298 297 295 299 300 300 301 303 302 301 304 300 294 292 290 289 287 286 285 284 283 283 283 283 283 283 284 283 284 285 283 282 283 283
299 299 299 300 300 300 301 301 300 298 297 293 290 285 284 283 287 290 289 290 293 294 294 297 299 299 299 299 299 298 293 292 288 285 287 287 285 284 283 283 282 282 282 283 282 283 283 283 283 283 283 283 284 284
298 298 298 299 298 297 298 298 297 297 291 288 287 284 285 287 287 288 289 291 290 291 294 298 296 294 293 293 291 292 288 285 287 284 284 284 284 283 282 282 282 282 282 282 282 283 283 283 283 283 283 283 283 283
298 298 298 298 298 299 299 296 298 292 288 286 284 284 284 285 285 285 286 288 289 292 295 296 295 290 290 291 286 285 287 284 282 281 282 283 282 282 282 282 282 282 282 282 282 282 283 283 282 282 282 282 282 282
298 297 296 296 297 298 299 297 290 286 286 285 283 283 283 283 284 284 285 286 289 291 292 291 290 290 289 286 285 284 279 279 282 282 282 282 282 282 282 282 282 283 283 282 282 282 281 281 281 282 281 280 280 280
298 297 297 297 297 297 294 288 286 284 283 282 282 283 283 283 283 284 285 286 289 289 288 288 287 285 284 285 283 283 282 281 281 281 282 282 282 282 282 282 282 282 282 282 282 281 281 281 281 279 279 279 278 278
298 297 296 297 297 293 289 287 285 283 283 283 283 283 283 283 283 284 285 285 285 285 285 284 283 284 282 282 282 282 281 281 280 280 280 281 282 282 282 282 282 282 281 281 280 280 279 279 278 278 277 277 276 275
296 296 295 294 295 291 290 288 286 284 284 284 283 283 282 282 282 283 283 284 283 282 282 282 282 282 282 282 282 281 281 281 280 279 278 279 280 281 281 281 281 280 279 279 278 278 277 277 276 276 275 275 274 273
295 295 294 293 293 292 290 288 286 285 285 284 284 284 283 282 281 281 281 283 282 281 281 280 280 281 282 282 282 282 281 281 281 281 279 279 279 280 279 278 278 277 277 276 276 275 275 274 273 273 273 273 272 271
294 293 293 293 292 291 289 289 288 288 287 287 286 284 283 281 281 281 280 279 279 279 279 279 280 281 281 281 281 282 281 282 281 280 279 279 277 277 276 275 276 276 275 274 273 273 273 273 272 272 271 271 270 270
293 293 292 293 293 292 291 291 291 290 286 287 287 284 281 281 281 281 281 279 279 278 279 280 280 281 280 280 280 280 280 280 280 279 278 277 277 276 275 274 274 273 273 273 272 272 272 271 271 270 270 270 269 269
293 293 292 292 292 284 290 289 289 287 287 285 283 282 280 281 281 280 279 279 278 279 279 279 280 280 279 279 279 278 278 278 277 276 275 275 275 274 274 273 273 272 271 271 270 270 270 270 270 269 269 269 269 268
291 287 289 283 289 284 280 278 279 282 280 280 281 280 278 282 276 274 275 278 278 279 279 279 279 279 279 277 277 277 276 276 277 277 275 274 274 273 272 272 271 271 271 270 270 269 269 269 269 269 268 268 268 268
283 284 283 280 282 283 281 280 279 279 278 278 278 279 279 272 273 273 277 279 278 278 278 278 278 278 277 276 277 276 276 276 275 275 274 274 273 272 272 271 270 270 270 269 269 269 269 268 268 268 268 268 268 267
278 279 281 281 283 283 278 281 281 278 277 278 276 271 271 271 272 276 277 278 278 278 277 277 277 277 277 276 275 275 274 274 273 273 273 272 272 271 271 270 270 269 269 269 269 269 268 268 268 268 268 268 268 267
279 279 275 276 277 277 272 272 272 273 275 278 276 270 270 270 274 276 278 278 278 278 277 277 276 276 275 275 275 274 273 273 273 272 272 271 271 270 270 270 270 269 269 269 269 268 268 268 268 268 268 267 267 267
278 278 278 269 274 274 273 269 272 275 275 276 268 269 275 275 275 277 277 277 277 277 277 276 276 275 275 274 274 273 272 272 272 271 271 271 270 270 270 269 269 269 269 269 269 268 268 268 268 268 267 267 267 267
278 278 275 273 269 271 273 273 273 274 275 274 274 274 274 274 275 275 276 275 275 275 275 275 274 274 274 273 272 272 271 271 271 271 270 270 270 270 269 269 269 269 269 269 269 268 268 268 268 268 267 267 266 266
279 278 276 275 273 274 274 274 274 275 275 274 274 273 273 273 273 274 274 274 274 274 274 274 274 274 274 273 272 271 271 271 271 270 270 270 269 269 269 269 269 269 269 269 269 268 268 268 268 268 267 267 267 267
278 277 275 271 275 275 276 278 277 276 276 275 275 275 274 274 273 273 273 274 274 274 273 273 273 273 273 272 271 271 271 271 270 270 270 270 269 269 269 269 269 269 269 269 269 269 268 268 268 268 268 268 267 267
278 279 278 277 276 277 278 279 277 277 277 276 275 275 274 274 272 272 273 273 273 273 273 273 273 273 271 271 271 271 270 270 270 270 270 269 269 269 269 269 269 269 269 269 269 269 268 268 268 268 267 267 267 266

GFSWCAN_850_thetae_051.txt.gz
Theta_e
295 295 295 294 293 293 293 294 294 295 296 296 297 297 297 295 295 296 297 298 298 298 300 300 301 301 302 302 304 303 303 303 304 305 306 306 306 307 307 309 309 309 310 311 312 313 312 308 314 314 312 313 313 313
297 297 296 295 294 294 294 294 295 296 297 297 297 298 297 296 296 297 298 298 299 298 299 300 301 302 301 301 303 302 304 303 304 305 305 305 306 304 307 309 307 311 310 311 311 312 309 309 312 312 311 312 313 313
297 297 297 297 296 296 297 297 297 298 298 298 297 298 298 297 298 298 299 299 298 297 299 300 301 301 301 302 303 303 303 303 303 304 305 305 305 304 308 307 309 307 306 309 308 309 309 309 309 310 309 310 310 312
298 298 298 298 298 297 298 297 297 298 298 298 298 297 298 298 298 298 298 299 298 299 300 300 300 301 301 303 304 303 303 303 304 304 305 305 306 303 306 307 307 307 307 309 309 309 309 309 308 306 309 308 308 310
299 300 300 299 299 299 299 299 299 299 299 299 299 299 299 298 297 297 298 298 299 299 300 298 300 301 302 303 302 302 304 304 304 305 304 306 303 305 303 304 306 306 308 310 310 305 305 306 306 304 305 303 303 303
299 299 299 299 299 300 300 300 300 300 300 300 300 299 300 300 299 297 299 299 299 298 300 301 299 299 300 300 301 301 303 304 304 304 305 305 305 306 306 307 305 303 302 303 305 303 304 304 305 305 304 301 299 300
299 299 299 300 300 300 300 300 300 300 299 300 300 300 300 300 299 298 299 299 298 298 299 299 299 301 300 300 301 303 303 303 304 304 304 305 306 306 305 307 298 297 297 298 300 302 305 303 301 302 301 298 297 298
299 300 299 300 300 300 300 299 300 299 300 299 299 300 300 300 300 300 300 300 300 299 299 299 299 302 302 301 301 301 302 301 301 302 303 306 305 305 308 294 293 292 293 297 295 297 298 299 300 299 299 296 295 297
299 299 300 300 299 299 299 300 300 300 300 300 299 300 300 300 300 300 300 299 300 300 299 298 299 302 303 303 302 303 302 305 304 304 305 303 299 303 292 290 290 289 290 291 292 294 297 296 295 295 293 291 289 287
300 299 299 300 299 299 300 301 300 300 301 300 300 300 299 300 299 299 300 299 299 300 300 300 299 301 301 302 303 302 303 304 305 303 298 296 293 289 288 287 286 287 288 288 291 293 291 291 290 290 289 287 286 285
299 300 299 300 299 299 299 299 299 300 300 300 300 300 299 300 300 299 298 299 299 299 298 298 298 301 300 303 303 301 302 303 306 302 299 295 293 290 287 286 285 285 286 287 287 288 287 287 287 286 285 284 284 283
299 300 299 300 300 299 300 300 300 300 300 300 300 299 300 298 298 300 298 299 300 301 299 299 300 300 300 300 301 300 303 301 303 295 294 292 289 286 285 284 284 284 284 284 285 284 284 284 284 283 282 282 281 282
299 299 300 299 300 300 300 300 300 300 300 300 299 295 293 289 289 291 298 298 297 295 295 298 300 299 300 301 301 303 303 297 293 291 290 288 286 285 284 284 282 282 283 282 282 282 282 282 282 282 281 281 282 283
299 299 299 298 298 295 299 300 301 300 297 292 290 287 287 285 288 289 290 290 291 292 293 296 299 297 296 296 297 297 292 292 289 289 287 286 284 283 282 282 282 281 281 281 281 281 281 281 281 281 281 282 283 282
298 299 297 298 297 297 296 297 297 297 291 287 287 286 286 285 286 286 287 289 289 290 294 298 294 293 293 292 290 290 289 288 288 287 285 284 283 282 282 281 281 281 281 281 281 281 281 281 282 281 281 282 282 281
298 298 299 299 299 299 297 294 294 291 287 284 283 284 283 284 284 284 285 286 288 291 294 294 290 290 290 290 287 285 288 286 284 283 282 282 282 281 281 281 281 281 281 281 281 281 281 281 281 280 281 281 281 281
297 297 295 296 295 297 297 294 289 285 284 284 283 283 283 282 283 283 284 285 288 290 291 291 289 289 287 286 285 284 282 282 282 282 281 281 281 281 281 282 281 282 281 281 281 281 281 280 281 281 280 279 279 278
297 297 298 297 297 296 292 288 285 283 282 282 282 283 283 283 283 284 285 286 289 289 288 287 286 285 284 285 283 282 281 280 280 280 280 281 281 281 282 281 281 281 281 281 281 281 280 280 280 279 278 277 277 276
296 296 297 298 298 294 288 286 285 283 283 283 283 283 283 282 282 284 285 285 285 285 285 284 284 284 283 282 282 281 280 280 279 279 279 280 281 281 281 281 281 281 281 280 280 280 279 278 278 277 276 276 275 274
296 294 295 296 295 290 288 286 285 284 284 283 283 283 282 281 281 282 283 283 283 282 281 281 281 281 281 281 281 280 280 280 280 279 278 279 280 280 281 281 280 280 279 279 278 278 277 276 275 275 274 273 273 272
293 292 292 294 291 290 289 287 285 284 284 285 284 283 283 282 281 280 281 282 281 280 280 279 279 280 281 281 281 282 281 282 282 281 279 278 279 279 279 278 278 277 277 276 276 275 274 274 273 272 272 271 271 270
293 292 293 292 290 289 288 288 287 287 287 286 286 283 281 280 280 280 280 279 278 278 278 278 280 281 281 281 281 282 281 282 281 280 279 279 278 277 276 275 275 275 274 273 273 272 272 272 271 271 270 270 270 269
293 292 293 293 292 291 290 290 290 289 287 288 284 282 280 279 281 281 280 279 278 277 278 279 280 280 280 280 280 280 280 281 280 279 278 277 276 275 274 274 273 273 273 272 271 271 271 270 270 270 270 269 269 269
293 292 291 291 291 284 289 287 287 286 286 285 283 281 279 280 280 279 279 278 277 278 278 279 279 279 279 279 279 278 278 278 277 276 275 275 275 274 273 273 272 272 272 271 271 270 270 270 269 269 269 269 269 268
290 284 287 280 287 282 280 278 280 282 280 279 280 278 278 280 277 276 277 277 277 278 279 279 279 279 278 277 276 276 276 276 276 276 275 274 274 273 272 272 271 271 271 270 270 270 269 269 269 269 269 268 268 268
280 281 280 278 280 282 280 280 278 279 279 279 277 276 278 275 275 275 277 278 278 278 278 278 279 278 277 277 277 276 276 275 275 274 274 273 273 272 271 271 270 270 270 269 269 269 269 269 268 268 268 268 268 267
276 275 279 279 281 281 278 279 280 277 276 277 274 271 271 271 271 275 276 278 278 277 277 277 276 277 276 276 275 274 274 273 273 273 272 272 271 271 271 270 270 270 269 269 269 269 269 268 268 268 268 268 268 267
277 278 275 274 275 275 270 271 272 272 275 276 274 270 269 270 274 275 277 278 277 277 276 276 276 275 275 275 274 273 273 273 272 272 272 271 271 270 270 270 270 270 269 269 269 269 269 268 268 268 268 267 267 267
276 276 276 268 271 272 271 269 271 273 274 274 269 271 273 273 274 276 276 277 276 276 276 276 275 275 274 274 273 273 272 272 272 271 271 271 270 270 270 269 269 269 269 269 269 269 268 268 268 268 268 267 267 267
276 276 273 271 268 270 272 272 273 274 274 274 273 273 273 273 274 275 275 275 275 276 275 275 275 274 274 273 272 272 272 271 271 271 271 270 270 270 269 269 269 269 269 269 268 268 268 268 268 268 268 268 267 267
277 276 274 273 272 273 273 273 273 274 274 274 274 273 273 273 273 274 274 274 274 274 274 274 274 274 274 273 272 271 271 271 271 270 270 270 270 269 269 269 269 269 269 269 269 268 268 268 268 268 268 268 267 267
277 275 273 271 273 274 275 277 276 275 275 275 274 274 274 274 273 273 273 273 273 273 273 274 274 273 273 271 271 271 270 270 270 270 270 270 269 269 269 269 269 269 269 269 268 268 268 268 268 268 267 267 267 267
277 278 277 276 274 275 276 277 276 276 276 275 275 274 274 273 272 272 273 273 273 273 273 273 273 272 271 271 271 270 270 270 270 270 269 269 269 269 269 269 269 269 269 269 269 268 268 268 267 267 267 267 266 266

GFSWCAN_850_thetae_054.txt.gz
Theta_e
294 295 296 296 297 296 296 295 292 292 292 292 292 293 294 294 294 293 294 295 295 296 297 300 299 300 301 302 303 304 304 303 303 308 308 307 308 307 308 310 310 310 311 312 311 312 313 311 312 313 317 314 312 312
295 297 297 298 297 297 296 295 294 293 293 293 294 294 295 295 295 295 295 294 295 296 298 298 299 300 301 301 302 302 305 304 305 307 307 307 308 308 307 309 310 312 310 311 311 312 312 312 314 312 312 313 313 313
296 297 297 297 297 297 296 295 295 294 294 294 295 296 296 297 296 297 295 294 295 295 297 299 300 300 301 302 301 302 303 305 305 305 307 308 308 308 309 309 308 309 310 312 311 311 311 310 311 310 310 310 309 309
297 297 298 298 299 298 297 297 296 295 296 297 297 297 298 297 298 298 295 296 296 297 300 300 300 301 300 301 302 302 303 304 304 305 306 308 308 307 308 308 309 309 310 310 310 310 309 309 311 309 307 307 306 306
298 299 299 299 299 299 298 298 297 297 297 297 298 298 298 298 298 297 296 297 298 299 302 301 300 300 301 302 302 302 303 304 305 306 306 307 306 307 308 308 308 308 308 310 310 310 309 309 308 305 306 305 304 303
299 299 300 299 300 299 299 299 298 298 298 298 298 298 298 298 298 297 296 298 298 299 300 302 301 300 301 302 302 303 302 303 304 304 305 305 306 306 309 309 308 307 306 305 308 305 306 306 306 301 302 301 299 298
299 300 300 299 299 299 299 299 300 300 300 299 299 299 298 298 298 298 299 299 299 299 299 302 303 302 301 302 303 303 302 303 304 304 304 305 306 306 308 309 302 299 299 300 300 299 304 301 302 300 298 296 296 295
299 299 299 299 299 300 299 300 300 299 299 300 300 299 299 298 298 298 299 299 298 298 299 302 303 303 301 302 302 302 303 303 301 302 303 306 306 306 308 296 296 296 296 298 295 296 296 297 297 297 297 295 294 292
299 299 299 299 300 299 300 299 300 300 299 300 300 300 300 298 298 298 299 299 298 299 301 301 303 303 302 302 302 302 302 303 301 303 304 306 306 307 294 293 292 291 291 292 293 295 295 294 293 293 293 291 291 288
300 299 299 300 300 299 300 300 299 299 299 300 299 299 300 300 300 299 299 299 299 299 301 303 302 303 302 302 303 303 303 304 306 304 299 305 299 290 290 289 288 288 289 290 292 295 292 292 290 287 287 286 286 285
300 300 299 299 299 300 300 300 300 300 299 300 300 300 300 300 300 300 298 301 299 301 300 301 301 303 301 305 304 303 304 305 305 303 305 302 299 291 288 288 287 287 287 287 287 287 286 287 287 286 284 283 283 282
299 299 299 299 299 299 299 299 300 300 300 300 299 299 299 299 299 301 301 300 300 301 299 301 301 301 300 302 305 303 305 304 306 300 304 301 291 288 287 286 285 285 284 284 284 284 284 283 283 282 281 281 281 281
300 300 300 299 300 300 299 300 300 300 300 299 298 294 295 293 297 301 302 302 301 298 298 298 301 300 300 300 301 305 307 303 298 300 298 292 287 286 285 285 284 283 283 282 281 282 281 281 281 281 280 280 281 281
299 298 297 300 299 299 299 298 299 299 296 293 294 292 293 293 293 293 294 294 293 294 296 297 299 301 297 300 298 300 296 298 299 299 294 289 286 284 284 283 283 281 280 280 280 280 281 281 280 280 280 281 282 281
297 297 298 298 300 300 300 300 300 298 292 289 290 290 290 288 288 288 288 291 291 290 293 297 297 298 297 296 295 296 297 297 295 294 289 286 284 283 283 281 281 280 280 280 280 281 281 281 281 281 281 281 282 281
297 297 297 296 297 296 295 296 296 294 287 286 285 289 287 290 289 288 288 290 289 290 294 296 296 297 294 294 294 292 297 295 289 287 285 283 282 281 281 281 280 281 281 281 281 281 281 281 281 280 280 280 280 279
298 297 294 293 294 294 294 293 290 285 285 285 286 284 285 286 286 286 287 288 288 292 296 295 295 292 291 291 290 288 289 287 285 284 283 282 281 280 281 281 281 281 280 280 280 280 280 280 280 279 278 276 277 276
298 297 297 297 296 295 291 288 285 285 285 284 285 285 285 284 285 286 286 286 290 291 290 289 289 289 289 290 288 285 284 283 282 282 281 280 280 281 281 281 281 281 281 281 280 280 279 278 277 276 276 275 275 274
297 297 298 298 295 293 288 286 286 285 284 285 284 284 284 284 284 284 286 285 286 287 287 287 287 287 286 285 285 283 282 282 280 279 279 280 281 281 281 281 281 281 280 280 279 279 278 277 276 275 274 274 274 273
295 295 296 296 294 289 287 286 286 286 286 284 284 283 283 283 283 283 283 284 284 283 283 283 283 283 283 282 282 281 280 280 280 280 278 278 279 280 280 279 279 279 278 278 278 276 275 274 274 274 273 273 272 271
293 293 292 293 290 289 288 287 286 286 286 285 284 284 283 283 282 282 282 283 281 281 282 281 280 280 281 281 281 281 281 281 281 281 279 278 278 278 279 278 277 277 276 275 274 274 273 272 272 272 271 271 270 269
293 292 292 290 289 289 289 287 288 287 287 286 285 284 284 284 283 282 281 281 280 279 279 280 280 280 279 280 281 281 281 282 281 280 279 278 277 276 275 275 274 274 273 272 272 272 271 271 271 270 270 270 269 269
293 293 293 292 291 290 290 289 290 289 290 288 285 285 284 283 282 282 281 280 279 278 278 278 278 279 280 280 281 280 280 280 280 278 277 277 275 274 274 273 273 272 272 271 271 270 271 270 270 270 269 269 268 268
292 291 291 290 291 289 288 288 288 288 288 288 286 285 284 283 282 282 281 280 278 277 278 278 278 278 278 278 277 278 277 277 277 276 275 274 274 273 273 272 272 272 271 271 270 270 270 270 269 269 269 269 269 268
290 284 287 288 287 289 289 288 288 288 288 287 286 285 284 283 284 283 282 280 279 277 278 278 278 278 277 276 276 276 276 275 275 275 274 274 273 273 272 272 271 271 271 270 270 270 270 270 270 269 269 269 269 268
284 281 285 286 287 289 288 288 288 287 287 285 283 280 281 283 283 282 281 279 278 277 277 277 277 277 276 276 276 275 276 275 275 275 274 273 273 272 271 271 270 270 270 270 270 269 269 269 269 269 269 268 268 268
284 282 280 278 281 283 284 283 284 285 285 284 282 281 282 281 281 279 277 276 277 277 277 277 277 277 276 276 276 275 274 274 273 273 273 272 272 271 271 270 270 270 270 270 269 269 269 269 268 268 268 268 268 268
279 278 280 275 276 277 279 279 280 280 280 278 279 278 278 279 279 276 275 277 277 277 277 277 277 276 276 275 274 274 273 273 272 272 272 272 271 271 271 270 270 269 269 269 269 269 268 268 268 268 267 267 267 267
277 275 276 272 274 275 274 276 276 275 274 276 278 277 275 273 272 273 276 277 276 276 276 276 275 275 274 274 273 273 272 272 271 271 271 271 270 270 270 270 269 269 269 269 269 269 268 268 268 268 268 268 267 267
276 275 274 273 273 275 274 272 273 272 272 273 274 273 273 271 273 275 275 275 275 275 275 275 274 274 273 273 272 272 272 272 271 271 270 270 270 270 269 269 269 269 269 269 269 269 269 268 268 268 268 268 268 267
276 276 275 275 274 274 272 273 273 274 273 273 274 274 273 272 273 274 274 274 274 274 274 274 274 274 274 273 272 272 271 271 271 271 270 270 270 269 269 269 269 269 269 269 269 269 268 268 268 268 268 267 267 267
275 275 275 276 275 274 274 276 275 275 275 276 274 274 274 274 273 273 273 273 273 273 274 274 274 274 272 272 272 271 271 271 270 270 270 269 269 269 269 269 269 269 269 269 268 268 268 268 268 267 267 267 267 266
277 277 276 276 275 276 275 276 277 276 276 275 273 273 273 273 273 272 273 273 273 273 273 273 273 272 272 271 271 271 270 270 270 269 269 269 269 268 269 269 269 269 268 268 268 268 268 267 267 267 267 266 266 266

GFSWCAN_850_thetae_057.txt.gz
Theta_e
293 293 293 294 295 296 296 297 297 296 294 292 292 292 292 292 292 293 295 296 296 296 296 297 298 299 300 303 305 304 304 304 304 308 308 309 310 309 309 311 311 310 311 312 312 313 312 312 312 313 316 314 314 313
293 293 294 295 296 298 298 298 298 297 296 293 292 292 292 293 293 293 294 295 295 296 296 298 298 298 300 301 301 303 304 305 305 308 308 309 310 310 309 310 312 311 311 312 311 312 313 312 314 314 313 313 313 313
294 295 296 296 297 297 298 297 298 296 296 294 292 292 292 293 293 294 295 296 296 296 297 297 297 298 300 298 300 302 303 302 306 306 309 310 309 309 310 310 311 311 311 312 313 312 312 311 313 312 311 311 311 310
297 297 298 298 298 299 299 299 297 296 296 294 292 292 292 293 294 294 295 296 296 296 297 297 298 298 297 301 301 301 302 304 305 306 308 308 309 308 309 310 310 310 310 310 311 311 311 311 312 311 310 309 309 308
297 299 299 299 299 299 299 299 297 296 295 294 294 294 294 295 295 296 296 295 296 296 299 298 299 301 301 301 302 302 302 303 303 306 307 309 307 308 309 309 310 309 310 311 311 312 312 311 310 308 307 307 306 305
299 299 299 299 299 300 299 299 298 297 296 295 295 296 297 297 297 297 298 296 296 297 297 301 302 303 302 302 302 303 303 302 303 304 306 306 306 308 310 309 309 309 309 307 310 307 307 307 307 305 304 302 301 300
299 299 300 299 300 299 299 299 299 299 297 297 297 298 298 298 298 298 299 298 298 296 297 302 304 303 302 303 303 302 303 303 302 302 303 306 307 307 308 309 307 304 303 304 302 302 306 303 303 299 299 299 298 297
299 299 299 299 298 300 299 299 299 299 298 298 298 298 298 298 299 298 298 299 297 297 299 304 304 304 303 303 304 304 303 303 303 304 304 306 306 307 309 302 301 300 300 302 299 299 300 299 298 296 296 295 295 292
299 299 299 299 299 299 300 300 300 301 300 299 299 298 297 297 298 299 299 299 298 299 301 302 304 305 302 303 303 304 304 305 303 305 304 305 307 307 296 297 295 293 294 295 295 298 297 296 294 293 292 292 292 288
299 299 299 300 299 300 299 300 300 300 299 300 298 297 298 298 298 298 299 298 299 300 302 303 303 305 303 303 304 304 303 305 305 304 303 306 297 293 292 291 290 291 291 292 293 297 293 294 292 290 288 287 286 285
299 299 299 300 300 300 300 300 300 300 300 298 299 299 299 299 298 299 298 301 300 303 302 303 303 304 303 305 305 304 304 305 305 306 307 307 300 292 290 290 289 288 288 288 288 288 288 288 289 288 285 284 283 282
299 299 299 300 300 299 300 300 300 300 300 300 299 298 299 299 300 303 303 302 302 303 301 303 303 303 302 303 305 305 305 305 305 304 306 306 293 290 288 287 287 286 286 285 286 285 285 285 284 283 282 281 280 280
299 300 299 299 300 300 300 300 300 300 300 299 300 297 299 296 303 304 302 303 303 301 300 300 303 302 301 302 303 305 305 306 303 305 304 295 290 288 287 287 285 285 284 283 282 282 281 280 281 280 280 280 280 280
300 300 299 299 300 300 300 300 300 299 298 297 297 294 298 298 296 297 298 298 295 296 299 299 299 301 299 302 302 304 301 302 304 304 299 292 288 286 285 285 284 282 282 281 280 280 279 280 280 280 280 281 281 281
299 299 298 298 299 299 299 299 299 297 293 292 294 294 293 291 291 291 291 294 293 294 297 299 299 300 300 299 299 299 300 302 300 297 292 287 286 285 284 283 282 281 280 280 279 280 280 280 280 280 280 280 280 280
297 297 299 298 299 299 300 297 296 293 290 289 289 292 291 294 293 292 293 294 292 294 295 297 299 300 298 298 299 298 303 300 293 290 286 285 284 283 282 282 281 281 280 279 280 280 280 280 280 280 280 280 279 279
297 296 293 294 294 293 294 295 291 288 288 289 289 288 289 289 290 290 290 291 290 294 299 299 299 295 295 297 294 292 293 290 288 287 285 284 283 282 281 281 281 281 280 280 280 280 279 279 279 278 278 276 276 275
298 296 296 295 293 293 293 289 288 288 287 288 288 288 287 287 289 289 289 289 293 294 294 292 293 294 294 295 292 288 287 286 285 284 283 282 281 281 281 281 281 280 280 280 280 279 279 279 279 278 277 276 275 275
298 297 297 296 294 292 289 288 289 288 287 287 286 287 287 287 287 287 288 288 289 290 291 291 291 290 289 288 287 285 284 284 283 282 280 280 281 281 281 281 280 280 279 279 279 278 277 277 278 277 277 277 277 276
296 296 295 294 292 290 289 288 288 288 288 286 286 286 285 286 286 286 286 286 287 286 286 286 286 286 285 285 284 284 283 282 282 281 281 280 280 280 280 280 279 279 278 278 278 278 277 276 275 275 275 275 275 274
294 291 291 292 291 290 289 289 288 287 287 286 286 286 286 285 285 285 285 284 283 283 284 283 282 282 282 282 282 282 283 283 284 284 282 281 279 279 279 279 278 279 279 278 277 276 276 275 274 273 273 272 272 271
293 292 293 291 291 290 289 289 289 288 288 287 287 287 287 286 285 284 283 283 282 281 282 283 282 282 281 281 281 280 281 282 281 281 280 280 280 279 279 278 277 277 276 276 276 275 274 273 273 272 272 271 271 271
293 293 292 292 292 292 290 291 291 291 291 289 288 288 288 286 284 284 283 282 281 280 280 280 279 279 279 278 279 279 279 280 280 279 278 278 277 277 276 276 276 275 275 274 273 273 272 271 271 271 270 271 271 270
292 291 291 293 292 291 290 291 290 291 290 290 289 288 287 286 285 285 284 282 280 280 280 280 280 280 280 280 279 279 278 278 278 278 277 277 276 275 275 274 273 273 273 272 272 271 271 270 270 270 269 270 270 270
291 286 289 291 291 292 292 291 291 291 291 290 289 289 287 287 288 286 285 282 281 281 281 281 281 282 281 279 278 277 277 278 277 276 275 275 275 275 274 273 272 271 271 272 272 271 270 269 269 269 269 269 269 269
287 284 288 290 291 292 292 292 292 291 289 288 287 285 287 288 288 287 285 282 281 281 280 281 281 281 280 279 279 277 276 276 276 276 274 274 274 275 274 274 274 272 270 270 270 271 270 269 269 268 269 269 268 268
287 286 283 282 286 288 290 289 289 290 289 288 287 287 288 286 285 282 280 280 280 278 278 279 280 280 278 276 275 275 275 275 275 274 273 273 272 272 272 272 271 270 270 270 269 269 269 269 268 268 268 268 268 267
282 281 283 281 281 283 284 285 285 285 285 282 284 283 284 284 283 280 278 277 276 276 276 276 276 276 275 275 275 274 274 273 273 273 273 272 272 271 271 271 271 270 270 270 270 269 269 268 267 267 267 267 267 266
281 280 278 277 279 279 278 281 281 278 278 282 283 281 278 276 276 276 275 275 275 276 275 276 276 276 275 275 274 273 273 272 273 272 273 273 272 270 270 270 270 270 270 269 269 269 269 269 268 268 267 267 266 267
279 280 278 277 278 279 276 277 276 276 276 277 276 275 275 274 274 274 275 276 276 276 275 275 275 274 274 273 273 272 272 272 272 271 272 272 270 270 270 270 270 269 269 269 268 267 268 268 268 268 267 267 266 266
279 280 279 278 277 277 276 276 276 277 278 278 278 277 276 274 273 274 275 274 275 275 275 275 274 274 273 272 273 272 271 271 271 271 271 270 270 270 270 269 269 269 269 269 269 268 268 268 267 267 267 267 267 267
279 279 279 278 277 276 276 279 279 279 279 278 278 277 278 278 277 274 274 273 273 274 274 273 273 273 272 272 272 271 271 271 271 270 270 270 270 270 269 269 269 269 269 269 269 268 268 268 268 267 267 267 267 267
280 280 280 279 278 279 277 281 281 280 280 279 277 277 276 278 277 272 273 274 273 273 272 274 273 272 272 272 271 271 271 270 270 270 270 269 269 269 269 269 269 269 269 269 268 268 268 267 267 267 267 267 267 266

GFSWCAN_850_thetae_060.txt.gz
Theta_e
291 292 293 293 293 293 294 294 295 296 296 296 295 293 292 292 293 293 294 294 296 296 298 298 298 299 300 301 305 305 305 304 305 305 307 307 309 310 311 311 312 311 312 313 312 312 313 311 312 312 317 314 314 314
292 292 293 293 294 295 295 296 296 296 297 297 296 294 292 292 292 293 293 295 295 297 297 298 298 298 298 299 301 303 304 302 305 306 308 309 311 312 310 311 311 313 311 311 311 311 313 313 315 314 313 313 312 312
292 293 294 296 297 297 297 297 297 297 298 298 297 295 293 292 292 292 294 295 296 296 296 296 297 298 299 299 300 301 302 304 304 302 307 310 310 310 310 309 311 311 312 311 312 312 311 314 314 312 311 311 310 309
293 293 295 297 297 298 298 298 299 298 298 298 297 295 293 292 292 292 293 295 296 296 297 297 298 299 299 299 300 301 300 300 301 303 305 309 310 309 311 310 311 311 310 312 313 312 311 311 311 309 309 307 306 306
293 295 297 298 299 299 299 299 299 299 298 296 297 295 293 292 293 293 294 295 296 296 299 299 298 299 299 300 298 299 302 302 302 304 306 307 308 309 310 309 309 310 310 312 314 311 311 309 307 307 306 304 303 303
295 297 298 299 299 299 299 299 299 298 296 296 296 294 292 292 293 293 295 294 295 296 297 299 300 300 301 301 302 302 301 302 303 302 304 307 307 308 309 310 308 308 307 306 307 305 307 306 303 302 303 301 301 299
298 299 299 299 300 299 299 300 299 298 296 296 295 293 292 293 293 295 297 299 296 296 298 299 299 302 303 303 302 303 303 302 302 302 304 305 307 307 309 308 306 303 303 303 301 303 307 302 301 298 298 298 298 294
299 299 299 299 299 299 299 299 299 298 296 295 294 294 294 295 295 296 297 299 298 297 297 300 302 304 302 303 304 302 302 303 302 303 303 307 306 307 307 303 300 297 301 299 299 300 299 299 297 296 295 295 293 291
299 299 299 299 299 299 299 299 299 299 296 296 296 297 297 297 297 298 298 298 297 298 298 301 304 305 304 304 303 304 303 304 303 306 306 305 309 305 297 296 294 294 295 295 296 299 298 296 295 293 292 291 291 288
298 299 299 299 299 299 299 299 299 298 298 297 297 297 297 298 299 298 298 298 298 298 300 303 302 305 304 304 305 304 304 305 304 304 305 306 298 295 294 292 291 291 292 291 293 293 293 293 292 289 288 287 286 285
299 299 299 299 299 299 300 300 300 299 298 298 298 299 298 298 298 299 297 300 299 302 301 302 303 305 304 306 305 304 305 306 305 306 306 306 299 293 291 290 289 288 288 289 288 288 288 288 288 287 285 283 282 282
299 300 300 300 299 300 300 300 299 298 299 299 299 298 298 299 299 301 303 302 303 303 303 305 304 304 304 304 305 305 305 306 305 304 306 302 293 291 289 288 287 286 286 286 286 285 285 285 284 283 282 280 280 280
299 300 299 300 300 300 300 299 299 299 300 299 299 299 300 299 303 304 302 303 304 302 301 302 303 302 302 302 303 304 305 305 305 305 301 295 290 289 288 287 286 285 284 283 282 281 281 281 281 280 279 280 280 280
299 300 300 300 300 299 299 299 299 299 297 298 298 296 300 299 298 297 298 299 297 298 300 302 300 302 300 301 303 304 302 303 305 306 298 292 288 287 286 285 284 282 282 281 280 280 280 280 280 280 280 280 280 280
298 299 299 299 299 299 299 299 298 296 294 294 296 296 294 292 293 293 294 295 295 296 299 300 300 301 302 300 300 301 301 305 299 296 292 288 286 285 284 282 282 281 281 280 280 280 280 280 280 279 279 279 279 279
298 299 298 297 298 299 299 299 298 293 291 290 291 294 294 295 295 294 295 295 293 296 298 300 302 301 300 300 301 299 302 299 294 290 287 285 284 283 283 282 281 281 280 280 279 280 280 280 280 279 279 279 279 278
298 298 297 294 293 295 295 295 291 289 290 290 290 290 292 292 292 292 292 292 293 296 300 300 300 297 297 299 295 292 294 291 289 287 286 284 283 282 282 282 281 281 281 281 280 280 280 279 279 279 278 277 276 276
294 293 293 295 297 298 294 291 290 289 289 290 291 290 289 290 291 291 290 292 295 296 296 295 295 295 294 296 292 290 288 286 286 285 284 283 282 282 282 282 281 281 281 280 280 280 280 280 279 278 277 277 276 276
298 297 297 294 293 292 291 290 290 289 289 289 289 289 289 289 288 289 290 290 290 292 292 292 291 291 290 289 288 286 285 284 283 282 281 282 282 281 281 281 281 281 280 280 280 279 279 279 279 278 278 278 278 277
295 294 293 292 293 291 290 290 290 289 290 288 288 288 288 288 288 287 287 288 288 287 286 287 288 287 287 286 286 285 284 283 282 282 281 281 281 282 281 281 280 280 279 279 279 279 278 277 276 276 276 276 276 275
293 292 292 292 291 291 291 290 289 288 288 288 288 288 288 287 287 287 286 285 285 285 285 285 285 284 283 283 284 283 284 284 284 283 282 281 281 280 280 280 280 280 280 280 279 277 277 276 275 275 274 274 273 272
293 295 293 292 291 290 290 289 289 289 289 289 288 289 289 288 286 285 284 284 283 283 284 283 283 282 282 282 282 282 283 283 283 282 281 281 281 281 280 280 279 278 278 278 277 277 275 274 274 274 273 273 272 272
293 294 294 293 292 292 291 290 292 291 291 289 289 290 289 287 286 286 284 283 282 281 281 281 281 281 280 280 281 281 281 281 281 281 280 280 279 278 278 278 277 277 276 275 275 275 274 272 272 272 272 272 272 272
292 291 292 293 292 292 292 292 292 292 291 291 290 289 289 288 286 285 285 283 282 281 281 281 281 281 281 281 281 280 280 280 280 279 279 279 278 277 276 275 275 274 274 274 274 273 272 272 271 272 271 271 271 271
292 287 291 292 293 293 293 293 293 293 292 291 290 290 289 289 289 287 285 283 283 282 282 283 284 283 281 280 279 279 279 280 279 278 277 277 277 276 275 274 273 273 273 274 273 273 271 271 271 271 270 270 270 270
289 286 290 292 293 294 294 294 293 292 291 290 289 289 290 291 289 287 285 284 283 282 283 283 283 282 282 281 280 278 277 277 278 276 275 275 275 276 276 276 275 273 272 271 272 272 272 271 270 270 269 270 269 269
289 288 285 286 289 291 292 292 291 291 291 290 290 290 290 288 286 283 283 282 281 280 281 281 282 281 279 277 276 276 275 276 277 275 273 273 273 273 274 274 273 272 270 270 270 270 270 270 270 269 269 269 269 269
284 285 285 285 285 286 287 287 288 288 287 285 287 286 286 286 284 282 280 279 279 278 278 278 278 277 277 275 275 274 274 274 274 274 274 274 273 272 272 272 271 270 270 270 269 269 269 268 268 268 268 268 268 267
284 282 280 280 282 280 281 283 283 280 280 284 285 283 279 279 278 278 277 277 277 277 276 275 275 275 275 274 274 274 274 274 274 273 274 275 274 272 271 270 270 270 270 269 269 269 269 269 269 269 268 268 267 267
283 282 280 279 280 279 278 280 279 278 278 278 277 277 277 276 277 277 277 278 278 277 276 276 276 275 275 274 273 273 273 273 272 273 273 273 272 271 270 270 270 269 269 269 268 268 268 268 268 268 268 267 267 267
283 283 281 280 279 278 279 279 279 279 279 278 278 276 276 275 274 275 275 276 275 274 275 275 274 274 274 274 274 274 274 272 272 271 271 271 271 270 270 270 270 269 269 269 269 269 269 268 268 267 267 267 267 267
283 282 280 279 279 279 279 281 281 280 280 279 279 279 279 279 278 274 274 275 276 275 275 275 274 274 273 273 272 272 271 272 272 271 271 270 270 270 270 270 270 269 269 269 269 269 268 268 268 267 267 267 266 266
281 280 280 280 279 281 280 283 282 282 282 281 279 279 278 279 278 273 274 275 275 274 274 275 275 273 272 272 272 272 271 271 271 271 270 270 270 270 270 270 270 269 269 269 268 268 268 267 267 267 267 267 267 266

GFSWCAN_850_thetae_063.txt.gz
Theta_e
291 292 291 291 292 292 293 293 293 294 294 294 295 295 295 294 292 292 294 294 294 295 296 296 297 297 299 299 302 300 302 303 302 301 301 302 303 306 307 309 311 310 309 309 308 309 311 311 311 314 314 313 312 311
291 290 290 292 292 293 294 295 295 296 295 295 296 296 296 295 293 292 293 294 294 294 296 297 297 297 298 298 298 299 299 300 304 304 302 304 303 305 309 310 310 311 311 309 308 308 311 314 314 313 312 311 310 310
289 290 292 293 293 294 295 296 297 297 297 297 297 297 297 296 294 292 293 294 294 294 296 295 295 296 297 298 299 299 301 302 303 301 301 305 306 306 307 308 310 310 309 311 310 311 311 311 310 309 308 308 308 308
291 292 293 293 293 294 296 298 298 298 298 298 298 298 297 296 294 292 293 293 294 296 295 296 297 296 297 298 298 299 300 301 301 300 300 304 306 308 307 308 308 310 306 309 311 311 309 307 305 305 304 305 305 304
292 292 292 293 295 297 298 299 299 299 299 299 298 298 297 295 293 292 293 293 294 296 296 298 297 297 298 299 299 298 299 300 302 301 302 305 305 307 306 307 308 308 303 309 310 306 308 306 305 303 302 302 301 300
292 292 295 295 297 298 299 300 299 299 299 298 297 296 295 294 292 293 294 293 294 295 296 294 298 298 299 300 300 300 299 299 302 301 303 304 306 306 303 306 305 303 302 300 300 304 302 300 299 300 300 298 298 297
293 294 296 298 299 299 299 299 299 299 298 296 296 296 294 293 292 293 294 296 294 295 297 298 298 300 300 297 300 301 302 301 300 302 302 303 304 306 301 303 298 299 300 298 300 302 300 298 297 297 297 294 294 292
296 296 298 298 298 298 299 299 299 298 296 296 296 294 293 292 293 294 298 298 297 295 296 298 298 299 302 302 302 302 302 301 301 302 302 304 306 305 304 297 296 295 297 297 298 298 297 295 294 293 293 292 290 287
298 298 299 299 299 299 299 299 299 297 296 295 294 293 293 293 293 294 294 295 296 296 297 298 298 302 302 302 301 302 302 301 302 302 303 304 299 299 296 294 293 292 292 292 295 294 294 291 290 289 289 288 287 285
299 299 298 298 299 299 299 299 298 296 296 294 294 294 296 295 296 295 297 297 298 297 299 298 301 300 301 303 303 302 302 303 302 301 305 303 296 294 292 290 290 290 290 290 291 290 290 289 287 286 285 284 284 284
298 298 299 299 298 299 299 299 297 295 295 295 297 298 298 296 298 298 297 298 297 298 298 300 300 300 302 302 302 303 301 300 302 302 302 302 297 292 289 288 287 287 288 288 287 287 287 287 285 284 282 282 282 282
299 299 299 299 299 299 300 299 297 297 297 298 299 298 298 298 298 300 299 299 298 300 302 300 302 302 303 303 303 303 303 302 304 301 303 295 292 289 287 286 286 285 285 285 285 284 284 284 283 281 280 280 280 280
300 300 299 300 300 299 299 298 297 298 299 298 299 298 299 298 301 301 299 298 298 300 301 303 302 301 302 302 301 302 303 302 302 303 296 292 289 287 286 285 284 283 283 282 281 281 281 281 280 280 280 280 280 280
300 300 299 299 299 299 298 298 299 299 299 298 297 294 298 298 296 295 297 298 297 300 301 300 300 300 300 300 300 301 299 298 303 300 291 288 286 285 284 283 283 281 281 280 280 280 280 280 280 280 280 280 280 280
299 299 299 298 298 298 298 298 296 297 295 294 295 295 293 293 293 293 295 295 296 298 298 299 299 301 296 298 299 298 298 300 295 289 287 285 284 283 282 282 281 280 280 280 280 280 280 280 280 279 280 280 280 280
298 298 297 297 298 298 299 298 296 293 290 290 292 294 294 293 293 293 294 294 295 297 299 300 298 299 299 299 297 294 297 291 288 284 285 285 284 283 282 281 281 280 280 280 280 280 280 280 280 280 279 279 279 278
298 298 298 295 294 293 294 296 292 290 291 290 289 290 292 292 292 291 292 293 295 296 299 297 295 296 294 294 291 290 287 287 286 285 284 283 282 282 281 281 281 281 280 280 280 280 280 279 279 279 278 277 276 276
299 298 296 297 297 296 294 291 290 289 290 290 289 289 289 290 290 290 291 292 295 295 295 293 295 290 288 291 286 286 285 285 284 283 283 282 282 282 282 281 281 281 281 281 280 280 280 279 279 278 278 277 276 276
295 294 296 297 295 293 291 290 289 289 289 289 289 289 288 288 288 289 289 290 291 292 291 290 286 286 286 287 285 285 284 283 282 282 282 282 282 282 281 281 281 281 281 280 280 280 280 279 278 278 278 278 277 276
298 297 293 294 294 291 290 290 289 289 289 288 288 288 288 288 287 286 287 287 287 286 286 285 284 286 286 286 285 284 283 282 282 282 281 282 282 281 281 281 280 280 279 279 278 278 277 277 277 277 277 277 276 275
292 292 292 296 291 291 291 289 289 289 289 289 288 287 287 286 285 285 284 284 285 285 284 285 284 284 284 284 284 283 283 283 282 282 282 281 281 281 280 280 280 280 279 279 278 277 277 276 275 275 274 274 273 273
293 293 292 291 291 290 289 289 289 289 289 289 289 289 288 287 286 284 283 283 283 283 284 283 283 283 283 283 283 284 284 284 283 282 281 281 281 280 280 279 279 279 278 277 277 276 276 275 274 273 273 272 272 272
294 294 293 293 292 291 290 290 291 290 289 289 290 289 287 287 286 285 284 283 281 282 282 282 282 282 282 282 282 282 282 282 281 281 280 280 279 278 278 277 277 277 276 275 275 274 274 273 272 272 272 272 272 272
292 292 293 292 292 291 292 292 291 291 290 290 288 288 288 287 286 285 283 283 281 281 281 281 281 281 281 280 280 280 280 280 279 279 279 278 277 276 276 275 275 275 274 274 273 273 272 272 271 272 271 271 271 271
291 288 291 290 293 290 290 291 292 291 288 288 288 287 286 289 284 283 282 283 282 282 282 282 282 282 280 279 279 279 279 279 278 278 277 277 277 276 276 275 275 274 273 274 273 272 272 271 271 271 271 270 270 270
285 286 288 289 291 291 291 289 289 288 286 286 285 289 289 286 283 282 284 283 282 282 283 282 282 281 280 279 278 278 278 278 278 277 276 276 277 277 276 275 275 274 274 272 272 272 272 271 271 270 270 269 269 269
284 284 286 287 288 291 289 291 290 286 286 286 288 285 282 280 280 283 283 282 282 282 283 283 282 281 280 279 279 277 277 277 278 276 274 274 273 274 274 275 274 273 272 271 271 271 271 271 270 269 269 269 268 268
284 285 282 284 283 284 282 281 281 282 282 285 285 279 280 279 281 282 280 281 281 281 281 281 280 280 279 277 275 274 274 274 274 274 275 275 274 273 273 272 272 271 271 270 270 270 269 269 269 269 269 269 268 268
283 281 281 276 280 280 280 280 280 280 279 282 277 276 279 279 279 279 279 280 279 280 280 279 278 277 277 276 276 275 275 275 274 274 274 274 273 273 272 271 271 271 270 270 270 269 269 269 269 268 268 268 268 267
283 281 280 279 275 277 280 280 279 278 279 278 278 278 277 277 278 278 278 278 277 277 277 277 276 276 275 275 274 273 273 273 273 274 274 274 273 272 271 271 270 270 270 270 269 269 269 268 268 268 268 267 267 267
283 282 280 279 278 279 279 279 278 277 277 276 276 275 275 275 276 277 277 277 277 276 276 276 275 275 275 275 275 275 274 273 272 272 272 271 271 271 271 270 270 270 270 269 269 269 269 268 268 268 267 267 267 267
282 281 279 276 279 279 280 280 279 278 278 277 277 277 278 277 275 275 275 276 276 275 275 275 275 275 274 273 273 273 273 272 272 271 271 271 271 270 270 270 270 270 270 269 269 269 269 268 268 268 267 267 267 266
279 279 279 279 279 280 281 282 282 281 281 280 279 279 278 278 275 274 275 275 276 275 275 275 275 273 273 273 272 272 272 272 271 271 271 271 271 270 270 270 269 269 269 269 268 268 268 268 268 268 267 267 267 267

GFSWCAN_850_thetae_069.txt.gz
Theta_e
289 290 291 292 292 292 291 290 291 291 292 292 293 293 293 293 293 293 293 293 292 294 294 294 295 295 295 296 295 298 297 297 299 300 302 303 301 304 304 304 305 306 306 305 306 307 306 306 311 312 312 310 308 307
289 290 291 292 291 289 290 292 290 291 292 293 294 294 293 293 294 294 293 293 293 293 293 294 295 295 295 295 296 297 298 298 298 302 302 301 301 297 303 304 308 303 307 307 306 306 305 304 305 309 310 309 308 305
290 291 291 289 290 291 291 289 290 292 293 294 295 295 295 295 294 294 295 293 293 293 294 293 294 294 294 295 296 297 298 298 298 297 300 301 302 304 301 303 307 309 308 308 309 308 306 303 302 302 302 301 302 304
292 292 291 290 290 289 288 291 292 293 293 293 294 295 295 296 296 295 296 295 293 294 292 293 295 295 295 295 295 295 296 298 298 300 299 301 301 303 304 305 306 307 306 305 309 307 305 304 302 300 299 299 299 298
291 290 289 289 290 289 291 292 292 293 294 296 296 298 297 297 298 296 295 295 294 293 294 295 295 296 295 297 296 296 296 296 297 300 300 300 302 303 301 305 304 301 301 303 306 302 303 300 300 299 300 298 296 295
289 290 291 290 290 290 291 292 293 295 296 297 298 298 298 299 298 297 293 294 293 293 294 293 294 295 296 297 297 297 298 297 299 300 301 302 302 302 304 303 300 298 298 300 298 298 298 297 296 295 297 295 294 295
290 290 290 288 290 291 293 294 295 297 297 299 299 299 298 298 297 295 293 293 292 293 293 295 293 297 297 298 298 298 298 297 298 299 300 301 301 303 302 301 297 296 297 298 299 299 297 296 292 294 295 293 293 291
288 288 288 289 292 293 294 296 298 298 298 298 298 298 297 295 294 294 294 293 292 293 294 292 293 296 299 299 299 300 299 299 299 300 300 301 302 303 298 294 293 294 294 294 294 296 295 293 293 292 291 290 290 289
289 289 290 293 293 294 296 297 298 299 298 296 296 296 294 293 294 296 295 293 293 294 292 293 292 290 297 299 300 300 300 299 300 300 301 301 299 295 293 291 290 290 290 291 292 291 292 292 290 290 289 288 287 284
290 292 293 294 296 296 297 298 298 298 296 296 295 293 292 293 294 295 293 293 293 293 296 298 297 297 297 298 299 300 299 300 302 301 302 297 290 289 288 288 289 289 289 292 292 290 289 289 288 285 284 285 284 282
293 294 297 297 297 297 298 298 297 296 295 294 293 294 292 293 293 293 294 294 295 297 296 297 298 299 299 300 301 300 300 301 302 300 303 298 293 289 287 287 287 287 287 288 288 288 288 287 285 283 282 282 283 282
296 298 298 298 297 298 298 296 296 295 294 294 295 293 294 295 295 295 296 296 297 296 297 297 298 298 300 301 300 301 300 299 303 300 299 292 288 286 285 284 285 285 285 285 285 285 284 284 283 283 282 282 282 282
297 298 298 298 298 298 297 296 295 294 295 295 294 295 296 295 297 297 297 298 298 296 299 301 300 300 301 301 299 300 302 297 301 294 291 289 287 285 284 283 282 283 283 283 283 283 283 282 282 281 281 281 281 281
300 298 298 298 298 297 296 295 294 296 297 297 296 296 295 293 290 288 287 292 297 299 300 300 297 298 299 298 298 299 295 297 296 290 289 285 285 284 282 282 282 281 281 281 281 281 281 281 281 281 281 281 281 281
299 299 298 298 297 296 295 294 296 297 295 293 293 287 286 291 293 294 295 296 297 298 299 299 296 296 297 297 294 297 295 290 288 286 280 284 284 283 282 281 281 280 280 280 280 280 280 280 280 280 280 280 280 279
299 298 299 298 296 295 294 296 297 292 291 291 290 291 292 291 289 292 294 294 296 299 299 298 290 291 296 291 294 288 291 287 280 276 283 283 282 281 281 280 280 280 280 280 280 280 280 280 279 279 278 278 277 276
298 297 296 296 295 296 296 296 296 290 289 289 288 289 290 290 289 290 291 294 296 298 292 294 288 296 291 287 287 283 279 276 281 283 283 283 282 281 281 280 280 280 280 280 280 279 279 279 278 277 276 276 276 275
297 296 296 295 296 294 295 293 290 289 288 288 286 287 286 287 289 289 290 294 295 294 293 291 290 284 280 285 281 277 282 282 283 283 282 282 281 281 281 281 281 280 280 280 280 279 279 278 277 277 277 277 276 276
296 296 297 296 296 296 292 289 288 288 288 288 288 287 287 286 286 288 289 289 290 290 289 287 282 281 278 281 279 282 282 282 282 281 281 281 281 281 281 281 281 280 280 280 280 279 279 278 278 278 277 277 276 275
297 295 296 294 294 292 289 288 288 288 287 288 288 287 286 285 286 287 288 288 289 286 283 280 277 282 283 284 284 284 284 283 282 281 281 281 281 281 281 281 281 280 280 279 278 278 278 277 277 276 276 276 275 275
293 291 291 293 291 289 288 288 288 288 287 287 286 286 285 285 284 283 284 285 284 283 281 283 282 284 285 284 284 284 283 283 282 283 282 281 281 281 281 280 280 279 279 278 278 277 277 276 275 275 274 273 273 273
295 295 295 294 290 289 288 288 288 288 287 287 288 287 286 285 283 282 282 282 282 282 282 283 283 284 283 283 283 283 283 283 282 282 281 281 281 280 280 280 279 279 278 277 277 276 275 275 274 273 273 272 272 272
293 293 292 291 290 288 288 289 289 289 284 288 288 285 283 285 284 283 282 281 281 282 283 283 283 283 283 282 282 282 282 282 282 281 281 280 280 279 279 279 278 277 277 276 275 274 273 273 272 272 272 271 271 271
292 292 291 291 291 286 289 290 289 289 289 287 285 284 283 285 283 281 278 280 281 282 282 282 283 282 282 282 282 282 282 281 281 280 280 280 279 278 277 276 276 275 275 274 273 273 273 272 271 271 271 271 270 270
292 288 290 287 291 286 282 283 285 285 284 282 281 280 282 285 277 275 277 280 281 281 282 282 282 282 282 281 280 280 280 280 280 279 278 277 277 276 276 276 275 275 274 274 273 273 272 272 271 271 270 270 270 269
284 286 286 286 287 286 285 282 279 280 278 279 278 286 286 275 276 277 280 280 280 281 281 281 281 281 280 280 280 279 279 278 278 278 277 277 276 276 276 276 275 275 274 273 272 271 271 271 271 271 270 270 269 269
281 280 285 284 285 287 283 285 285 280 278 279 279 277 275 274 274 279 281 281 280 281 281 281 281 281 281 280 279 279 278 278 277 277 275 275 275 275 275 275 274 274 273 272 271 271 270 270 270 270 269 269 269 268
282 281 280 279 280 280 272 272 272 274 276 281 280 273 273 274 276 279 281 282 282 282 281 282 281 280 280 279 279 278 278 277 277 275 274 274 274 273 273 272 272 272 271 271 271 270 270 270 270 269 269 269 268 268
280 280 280 272 277 278 277 273 274 278 278 279 270 270 276 277 278 280 281 282 282 282 282 281 280 280 279 278 277 276 275 274 274 274 274 274 274 274 273 272 271 271 271 270 270 270 270 269 269 269 268 268 268 268
280 279 278 276 270 273 275 276 277 277 278 277 277 276 276 275 277 280 281 281 282 282 281 281 280 279 278 276 276 275 275 274 274 274 274 274 273 272 271 271 271 270 270 270 270 269 269 269 269 269 268 268 267 267
280 279 278 278 274 275 275 276 276 277 277 276 277 276 275 275 276 277 278 279 279 279 279 279 278 276 276 275 274 274 274 273 273 272 272 272 272 271 271 271 271 270 270 270 269 269 269 268 268 268 268 268 268 268
279 278 276 273 276 276 277 276 276 276 276 276 276 276 276 276 275 275 276 276 276 277 277 276 276 276 275 275 274 274 273 273 272 272 272 272 271 271 271 270 270 270 269 269 269 269 269 268 268 268 268 268 268 268
278 278 279 278 277 276 278 278 277 277 277 277 278 277 276 275 274 275 275 275 275 276 276 275 275 275 273 273 273 273 272 272 272 272 272 271 271 271 270 270 270 269 269 269 269 268 268 268 268 268 268 268 268 267

GFSWCAN_850_thetae_072.txt.gz
Theta_e
291 290 289 290 291 291 291 292 293 292 290 289 289 290 289 291 292 293 292 293 292 292 292 294 295 295 295 294 290 295 294 296 297 301 302 303 300 302 304 303 304 305 305 305 307 307 306 304 308 309 308 306 304 303
292 291 290 290 291 291 292 292 292 290 291 290 292 292 292 293 293 294 293 293 293 293 292 293 294 293 293 294 296 295 296 297 297 299 300 302 303 300 302 304 305 302 304 306 306 305 304 302 302 301 308 307 303 302
292 290 289 290 291 292 292 291 289 291 291 290 291 293 294 294 293 293 294 294 293 294 293 292 293 293 293 293 294 295 296 297 297 296 298 301 302 302 304 302 305 306 306 307 307 306 304 302 300 298 298 298 300 300
290 290 289 290 292 291 290 290 291 290 289 291 292 293 294 294 294 295 294 293 294 293 292 292 294 294 295 295 294 294 295 297 298 298 298 301 300 302 302 304 304 304 304 303 307 305 303 301 299 297 295 297 297 297
289 289 289 291 292 291 290 290 288 289 292 292 293 293 294 294 295 296 297 295 294 294 293 294 294 294 295 295 296 295 294 295 296 297 299 300 300 301 302 302 303 299 301 301 305 299 300 296 295 296 294 292 292 295
290 290 291 292 290 289 289 289 290 291 292 293 294 295 296 297 297 297 293 294 295 294 293 293 293 295 295 297 296 296 295 295 295 299 299 300 302 302 303 300 298 297 297 299 297 296 295 293 292 293 293 292 291 291
291 292 291 289 289 290 290 289 290 292 293 294 296 298 297 299 299 296 294 295 294 294 293 290 294 296 296 297 297 296 296 297 297 298 298 298 300 302 302 301 297 295 294 294 296 297 295 293 289 291 291 289 289 289
291 290 290 290 291 289 289 290 293 294 295 297 298 298 298 296 295 294 293 294 294 293 293 293 293 293 297 298 298 298 297 297 298 298 299 300 301 302 299 293 292 292 293 292 292 294 293 291 291 290 289 288 288 285
291 290 289 288 288 288 290 293 294 296 297 298 298 296 294 294 294 295 293 293 293 293 292 292 292 290 297 298 298 299 298 298 298 298 298 300 298 296 292 291 290 289 290 291 291 291 291 291 289 288 287 286 285 281
289 288 287 288 287 290 293 294 296 297 297 297 295 294 293 295 293 293 293 293 293 293 295 295 294 292 296 296 298 297 297 293 299 299 300 297 287 289 288 288 288 288 288 291 291 290 289 286 286 284 285 283 282 280
288 289 289 289 290 293 294 295 296 297 296 295 293 292 295 294 293 293 294 292 292 295 294 295 297 297 297 297 300 298 299 298 300 300 302 294 291 288 287 285 286 286 286 287 287 287 287 286 284 282 281 282 282 282
290 289 291 292 293 294 296 297 296 295 295 294 293 293 295 295 294 293 294 294 296 296 296 296 297 297 298 299 299 299 300 300 304 299 299 290 286 286 285 284 284 284 284 284 284 284 284 284 283 283 282 282 282 281
291 292 294 295 296 297 297 297 296 295 294 293 293 294 294 294 295 294 292 296 297 295 297 299 300 299 300 299 299 300 300 299 299 296 291 286 286 285 284 283 283 282 282 282 282 282 282 282 281 281 281 280 280 281
294 296 297 297 298 298 297 296 295 294 293 295 296 296 296 294 293 293 288 288 296 298 299 299 298 298 298 297 297 298 297 297 294 292 290 285 285 284 282 283 282 282 281 281 281 280 280 281 280 280 280 280 280 280
296 297 297 297 298 297 296 294 295 295 295 293 293 289 290 290 292 293 295 296 297 298 299 298 296 296 297 296 293 296 295 290 290 287 279 284 284 283 282 282 281 281 281 281 281 281 281 281 281 280 280 280 280 279
297 297 298 298 297 296 295 295 296 294 292 291 290 287 290 289 289 292 294 295 296 297 298 296 289 290 293 290 291 286 290 288 281 275 281 283 283 282 281 281 281 281 281 281 281 281 281 281 281 281 280 278 277 276
297 298 297 296 296 294 295 295 295 291 289 289 286 288 289 289 288 290 291 293 296 297 288 289 288 291 290 286 286 281 280 275 280 282 283 283 282 281 281 280 280 280 280 280 280 280 280 280 278 277 277 277 277 276
297 296 296 295 294 294 295 295 290 289 287 288 287 286 286 287 288 288 290 292 295 293 293 291 289 284 280 286 282 276 281 281 283 283 282 282 281 281 281 281 280 280 280 280 280 279 279 278 278 278 277 277 276 276
295 295 295 294 294 295 295 290 289 287 287 288 287 286 286 286 287 288 289 289 290 290 289 286 282 280 277 279 279 281 282 282 282 281 281 281 281 281 281 281 280 280 280 280 279 279 279 278 278 277 277 277 276 275
295 295 294 295 295 294 289 288 288 288 287 287 287 286 285 285 286 287 289 289 288 287 283 279 276 281 282 283 284 284 283 282 282 281 280 281 281 281 281 280 280 280 280 280 279 278 278 277 277 276 275 275 275 274
295 295 295 296 294 289 288 288 287 287 287 286 286 286 285 285 284 284 284 286 285 282 280 282 282 284 285 285 284 284 283 283 283 282 281 281 281 281 280 280 280 280 279 278 278 277 277 276 276 275 274 274 273 273
293 291 292 294 291 289 288 288 287 287 287 287 287 286 285 284 283 282 282 282 281 281 282 283 283 284 284 284 283 283 282 282 282 282 281 281 281 280 280 280 279 279 278 277 277 276 275 275 274 273 272 272 272 272
293 294 294 291 289 288 287 289 288 288 284 287 287 284 282 284 283 283 281 281 281 282 283 283 283 283 283 282 282 282 282 282 282 282 281 281 280 280 279 279 278 277 277 276 275 275 274 273 272 272 271 271 271 271
293 292 291 291 289 285 288 290 289 288 288 285 283 282 281 284 283 280 276 280 281 282 283 283 283 282 282 282 282 282 282 282 282 281 280 280 280 279 278 277 276 275 275 274 274 273 273 272 272 271 271 271 270 270
292 288 290 284 289 285 282 280 284 283 281 279 280 279 280 284 275 274 276 280 281 282 282 283 283 283 283 282 282 281 281 281 281 280 279 278 277 276 276 276 275 275 274 274 273 272 272 272 272 271 271 270 270 269
285 285 284 285 286 283 283 280 279 278 277 278 277 283 284 274 275 276 278 280 281 281 282 282 282 282 282 282 281 280 279 279 278 278 278 277 276 276 276 275 275 275 274 274 273 272 271 271 271 270 270 270 269 269
281 280 283 283 285 285 280 283 284 279 277 278 278 276 274 275 275 278 280 280 281 282 282 282 282 282 281 280 279 279 278 278 277 277 276 276 276 275 275 275 275 274 273 272 271 271 271 270 270 269 269 269 269 268
281 281 280 279 279 279 272 270 271 273 274 280 280 272 274 275 275 279 280 281 281 281 281 281 280 280 280 280 279 279 278 278 277 276 274 274 274 274 273 273 272 272 272 271 271 271 270 270 270 269 269 269 269 268
280 279 280 273 276 276 275 271 273 277 277 278 270 270 275 276 277 279 281 281 281 281 281 281 280 280 279 279 278 278 277 276 274 274 274 274 274 274 273 272 271 271 271 271 270 270 270 269 269 269 269 268 268 268
279 279 277 274 269 271 274 275 276 276 277 277 276 275 275 275 277 279 282 282 282 282 282 281 280 280 279 278 277 276 275 274 275 274 274 273 273 272 272 272 271 271 271 270 270 270 269 269 269 269 268 268 268 268
279 279 277 275 272 275 275 276 276 277 276 276 277 276 275 275 276 277 279 280 281 281 280 280 279 278 276 276 275 274 274 274 273 273 273 273 272 272 271 271 271 271 270 270 270 269 269 269 269 268 268 268 268 268
278 277 275 270 275 276 276 276 276 276 276 276 276 276 276 276 275 276 277 278 278 279 278 278 277 276 276 275 274 274 274 273 273 272 272 272 272 271 271 271 270 270 270 269 269 269 269 268 268 268 268 268 268 268
278 277 277 277 276 275 276 277 276 276 276 277 277 277 276 276 275 276 276 276 276 276 276 276 276 275 274 274 273 273 273 273 272 272 272 271 271 271 270 270 270 269 269 269 269 269 268 268 268 268 268 268 268 268

GFSWCAN_850_thetae_075.txt.gz
Theta_e
293 293 291 290 290 290 291 292 291 291 293 293 292 292 293 293 293 293 292 292 292 291 292 292 294 294 294 294 294 294 294 296 297 299 302 304 304 304 304 304 306 306 307 307 306 307 306 304 307 307 306 305 302 301
294 293 292 290 289 290 291 292 292 293 292 291 290 289 290 290 290 292 292 292 292 292 292 292 292 293 293 294 294 294 295 294 297 299 299 300 304 304 303 305 305 306 306 307 306 307 304 302 302 299 305 304 301 299
292 293 292 290 290 291 292 292 292 292 291 290 290 290 292 292 292 293 294 293 292 293 293 293 293 293 292 292 293 294 295 296 297 297 298 301 302 302 304 305 306 305 304 307 307 306 303 301 298 297 298 297 297 296
291 291 292 290 289 290 291 292 293 291 290 291 290 290 291 293 294 294 293 293 293 293 292 292 293 293 294 294 293 293 293 297 297 296 297 300 300 301 301 302 303 303 303 302 305 303 300 296 295 294 294 295 295 295
292 291 291 291 289 290 291 292 291 291 290 290 289 291 292 293 294 294 295 295 294 293 293 293 294 294 294 294 295 295 294 294 295 296 297 300 300 302 301 303 301 298 300 302 302 297 297 294 292 293 293 291 291 291
292 291 290 290 289 290 292 292 290 289 288 289 292 292 293 294 294 294 295 295 295 294 294 295 294 294 295 296 296 295 295 294 295 297 298 299 300 301 302 302 297 295 294 296 296 293 292 291 290 291 292 291 291 291
290 290 289 290 290 290 292 289 289 289 289 291 292 293 295 296 297 297 295 295 295 294 294 293 294 295 297 295 295 295 295 295 296 297 298 298 297 299 303 302 294 294 293 292 294 294 291 291 288 289 289 289 290 289
289 290 290 291 292 290 289 290 290 289 291 292 294 295 296 297 297 295 295 294 293 294 293 293 293 293 297 297 297 296 296 296 297 297 298 299 300 301 300 293 291 292 292 291 292 293 291 288 287 286 286 286 285 283
289 290 291 291 290 291 291 289 288 290 294 295 296 296 296 295 295 293 294 293 293 293 292 292 292 293 296 297 297 298 297 298 297 299 297 299 299 300 292 291 289 288 289 290 290 289 288 287 286 285 285 283 282 281
290 290 291 291 290 289 289 288 291 294 295 295 295 294 295 294 293 293 294 293 293 293 294 293 292 294 296 295 297 297 296 297 297 298 298 301 293 289 288 287 286 286 288 291 291 290 287 286 284 283 282 282 281 280
289 291 290 289 289 288 287 289 293 295 294 295 293 293 293 293 293 293 292 291 290 292 292 293 294 296 296 297 299 297 298 297 298 300 300 296 294 289 286 285 285 285 286 286 287 286 286 285 283 281 280 280 281 281
290 290 288 288 288 288 288 293 294 295 296 294 294 293 293 294 293 292 294 294 293 295 294 294 295 296 297 296 298 298 300 299 303 299 300 296 288 285 284 283 283 283 284 283 283 283 283 283 282 282 281 281 281 281
289 289 289 289 289 289 291 294 294 295 294 294 294 293 293 293 289 292 292 295 296 295 295 296 299 297 297 298 299 301 301 301 298 299 296 288 286 284 283 282 281 282 282 282 282 282 282 282 281 282 281 281 280 280
289 289 290 291 292 293 294 295 295 294 294 295 294 293 293 290 292 290 291 290 295 296 298 299 298 299 298 298 298 299 298 299 298 297 293 286 285 283 283 282 281 281 281 281 281 281 281 281 281 280 280 280 280 280
290 291 292 293 294 295 296 295 294 294 295 294 294 291 291 290 291 292 293 295 295 296 298 297 296 296 297 297 296 297 297 297 294 294 285 284 283 283 282 281 281 280 280 280 280 281 280 280 280 279 279 279 278 277
293 294 295 297 297 297 295 294 295 293 292 291 289 289 289 291 290 292 293 294 295 297 297 296 293 293 294 292 294 292 295 294 289 282 281 283 283 282 282 281 280 280 280 280 280 280 280 280 280 279 277 276 276 276
296 297 297 297 296 295 295 295 295 291 290 289 285 287 288 287 287 289 290 293 295 296 293 291 292 292 292 290 290 285 289 284 280 281 282 282 282 281 281 281 281 280 280 280 280 280 279 278 277 277 277 276 276 276
297 297 297 295 295 295 295 295 292 289 286 287 286 286 286 287 288 288 289 292 294 293 292 291 289 289 289 291 289 281 280 281 282 282 282 282 282 281 281 281 281 281 280 280 280 279 278 278 278 278 277 277 276 276
297 296 295 295 295 294 294 292 290 287 287 287 286 286 286 286 286 288 288 289 290 290 290 287 286 287 285 280 280 281 282 282 282 281 281 281 281 281 281 281 281 281 280 280 280 279 279 278 278 277 277 276 276 275
295 296 294 294 294 294 289 288 288 288 286 287 287 286 285 285 286 287 289 289 290 289 285 283 282 281 282 284 284 285 283 283 282 281 280 280 281 281 281 281 280 280 280 279 279 278 278 277 277 276 276 275 275 274
294 294 294 294 294 290 288 288 287 287 286 286 285 285 285 285 285 286 286 288 287 282 281 282 282 284 284 285 284 284 283 283 283 283 281 280 280 280 280 280 280 279 279 278 278 277 277 276 276 275 274 274 273 273
293 293 294 294 291 289 288 287 287 287 287 286 286 286 284 283 283 283 283 283 281 281 282 283 283 284 284 284 283 283 283 282 282 282 281 281 281 280 280 280 279 279 278 277 277 276 276 274 274 273 273 272 272 272
294 295 295 293 289 288 286 288 288 287 284 286 286 284 282 283 282 283 280 280 281 282 283 283 283 283 284 283 282 282 282 282 282 282 281 281 280 280 279 279 278 278 277 276 276 275 274 273 272 272 272 271 271 271
295 294 291 290 289 285 288 288 288 288 287 284 283 282 281 282 282 280 279 279 280 282 283 283 283 283 282 282 282 282 282 281 282 281 280 280 280 279 278 278 277 276 275 275 274 273 273 273 272 272 271 271 271 270
293 288 290 286 288 284 285 281 282 283 281 281 281 280 280 282 279 277 279 279 281 281 282 282 282 283 282 282 282 281 281 281 281 281 280 279 278 277 276 276 275 275 274 274 274 273 272 272 271 271 271 271 270 270
287 284 284 283 285 283 282 281 278 279 278 278 278 281 282 277 277 279 279 280 281 281 282 282 282 282 282 282 282 281 280 280 279 279 278 278 276 276 276 276 275 275 274 274 273 272 272 271 271 271 270 270 270 269
282 280 283 283 284 284 280 282 282 279 277 279 280 278 277 278 277 277 279 280 281 282 282 282 283 283 282 281 280 280 279 279 278 278 277 276 276 276 275 275 275 274 273 272 272 271 271 271 270 270 270 269 269 269
281 281 280 279 279 279 272 271 271 274 275 279 279 276 279 277 277 278 279 280 281 282 282 281 281 281 281 280 280 279 278 278 278 277 275 274 274 274 274 273 273 272 272 272 271 271 270 270 270 270 269 269 269 268
279 279 280 274 275 274 273 271 273 276 276 278 273 273 274 275 276 277 279 281 281 281 281 281 280 280 280 279 279 278 277 277 276 274 274 274 274 274 273 273 272 271 271 271 271 270 270 270 269 269 269 268 268 268
278 278 275 273 271 272 274 274 275 276 276 276 276 275 275 275 276 278 279 280 281 281 281 281 280 280 280 279 278 277 276 275 274 274 274 274 273 273 272 272 271 271 271 271 270 270 270 269 269 269 268 268 268 268
278 278 275 274 272 275 275 275 276 276 276 276 276 276 275 275 276 278 279 280 280 281 281 280 280 279 278 276 276 275 274 274 274 273 273 273 272 272 271 271 271 270 270 270 269 269 269 269 268 268 268 268 268 268
278 277 274 269 274 275 276 276 276 276 276 276 276 276 276 276 276 277 278 279 280 280 280 279 278 278 277 276 274 274 274 274 273 273 272 272 272 271 271 271 270 270 270 269 269 269 269 268 268 268 268 268 268 268
277 276 276 276 275 274 275 276 276 276 276 276 276 276 276 276 276 276 277 277 277 277 278 277 277 276 275 275 274 273 273 273 272 272 272 271 271 271 270 270 270 270 269 269 269 269 268 268 268 268 268 268 268 268

GFSWCAN_850_thetae_081.txt.gz
Theta_e
294 295 296 295 292 292 293 293 293 291 292 295 293 292 291 290 291 294 296 295 295 295 297 296 296 296 297 297 299 299 299 300 300 302 303 303 302 306 306 305 306 307 307 308 309 309 310 307 310 312 307 306 305 302
293 294 295 294 292 292 292 293 291 292 293 294 291 291 291 292 293 293 296 295 295 295 297 296 296 296 296 296 297 297 298 298 299 301 301 301 304 306 307 307 307 308 308 311 310 310 304 302 302 300 302 302 301 299
293 294 294 293 292 292 291 292 291 292 293 291 291 293 293 293 294 294 296 295 294 295 296 297 297 297 297 296 296 297 298 298 299 298 300 301 304 305 306 307 308 307 305 308 309 301 300 299 298 297 296 296 295 294
292 293 293 294 292 290 290 290 291 291 292 292 293 292 291 291 291 292 295 295 295 296 297 299 297 297 296 296 296 296 297 297 296 297 298 301 302 303 305 305 306 304 305 304 303 300 300 297 296 296 295 293 293 293
290 291 294 293 292 290 290 291 291 292 292 293 292 291 290 290 292 292 294 295 295 296 298 298 298 297 297 297 297 296 296 296 297 298 299 301 302 304 304 305 303 300 299 302 304 299 298 295 294 294 294 294 293 292
289 291 294 293 292 291 290 291 292 292 293 293 291 290 291 290 291 293 295 295 294 295 296 298 298 297 297 297 297 297 297 297 297 297 298 300 301 302 303 305 299 297 296 295 297 295 294 292 292 292 292 291 290 290
289 290 293 293 292 291 290 290 292 292 293 292 291 290 290 290 292 295 296 296 295 295 294 298 298 298 297 298 298 298 297 297 297 298 299 300 300 301 303 305 298 295 294 295 294 295 295 294 292 291 291 290 290 289
290 290 291 292 291 291 290 290 291 292 292 290 289 288 290 292 293 294 294 294 295 295 294 298 299 298 297 298 298 298 298 297 298 299 300 301 301 301 303 296 295 294 293 293 293 293 293 292 292 291 291 290 290 288
291 291 291 291 291 291 291 290 291 292 290 288 288 291 292 293 295 295 295 295 295 295 297 297 299 300 298 298 299 298 298 300 299 301 301 301 302 302 297 295 293 291 292 293 292 293 292 292 291 290 290 290 289 287
291 290 291 291 290 290 290 290 291 290 289 290 292 294 294 294 295 294 294 293 294 295 296 298 298 300 298 298 298 299 299 300 301 302 300 301 301 293 292 291 291 291 291 292 294 293 292 291 290 289 288 287 287 285
291 291 291 290 290 290 290 291 291 289 290 292 294 295 295 294 295 296 296 297 296 297 297 297 298 300 298 300 300 299 301 301 301 302 302 303 302 293 290 290 289 289 289 290 290 289 289 289 288 287 285 284 284 283
290 290 290 290 291 292 291 291 289 289 292 294 294 294 294 295 296 296 297 296 297 297 298 298 298 298 299 299 301 301 301 301 301 302 302 304 294 290 289 288 287 287 287 286 286 286 286 285 285 284 282 281 279 279
289 288 290 291 292 291 291 290 289 291 294 294 294 294 296 295 297 296 296 297 299 298 299 298 298 298 299 299 300 301 301 303 303 304 304 297 291 289 288 287 286 285 284 283 283 282 282 281 281 280 278 279 280 281
289 289 290 291 291 290 289 288 289 290 294 296 296 296 297 297 297 299 300 301 299 299 299 298 298 299 300 300 300 304 304 304 304 305 303 295 290 288 287 285 285 282 282 281 280 279 278 280 281 281 281 281 281 281
288 290 291 291 290 288 288 289 293 293 295 297 296 298 298 297 296 296 296 297 297 297 298 298 300 299 301 302 301 302 303 305 304 303 296 290 287 285 284 282 280 279 279 279 279 278 279 280 280 280 280 280 279 278
290 290 291 289 288 289 291 293 294 293 293 295 295 295 294 295 295 295 296 297 296 296 298 298 302 302 302 302 301 302 303 304 299 293 289 286 285 283 282 280 280 280 280 279 279 279 280 280 279 280 278 277 277 276
290 291 290 289 289 291 293 293 293 292 293 293 293 291 293 295 296 295 295 295 295 297 302 302 302 303 300 301 301 299 301 296 290 288 287 285 283 281 279 279 279 279 280 279 279 279 279 279 278 277 277 277 276 276
291 292 290 290 291 293 293 294 293 293 293 292 294 291 291 291 293 293 293 293 295 298 299 301 299 300 302 302 302 295 289 288 287 286 285 283 281 280 280 280 280 280 280 279 279 278 278 278 279 280 278 277 276 276
292 291 290 291 293 294 294 293 293 293 291 290 289 289 290 290 290 290 291 293 294 294 296 297 300 302 301 295 294 290 288 287 286 285 282 281 281 281 280 280 280 280 280 279 280 281 281 280 280 280 279 279 279 279
292 293 292 293 294 294 293 292 292 293 293 291 290 291 291 291 290 290 292 292 293 294 297 298 298 294 293 290 291 289 288 287 285 284 283 281 280 280 280 281 281 281 281 280 280 280 280 280 279 278 278 278 278 279
295 294 294 294 293 292 292 292 291 292 290 292 290 291 291 290 291 292 292 291 294 295 296 291 290 286 286 287 288 288 287 286 286 286 284 282 282 282 282 282 281 282 282 281 281 280 279 279 278 277 276 276 275 275
294 294 293 292 291 291 291 291 292 291 291 291 291 291 292 292 292 291 290 293 293 290 289 289 288 285 285 286 286 286 285 286 286 285 284 283 283 283 282 282 282 281 281 281 280 280 279 277 276 275 275 275 274 274
294 294 295 293 291 291 289 290 291 291 292 292 291 292 292 291 290 287 291 291 289 285 286 287 286 287 285 284 283 284 284 285 285 284 284 284 283 283 282 281 281 281 280 280 278 278 277 275 274 274 274 274 274 274
295 295 294 293 293 291 290 291 291 291 291 292 293 292 291 291 288 290 293 291 286 284 285 284 285 284 284 284 284 284 284 285 284 283 283 283 282 282 281 280 280 279 279 278 277 276 275 275 274 274 273 273 273 272
296 291 292 292 291 292 292 293 292 292 293 292 291 291 291 288 292 292 292 289 285 285 284 285 285 285 286 286 284 282 283 284 284 282 282 282 281 280 279 278 277 276 276 276 276 275 275 273 273 273 273 272 272 271
295 289 292 293 292 293 293 293 292 292 292 292 292 290 289 291 291 293 290 287 285 285 284 285 286 286 285 285 283 282 282 282 282 281 280 280 280 280 280 278 278 277 276 275 275 275 274 273 272 271 271 271 271 270
293 291 288 286 290 290 291 290 291 292 291 292 292 290 291 292 293 289 283 283 284 283 284 284 284 285 284 283 282 280 281 281 281 280 280 279 278 277 277 278 277 276 275 274 273 272 272 272 271 270 270 270 270 269
288 288 290 287 287 287 290 291 291 292 291 289 290 291 291 292 290 283 281 281 282 283 283 283 283 283 281 280 282 282 281 280 279 279 278 277 276 276 276 275 275 274 273 273 272 272 271 271 270 270 269 269 268 268
286 284 285 283 285 285 286 289 290 286 283 286 290 289 285 280 278 278 278 278 279 280 281 282 282 282 282 281 281 280 279 279 278 277 277 277 275 275 275 274 274 273 272 272 272 271 271 271 270 270 269 269 269 268
283 283 284 282 284 286 283 281 282 279 279 280 281 279 279 277 275 276 277 279 280 281 280 282 282 281 281 281 280 279 279 278 277 276 277 277 275 274 274 273 273 272 272 271 271 270 270 270 270 269 268 268 267 267
281 282 283 283 283 281 279 277 277 277 278 279 279 282 281 277 275 276 277 278 279 281 281 281 280 280 280 280 279 279 278 276 275 275 275 274 274 273 273 272 272 272 271 271 270 270 270 269 268 268 268 268 268 268
282 283 282 282 281 277 277 280 280 281 280 281 280 278 277 280 280 276 278 279 279 279 280 279 279 278 279 279 279 278 277 276 275 274 274 274 273 273 272 272 271 271 271 270 270 270 269 269 269 269 268 268 268 267
279 280 281 280 279 280 279 280 281 280 281 281 280 281 281 282 281 275 278 278 277 278 278 278 279 279 278 277 277 276 275 275 274 274 273 273 272 272 271 271 271 271 270 270 270 270 269 269 269 268 267 267 267 266

GFSWCAN_850_thetae_084.txt.gz
Theta_e
295 295 296 297 296 294 292 292 294 294 291 293 292 292 292 292 292 295 297 296 297 298 298 297 297 298 299 299 300 300 300 300 301 302 303 302 302 303 308 306 305 305 307 308 308 312 311 303 306 308 305 303 302 299
295 296 296 296 295 293 293 293 294 293 292 293 294 292 291 290 291 295 297 295 295 296 298 298 298 298 298 298 298 298 299 299 300 301 301 301 302 306 306 308 307 309 308 309 305 306 302 300 300 299 299 299 299 297
294 295 296 295 294 292 292 293 293 292 292 294 294 291 291 292 294 294 296 296 296 296 298 299 299 299 298 298 297 298 299 300 299 299 300 301 302 304 305 306 306 305 305 307 306 301 299 298 298 296 295 296 295 294
294 294 295 295 293 292 292 293 292 292 293 293 291 291 293 293 293 294 296 296 296 297 298 300 299 298 298 298 298 298 298 298 298 298 299 300 301 303 304 305 305 301 302 302 302 301 299 296 295 296 295 294 293 293
292 293 294 294 294 292 291 291 292 291 292 292 292 293 292 292 292 292 295 295 296 297 299 298 299 298 298 298 298 298 298 298 298 298 299 300 300 304 304 305 301 298 298 299 301 298 297 295 294 293 293 294 294 292
291 292 294 294 294 292 290 290 291 291 292 292 293 292 291 289 290 294 294 295 295 296 297 298 300 299 299 298 299 299 298 298 297 298 298 299 300 303 303 304 298 296 296 295 296 294 293 293 293 293 292 291 291 290
289 290 291 292 293 291 290 291 291 292 292 293 292 291 291 290 292 294 296 296 296 296 295 298 299 299 299 298 299 299 299 298 297 298 299 300 300 302 304 304 297 295 294 295 295 295 295 293 292 292 291 291 290 290
289 289 290 293 293 291 291 291 292 292 293 293 292 291 290 290 291 294 294 295 295 295 295 298 299 300 299 299 299 300 299 297 298 298 300 302 301 302 303 297 295 295 294 293 294 294 293 293 293 292 292 291 290 289
289 289 291 293 292 291 291 290 291 292 292 292 291 288 290 291 294 293 294 294 295 295 297 298 299 300 299 299 299 299 299 300 299 301 301 301 303 303 298 296 294 293 293 293 293 294 293 293 292 292 291 291 289 287
289 290 291 292 292 291 291 291 291 292 291 288 289 292 293 293 293 294 294 294 294 295 295 299 298 300 299 299 300 300 299 300 301 302 301 303 302 295 294 293 293 292 292 293 295 294 293 292 290 289 288 287 286 285
290 291 291 291 292 291 291 290 291 292 290 290 292 294 295 294 295 295 296 296 296 298 298 298 298 300 299 300 300 299 301 302 302 303 303 303 301 294 292 291 291 290 290 290 290 289 289 289 288 287 285 283 283 282
290 291 292 292 291 290 290 290 291 291 291 291 294 294 294 294 296 298 298 298 299 298 299 299 299 299 300 300 301 301 301 302 301 303 303 303 294 291 290 289 289 288 287 287 287 286 286 286 285 283 282 281 281 281
291 291 291 291 290 290 290 291 291 292 291 292 295 295 296 297 298 297 297 297 298 298 300 299 302 299 300 300 301 301 301 302 303 304 304 297 292 290 289 288 287 286 285 284 284 283 283 282 282 280 279 279 280 281
291 291 291 290 291 291 292 291 290 290 292 295 296 297 298 297 297 299 300 302 300 300 300 299 299 299 300 301 300 300 303 303 305 304 303 295 291 289 288 287 285 283 282 282 281 280 279 281 281 281 280 280 280 280
290 290 290 290 291 292 292 291 290 290 293 296 298 299 298 298 297 297 298 298 298 299 300 299 300 300 300 300 301 302 303 304 304 302 296 291 288 286 285 284 282 281 281 280 279 279 279 279 279 280 280 280 279 278
289 290 291 291 291 290 289 289 290 291 294 296 296 296 296 297 297 295 296 298 297 297 298 298 301 301 302 302 302 302 303 304 298 293 289 287 286 285 283 282 281 281 281 279 279 279 279 278 279 279 278 278 277 277
289 291 291 291 290 289 290 291 292 293 295 295 295 293 295 297 297 296 296 297 296 298 301 301 304 304 301 302 302 302 301 295 291 289 288 286 284 282 281 281 281 280 280 280 280 279 279 279 279 279 279 278 277 277
292 292 291 289 289 291 291 293 294 294 294 293 295 293 292 293 295 295 295 295 296 299 300 302 300 301 302 302 303 295 291 290 288 287 285 284 282 281 281 281 281 281 281 280 280 280 280 280 281 281 280 278 278 278
293 291 289 289 291 294 294 294 294 295 293 291 291 291 291 291 292 292 293 294 295 297 297 299 300 302 301 297 295 292 289 288 287 285 283 282 282 281 281 281 281 281 281 281 281 282 282 281 281 281 281 280 280 280
292 290 289 290 293 294 294 294 294 295 294 293 292 292 292 293 291 291 293 294 295 296 298 299 298 294 294 292 292 290 289 288 285 284 283 282 281 281 281 282 282 281 281 281 281 281 281 281 280 279 279 279 279 279
291 290 290 292 293 294 294 294 294 294 292 293 292 292 292 291 292 292 293 294 295 297 298 294 291 289 289 290 290 289 288 287 286 285 284 282 282 282 282 283 282 282 283 282 282 281 280 281 280 278 277 277 276 276
293 292 291 293 292 292 292 293 294 293 293 292 292 293 293 293 293 293 293 294 296 292 292 291 289 286 287 288 288 287 287 287 287 285 284 283 283 283 283 283 283 283 283 282 282 281 281 279 278 277 276 277 275 275
293 293 293 292 292 292 292 293 293 293 294 293 293 294 293 293 292 291 293 294 290 289 289 289 288 288 287 286 286 286 286 286 285 285 284 284 284 284 283 283 283 282 282 281 280 280 279 278 277 275 275 275 275 275
295 295 294 294 294 293 291 293 293 293 294 294 295 294 293 293 290 292 294 293 288 287 287 287 286 286 285 285 285 285 286 286 285 285 285 284 283 283 282 282 281 281 281 280 279 278 277 276 276 275 275 274 274 274
295 293 294 293 293 293 293 294 294 294 295 294 294 294 293 290 292 293 294 291 288 287 286 286 286 286 286 286 285 285 285 285 284 284 284 284 283 282 281 280 279 278 277 278 278 277 277 276 275 274 274 274 273 273
296 291 294 295 294 295 295 295 294 294 294 294 294 293 291 293 293 295 293 289 287 286 285 286 287 287 287 285 284 284 284 284 283 283 282 282 282 282 281 279 279 278 278 276 276 276 276 275 274 273 272 272 273 272
295 292 290 290 293 293 294 293 294 294 294 294 293 292 292 293 295 290 286 286 287 285 285 286 287 287 286 284 284 283 283 283 283 282 280 280 280 280 280 280 279 279 277 276 274 274 273 273 272 272 271 271 271 271
291 291 291 290 291 291 293 293 293 294 294 293 292 292 293 294 291 285 284 284 285 284 285 285 286 286 284 283 282 282 282 282 282 281 279 279 278 277 277 276 276 275 275 274 273 273 272 272 271 271 270 270 270 269
289 288 288 289 289 289 291 292 293 289 286 290 293 292 288 282 281 281 280 282 282 283 284 284 283 283 283 282 281 281 281 280 279 278 278 277 276 275 276 275 275 274 274 273 273 272 271 271 270 270 269 269 269 269
287 287 288 286 287 290 287 284 285 282 283 283 284 282 281 279 278 278 279 280 281 281 281 282 282 282 281 279 278 279 278 279 278 278 279 278 277 276 275 274 274 273 272 272 271 271 271 271 270 270 269 268 268 268
285 286 287 287 287 284 282 280 280 280 281 282 282 285 283 278 277 278 280 280 282 282 281 281 280 279 279 279 279 280 279 278 277 277 277 276 275 275 274 273 273 272 272 271 271 271 270 270 269 269 268 268 267 266
285 286 285 286 283 280 279 281 282 283 282 282 282 281 280 281 281 277 278 279 279 280 280 280 279 279 278 279 279 279 279 277 276 275 275 275 274 274 273 272 272 272 271 271 271 271 270 270 269 269 268 267 267 266
283 283 284 283 281 281 281 283 283 283 283 284 283 282 282 284 282 277 278 279 280 280 279 279 279 279 279 279 279 278 277 276 275 275 274 274 273 273 272 272 272 271 271 271 271 270 270 269 268 268 267 267 266 266

GFSWCAN_850_thetae_087.txt.gz
Theta_e
295 295 295 296 295 296 293 293 294 293 293 293 292 292 293 293 294 296 295 296 297 298 298 298 298 298 298 299 295 299 297 297 297 296 301 295 295 300 302 307 306 305 306 307 306 306 307 299 302 304 303 300 298 295
295 295 296 296 296 294 293 293 294 294 292 294 292 292 291 291 292 296 296 294 295 296 298 297 297 297 298 298 298 298 298 300 299 294 296 297 301 302 304 306 304 308 306 305 304 303 300 298 297 297 297 298 296 295
295 295 296 296 296 294 293 293 294 294 292 293 294 292 291 290 292 296 296 296 297 297 298 299 299 299 297 297 296 298 300 299 299 298 298 297 299 301 304 305 304 302 301 304 303 299 297 296 296 295 295 294 293 293
295 296 296 295 296 293 292 293 294 293 292 292 294 291 292 293 294 295 296 296 296 297 297 300 299 298 298 298 298 297 297 298 298 298 299 295 297 301 303 303 301 299 299 300 301 299 296 295 295 295 294 293 292 291
295 295 295 295 294 292 292 293 293 292 292 294 292 292 293 293 293 293 295 296 296 296 297 297 298 299 298 298 298 298 298 298 298 298 295 296 298 301 301 301 298 297 297 297 298 296 296 294 293 293 293 293 291 290
293 294 294 295 294 292 292 292 292 292 293 293 292 293 292 292 291 292 294 294 295 296 296 292 298 299 299 299 298 299 298 297 297 297 297 298 299 301 297 298 296 295 295 295 295 294 293 293 292 292 291 290 290 289
292 293 294 294 294 293 291 290 291 291 292 292 293 292 291 290 292 294 295 296 296 296 295 295 297 299 299 299 299 299 299 298 297 297 297 298 299 301 297 299 296 294 294 294 294 294 293 293 292 291 291 290 289 288
291 292 292 293 294 293 290 291 291 292 292 293 293 291 290 290 292 294 294 294 295 294 294 295 295 299 299 298 298 299 299 298 297 297 298 299 301 301 299 296 295 294 294 293 293 294 293 293 293 292 291 289 288 287
290 290 290 292 293 291 291 292 293 293 293 293 292 291 290 290 292 293 294 294 294 294 295 295 293 292 299 299 299 299 298 293 297 295 299 300 294 297 297 295 293 293 294 294 294 293 293 292 291 290 290 288 287 285
290 289 290 292 293 291 291 292 292 293 293 291 290 289 293 292 293 294 294 294 293 295 295 295 298 294 299 299 298 298 299 295 297 298 301 294 295 294 294 293 292 293 293 293 294 292 292 290 289 288 287 286 285 284
289 289 291 294 292 291 291 291 292 292 291 289 290 292 294 293 294 295 294 294 294 296 295 297 297 296 299 293 295 299 298 298 300 301 298 296 297 293 292 291 290 290 290 290 290 290 290 288 287 286 285 284 284 283
289 290 292 293 292 291 291 291 292 292 291 289 293 294 294 295 295 296 296 295 296 297 298 298 298 298 299 299 299 300 299 297 300 300 298 295 294 291 290 289 288 288 288 287 287 287 286 286 286 285 284 283 282 282
290 290 292 292 291 291 290 291 292 292 291 291 295 294 294 295 297 293 292 294 292 298 298 299 294 299 299 299 299 300 300 298 302 301 298 294 291 290 288 287 286 285 285 284 284 284 284 283 283 282 282 281 281 282
291 291 292 292 291 291 290 291 291 292 290 293 295 293 294 293 291 291 294 294 299 299 299 299 299 299 299 297 295 299 295 300 303 300 298 292 290 289 287 286 286 284 283 282 282 282 282 282 281 281 282 281 281 281
291 292 291 290 290 290 290 291 291 291 292 294 296 295 291 297 297 297 297 298 298 298 299 297 298 299 298 297 298 297 298 299 301 297 292 288 288 288 286 285 284 282 281 281 281 281 281 281 282 281 281 279 278 277
291 291 291 291 291 291 291 291 290 290 291 294 296 296 296 297 296 295 295 296 297 297 298 298 298 299 297 296 299 300 302 300 295 291 288 287 286 285 284 283 282 281 281 281 281 281 282 281 280 279 278 278 277 277
291 291 290 291 292 292 291 290 291 291 293 295 295 294 294 296 296 295 295 297 296 296 297 298 299 299 300 299 298 295 297 293 290 289 287 286 285 284 282 282 281 281 281 281 281 281 279 279 280 280 280 279 279 278
291 291 291 292 291 290 289 292 293 293 294 294 294 294 293 293 295 295 295 295 295 297 299 300 299 297 293 298 299 293 291 289 289 287 286 285 284 282 281 281 281 281 280 280 281 280 281 281 280 280 280 280 279 279
292 291 291 291 290 290 291 292 294 294 293 292 292 292 291 292 293 294 294 294 295 296 296 298 296 296 297 296 293 291 289 288 286 285 284 283 282 281 281 281 281 281 281 281 281 282 281 281 281 281 280 280 280 280
291 291 291 290 291 294 294 294 294 294 292 292 292 291 291 292 292 291 292 293 295 296 296 295 295 293 293 292 293 291 289 287 286 283 282 282 282 281 281 281 281 281 281 281 282 281 281 280 280 280 279 279 279 279
291 290 289 289 291 293 294 294 295 294 293 293 292 292 292 290 291 292 292 294 294 296 297 293 291 291 291 291 291 290 289 288 286 284 282 281 281 281 282 282 282 282 282 282 281 281 281 281 280 279 279 277 277 276
290 290 291 291 293 292 293 294 294 293 293 292 291 292 292 292 292 292 293 294 295 293 293 292 291 289 289 289 289 288 287 286 285 284 283 282 282 282 283 283 282 283 283 283 282 282 281 280 280 279 277 276 276 275
291 291 291 292 292 292 292 293 293 293 293 292 293 294 293 293 293 292 292 294 292 291 291 291 290 288 288 288 287 287 287 287 286 284 283 283 283 284 283 283 283 283 282 281 281 280 280 279 278 277 275 275 275 275
292 293 293 293 293 292 292 293 293 293 294 293 294 294 293 293 291 291 292 292 289 289 289 288 288 288 287 286 286 286 286 286 285 284 284 284 284 284 283 283 282 282 281 281 280 280 278 277 276 276 275 274 274 274
294 294 293 293 293 292 292 292 293 293 290 291 293 293 291 291 291 292 292 289 287 288 287 287 287 286 286 285 285 286 286 285 284 285 284 284 283 283 282 281 281 280 280 279 278 278 277 276 276 275 274 274 273 273
295 291 293 294 293 294 294 294 293 294 294 293 293 292 291 291 292 291 290 288 288 287 287 286 286 285 286 286 285 286 285 285 284 283 283 283 282 282 281 280 279 279 278 277 277 277 276 276 275 275 273 272 272 272
293 292 291 292 293 294 293 294 294 294 293 293 292 290 291 291 290 287 286 287 287 286 286 286 286 287 286 285 285 284 284 284 283 283 282 282 282 282 281 280 279 280 279 277 276 274 274 273 273 273 272 271 271 271
292 291 285 290 292 292 293 293 291 293 292 294 292 292 292 290 285 284 284 285 286 286 286 286 287 287 286 285 284 284 284 283 283 282 282 281 281 280 280 280 279 278 276 275 274 273 273 272 272 271 271 270 270 269
289 290 290 290 290 290 292 291 291 289 289 291 292 290 285 283 282 282 283 284 285 285 285 286 285 285 285 284 283 283 283 282 282 281 280 279 277 277 276 276 276 275 274 274 273 273 272 271 271 271 270 270 270 269
288 289 288 286 282 287 287 286 285 285 286 287 286 284 282 280 281 281 281 282 283 283 284 284 284 284 284 283 282 281 281 280 279 279 279 278 278 277 276 275 274 274 273 273 273 272 272 271 271 271 270 269 269 268
286 287 288 287 286 284 283 283 283 283 283 283 284 285 282 280 279 280 280 280 281 282 282 282 282 282 282 282 282 281 280 279 279 278 279 279 278 276 275 274 273 273 272 272 272 271 271 271 270 270 269 268 268 267
285 287 287 285 282 281 281 281 281 282 282 282 282 282 280 280 279 279 280 281 281 282 281 281 281 280 280 281 280 280 279 279 278 277 276 275 275 274 274 273 273 273 272 272 272 271 271 270 269 269 268 268 267 266
283 285 284 282 280 281 281 283 283 284 283 283 283 282 281 282 281 279 279 280 280 281 280 280 280 280 280 280 280 280 279 277 276 275 275 274 274 273 273 273 272 272 272 272 271 270 270 269 269 268 267 267 266 266

GFSWCAN_850_thetae_090.txt.gz
Theta_e
297 297 297 297 296 296 297 294 294 294 294 292 292 293 293 295 295 295 296 297 298 298 298 298 298 298 298 298 293 297 295 296 295 295 297 292 293 298 302 303 305 305 306 305 305 305 305 297 299 301 300 297 295 293
296 296 295 296 295 296 295 293 293 293 294 292 292 292 293 293 295 294 294 296 297 297 297 297 297 297 298 298 297 297 297 298 297 292 293 294 297 298 302 305 303 303 301 303 302 300 298 296 296 296 296 296 294 292
296 295 295 296 295 295 293 294 295 292 293 293 292 291 291 292 296 295 295 294 295 298 298 299 299 297 295 295 295 298 299 299 298 298 295 293 295 298 301 303 302 300 299 302 300 298 297 296 295 294 293 292 291 291
295 295 296 296 296 294 293 293 294 293 293 294 293 291 290 291 296 296 295 295 296 297 296 299 298 298 298 298 297 296 297 298 297 298 297 291 295 298 299 302 298 298 298 298 298 297 295 294 294 293 292 291 291 290
295 295 296 295 295 294 293 293 294 293 292 294 292 292 293 293 294 295 295 296 296 296 295 297 299 299 298 297 297 298 297 297 297 297 292 293 296 297 298 297 297 296 296 297 294 294 294 293 292 292 292 290 289 288
296 296 296 296 294 293 293 293 292 292 293 294 291 293 292 292 293 293 293 294 295 295 295 291 297 298 298 298 298 298 298 297 297 297 296 297 298 299 296 295 296 296 295 295 294 293 293 292 291 291 290 289 288 288
295 295 295 294 293 292 293 293 292 293 293 293 292 292 292 291 291 294 294 295 295 295 295 290 294 298 299 298 298 298 298 298 297 296 296 296 297 300 296 298 295 294 294 294 294 293 293 292 291 290 290 289 288 287
293 294 295 294 293 292 291 292 292 293 293 293 293 291 290 290 293 294 294 295 295 294 294 289 293 298 298 298 298 298 298 298 297 296 297 297 299 300 297 295 294 294 293 293 293 294 293 292 291 290 289 288 287 286
293 294 294 295 294 292 290 290 291 292 293 293 291 290 290 290 291 293 294 294 294 294 294 294 290 289 299 298 298 299 298 291 296 292 295 298 294 297 295 295 294 294 294 293 294 293 291 290 291 290 288 287 287 285
291 292 292 293 294 291 291 291 292 293 293 292 291 289 290 291 292 293 294 294 294 293 293 294 295 293 298 298 296 297 297 293 294 295 299 293 295 294 294 293 293 293 293 294 293 292 290 290 289 288 287 286 285 284
289 290 291 294 292 291 292 293 293 293 292 291 289 292 294 293 294 294 293 292 292 294 293 294 295 294 299 291 292 298 298 298 300 298 299 296 296 293 291 291 291 291 291 291 291 291 290 289 288 286 285 284 284 283
289 290 290 293 291 292 292 292 293 292 291 289 292 294 293 293 293 294 293 293 293 295 296 296 297 296 298 299 297 298 299 298 301 298 297 293 291 290 290 289 289 289 289 288 288 288 287 287 286 285 284 283 283 283
289 290 292 293 291 291 292 292 292 291 289 293 294 295 293 294 295 292 289 292 289 296 298 298 297 298 299 299 298 298 300 298 299 295 296 290 289 288 288 288 287 286 286 286 285 285 285 285 284 284 284 283 283 283
290 291 293 293 291 291 291 292 292 291 290 291 294 293 293 289 287 288 289 288 297 299 298 298 298 298 299 294 290 298 294 300 297 296 295 288 289 287 287 286 286 285 284 284 284 283 284 284 283 283 283 282 282 281
290 292 293 291 291 291 292 292 292 292 291 293 294 291 288 294 296 296 297 297 297 297 298 297 296 298 292 294 297 296 299 299 299 296 288 288 288 288 287 285 285 284 283 283 283 283 283 283 283 283 282 280 278 278
291 292 292 291 291 290 291 291 292 291 291 292 295 295 295 295 294 295 295 296 296 297 297 297 296 297 298 295 299 298 301 300 289 286 288 288 287 287 286 285 284 283 283 283 282 282 282 282 280 279 279 278 278 278
292 292 291 291 290 290 291 291 291 291 291 294 294 293 294 295 295 295 294 295 295 296 295 297 298 297 298 295 297 295 296 284 288 287 288 288 287 286 285 283 283 283 282 282 282 281 280 280 281 280 280 279 279 279
291 290 290 290 291 291 291 290 291 292 293 294 292 293 293 294 294 294 294 295 295 296 297 298 297 297 289 295 295 290 290 289 289 289 288 286 285 284 283 283 282 282 282 282 280 280 281 281 281 280 280 279 279 279
290 291 291 291 291 291 290 291 293 293 294 293 292 292 292 292 292 293 294 294 294 296 296 296 293 292 296 295 292 291 289 289 287 286 286 285 284 283 282 282 281 282 282 281 281 281 281 281 281 280 280 279 279 279
291 291 291 292 291 292 292 293 293 293 291 292 291 291 291 292 291 292 292 293 294 295 295 292 291 294 295 295 294 294 291 290 287 284 283 282 282 282 282 282 282 282 281 281 282 281 280 280 280 280 279 279 278 278
291 292 291 290 292 293 294 294 294 294 292 292 292 292 291 291 291 291 291 292 294 295 294 294 295 293 293 292 292 291 290 289 288 287 285 282 282 281 281 281 281 281 282 282 281 281 281 281 281 280 279 278 277 276
292 291 290 289 291 292 292 293 294 293 292 292 292 292 292 291 292 292 293 294 294 295 294 294 294 292 291 290 290 289 289 288 286 285 284 283 282 281 281 282 282 282 282 282 281 281 281 280 280 279 279 277 276 275
290 290 291 291 292 292 292 293 293 292 290 292 292 293 293 293 293 292 292 292 293 293 293 293 292 291 290 289 289 288 287 287 286 284 283 283 282 282 282 282 282 282 283 282 282 281 281 280 279 278 277 276 275 275
290 291 292 292 292 291 292 292 293 293 293 293 293 293 292 292 291 290 287 292 291 290 290 291 290 288 288 288 287 287 287 287 286 284 283 282 283 283 283 282 282 283 282 282 281 280 280 279 277 276 276 275 274 274
292 293 293 290 292 291 291 292 292 291 291 292 293 292 290 291 286 288 288 289 289 288 288 288 288 288 288 287 286 286 286 286 285 283 283 283 283 283 282 282 282 282 281 281 280 280 278 277 277 276 275 274 274 273
294 291 291 291 291 292 292 292 292 292 292 291 291 292 290 285 288 289 287 288 288 288 288 287 287 287 286 286 286 286 285 285 284 284 284 284 284 283 283 282 281 281 280 278 277 277 277 277 276 275 274 273 272 271
288 288 291 292 293 294 292 293 293 292 292 292 291 288 290 290 289 285 287 287 288 287 287 287 287 286 285 285 285 285 285 284 284 284 284 283 283 282 281 281 280 279 279 279 277 276 275 274 274 273 272 271 271 270
292 292 286 291 292 293 291 290 287 291 292 293 290 288 285 284 284 286 286 286 287 286 286 286 286 286 286 286 285 285 284 284 284 283 283 282 282 281 281 281 280 280 279 277 275 274 273 273 272 271 271 270 270 270
290 290 291 288 290 291 292 292 290 291 290 291 285 282 283 285 285 284 284 285 285 286 285 286 286 286 286 285 285 284 284 284 283 283 282 282 281 280 280 279 279 277 276 275 274 273 272 272 272 271 271 271 270 269
289 290 288 286 282 282 288 288 288 288 288 288 288 286 285 284 283 283 283 284 284 285 285 285 286 286 285 285 284 283 283 283 282 282 282 281 279 278 277 276 275 275 274 273 273 273 272 272 271 271 270 270 269 268
288 289 287 286 282 284 284 285 285 285 285 285 285 285 284 283 282 282 282 282 282 283 284 284 285 284 284 284 284 283 282 282 282 281 279 279 278 277 276 275 274 274 273 273 273 272 272 271 270 270 269 268 268 267
286 287 286 279 280 281 282 282 282 283 282 283 283 282 281 282 281 281 280 281 281 281 282 282 283 283 283 283 282 282 281 282 281 279 279 278 277 275 274 274 273 273 272 272 272 271 271 270 270 269 268 268 267 267
284 284 283 281 279 280 280 282 282 282 282 282 282 282 282 282 282 281 280 280 280 281 281 281 281 281 281 281 281 280 280 280 279 277 276 275 274 274 273 273 273 273 272 272 271 271 270 269 269 268 268 267 267 266

GFSWCAN_850_thetae_093.txt.gz
Theta_e
298 298 298 297 297 297 297 297 294 294 292 291 292 294 295 295 295 295 297 297 297 297 297 298 297 297 298 297 293 296 294 294 293 294 294 290 290 299 299 298 303 304 302 304 303 304 304 296 298 299 298 295 293 292
297 297 297 297 297 297 297 295 295 294 293 291 292 293 293 294 295 295 297 298 297 297 297 297 297 297 297 298 297 296 295 296 295 292 292 292 295 295 297 301 301 302 300 301 299 299 297 295 295 294 295 294 293 291
297 297 297 297 296 296 296 294 294 294 293 292 292 292 293 294 296 294 296 296 296 297 298 298 296 295 295 295 296 298 298 298 297 297 292 291 295 296 296 298 298 299 298 300 299 297 295 295 293 292 292 291 291 290
296 296 296 295 295 296 294 294 293 293 292 292 292 291 291 295 295 295 295 296 297 298 296 298 298 298 297 296 295 297 298 297 297 297 295 289 294 296 297 299 295 296 297 298 297 296 294 293 293 291 290 290 289 288
296 295 296 295 295 293 293 294 294 293 294 293 291 290 290 296 295 295 295 296 296 296 295 298 298 298 298 297 297 297 296 296 297 295 291 292 295 295 298 294 294 296 296 297 295 294 294 293 292 292 290 289 288 287
295 295 296 295 296 294 293 294 294 292 294 293 292 293 293 294 295 294 294 295 295 295 295 292 297 298 297 298 298 298 297 297 296 296 294 295 297 297 294 292 295 296 294 295 293 292 292 291 291 290 289 288 288 287
295 296 296 295 294 293 293 293 292 293 294 292 292 292 292 293 293 293 294 294 295 295 294 290 295 297 297 298 298 298 297 298 297 296 295 295 296 298 292 294 295 294 294 294 294 292 292 292 291 290 289 288 286 285
295 296 295 295 294 293 293 292 293 294 293 292 292 292 291 292 294 294 294 294 294 294 294 288 292 297 298 298 298 298 298 298 297 296 295 295 297 299 296 294 294 293 293 293 293 293 292 291 290 289 288 287 286 285
296 295 294 293 292 293 292 292 293 293 293 292 291 290 289 293 294 294 294 294 294 294 294 292 291 290 298 297 298 298 298 292 295 290 294 295 292 298 295 294 294 294 293 293 293 293 292 292 290 288 288 287 286 285
295 294 294 292 292 291 291 292 293 293 293 291 290 289 290 290 293 294 294 293 293 293 293 292 294 291 298 296 294 295 296 293 293 294 296 291 294 293 294 294 294 293 293 293 291 290 290 290 289 288 287 286 285 284
294 295 294 293 292 291 290 292 293 293 292 291 290 292 292 292 293 293 292 292 292 294 293 293 294 293 298 291 291 296 296 295 298 295 295 296 295 292 292 293 292 292 292 293 293 292 291 290 289 288 286 286 285 284
292 293 294 294 291 291 291 292 293 293 292 290 293 292 292 292 293 293 293 292 293 294 294 293 296 295 297 298 295 296 299 298 300 298 299 294 288 290 290 291 290 290 290 290 290 291 290 288 287 286 285 284 283 283
290 292 294 293 291 292 292 293 293 292 290 293 293 293 293 293 293 291 291 293 289 294 296 296 291 296 297 298 296 293 300 298 297 298 293 288 289 288 289 289 288 288 288 288 288 287 287 286 285 284 284 283 283 283
289 291 293 291 292 292 293 293 292 290 291 292 293 293 291 290 289 287 288 287 295 298 297 298 297 298 298 293 291 296 290 296 295 295 294 286 288 288 288 287 287 286 285 285 285 285 285 284 284 283 283 283 282 282
290 291 293 291 292 292 292 292 291 290 290 293 294 290 290 292 294 295 296 296 297 297 297 296 295 296 289 289 296 295 298 298 299 296 286 288 288 288 288 287 286 285 284 284 284 284 283 283 283 283 282 280 279 278
291 293 293 291 291 292 292 292 292 291 291 292 293 294 294 294 294 295 295 295 296 297 296 297 292 290 294 295 297 297 299 297 293 284 289 289 289 288 287 286 285 284 283 283 283 283 283 282 281 280 279 279 279 278
292 292 292 291 291 291 292 292 291 290 291 293 293 293 294 294 295 294 294 295 295 296 295 296 297 294 295 297 296 295 295 283 289 289 290 290 289 288 286 285 284 283 283 283 282 282 280 280 280 280 279 279 279 279
292 292 291 291 291 292 291 291 291 291 291 293 292 293 293 293 294 294 294 295 295 296 296 297 296 297 292 294 294 286 289 287 289 290 290 289 287 286 285 284 283 283 282 282 281 280 281 281 281 280 280 279 279 279
292 292 291 291 291 291 291 291 292 292 292 292 292 292 292 292 292 293 294 295 294 295 296 295 295 293 291 294 291 292 291 290 288 287 287 286 286 285 284 283 283 282 282 281 281 281 281 281 281 280 280 280 279 279
291 291 290 290 291 291 291 291 292 293 292 292 291 291 291 291 291 291 292 293 293 294 295 290 289 294 295 296 296 295 294 291 289 286 285 284 283 283 283 283 282 282 281 280 281 281 280 280 280 280 279 279 279 278
291 291 291 291 291 292 293 293 293 294 292 291 291 291 291 291 291 291 291 292 292 294 293 296 296 296 295 294 293 293 292 291 290 289 287 283 282 282 282 282 282 281 281 282 282 281 281 281 280 280 280 279 278 277
292 291 291 290 291 292 292 293 293 292 292 292 291 292 291 291 291 292 293 292 293 294 295 295 296 295 294 293 291 291 290 289 288 287 286 285 283 282 282 282 282 282 282 282 281 281 281 280 280 279 279 278 277 276
291 290 290 290 290 291 292 293 293 292 289 291 292 292 292 293 293 292 292 292 293 293 294 294 294 293 292 290 290 289 289 288 287 285 285 284 284 283 282 282 282 282 282 282 282 281 281 280 280 279 278 276 275 275
290 290 291 291 291 290 292 293 293 293 292 290 289 290 291 292 291 291 287 290 292 292 293 292 292 291 290 289 289 288 287 286 286 285 284 283 283 282 282 282 282 282 282 282 282 281 280 279 279 278 276 275 275 274
291 292 292 292 291 290 291 292 292 289 290 290 292 291 289 291 283 285 285 289 289 289 289 290 290 290 290 288 288 287 287 287 286 285 283 283 283 282 282 282 282 282 283 282 281 280 279 279 277 277 276 275 274 273
289 292 291 289 289 292 291 291 291 291 291 291 290 291 290 284 287 288 286 289 288 288 288 288 288 288 288 287 287 286 286 286 285 284 283 283 283 283 283 282 282 282 281 281 280 278 277 277 277 276 275 274 273 272
290 290 291 291 292 293 289 292 292 289 291 286 287 287 287 290 286 284 288 288 288 288 288 287 287 287 287 286 286 286 285 285 284 284 284 283 283 283 283 282 282 281 279 279 279 278 276 275 274 274 273 272 271 271
292 291 287 291 291 292 290 290 292 288 290 292 289 286 284 285 285 288 287 287 288 287 287 287 286 286 286 285 285 285 285 284 284 284 284 284 283 282 282 281 280 280 280 279 277 275 274 274 273 272 272 271 271 270
290 291 291 286 291 292 292 285 288 292 291 292 287 284 284 288 288 288 287 286 287 286 286 286 285 285 285 285 285 285 285 285 284 284 283 283 282 282 281 281 280 280 279 276 275 274 273 273 272 272 271 271 270 269
289 290 289 286 284 285 289 290 289 289 289 290 290 288 288 288 287 286 286 285 285 285 285 285 286 286 286 286 285 285 284 284 284 284 283 283 282 281 280 279 279 276 275 274 273 273 273 273 272 271 270 270 269 268
288 289 287 286 283 285 285 286 286 286 286 286 286 286 286 286 285 286 285 284 284 284 284 284 285 285 285 285 285 284 284 283 283 282 282 281 280 278 277 276 275 274 273 273 273 273 272 272 271 270 269 269 268 268
287 287 285 280 280 281 282 284 284 284 283 284 284 284 284 284 284 284 283 282 282 283 283 283 284 284 284 284 284 283 283 283 282 281 281 279 278 277 275 275 274 273 273 273 273 272 271 270 270 269 269 269 268 268
284 284 282 281 279 280 281 282 281 282 282 281 282 282 282 283 283 282 281 281 281 281 282 282 282 283 283 283 282 282 281 281 280 279 278 278 276 275 274 274 273 273 273 272 272 271 270 270 270 269 269 268 267 267

GFSWCAN_850_thetae_096.txt.gz
Theta_e
295 297 298 296 295 296 296 296 296 293 291 291 294 296 296 295 295 297 298 297 298 297 297 297 297 297 297 297 294 295 293 293 292 293 294 289 290 296 297 291 302 301 301 302 301 301 300 295 297 297 296 294 293 291
295 299 297 296 295 297 296 297 294 293 291 292 293 294 295 295 294 297 297 297 298 297 297 297 297 297 297 297 296 296 294 295 294 291 292 292 295 290 293 299 298 297 296 299 299 297 296 294 294 292 292 292 291 289
296 298 297 297 297 297 297 296 295 293 292 292 292 293 293 294 294 296 297 297 297 296 296 296 295 296 296 296 296 297 298 297 296 296 291 291 294 295 294 297 297 297 297 298 298 296 295 294 292 291 290 289 289 289
297 297 297 297 297 296 296 295 294 294 291 292 292 292 293 295 294 296 296 296 297 297 296 297 297 297 295 294 296 297 297 297 297 296 294 289 294 295 295 298 295 296 296 297 297 295 294 293 292 291 289 289 289 288
296 297 296 297 296 296 295 294 294 293 292 292 291 291 295 295 295 295 296 297 297 296 296 297 297 297 297 296 296 296 296 296 296 295 290 292 294 294 298 293 294 295 295 295 293 294 293 292 292 290 289 288 287 287
296 296 296 295 295 294 295 294 293 293 292 291 291 291 295 295 295 295 295 295 297 297 298 293 296 297 297 297 297 297 297 297 296 295 293 294 295 295 292 293 295 294 294 294 292 293 292 291 290 290 289 288 287 287
296 296 295 295 294 293 293 294 293 294 293 292 293 293 294 294 294 294 294 294 295 295 296 292 295 297 297 297 297 297 297 297 297 295 294 294 295 297 292 295 294 295 294 293 292 292 291 291 289 289 288 286 286 286
295 296 295 295 293 293 294 293 292 294 292 292 292 292 292 293 294 294 294 294 294 294 294 289 291 296 297 297 297 297 297 297 297 295 294 295 296 297 298 293 294 293 293 293 293 293 292 291 290 288 287 287 286 285
296 295 295 294 293 293 293 292 294 293 292 292 291 291 292 293 294 294 294 294 294 294 293 291 292 290 297 296 297 297 297 293 295 290 293 294 289 296 293 294 293 293 293 293 292 291 291 290 289 288 287 286 285 284
296 295 295 293 293 293 292 293 294 292 292 291 290 289 289 293 293 294 294 293 293 293 293 290 293 292 296 294 293 295 295 292 292 293 295 294 290 293 294 294 294 294 294 293 292 290 291 289 289 287 287 286 285 284
296 295 294 292 293 292 292 293 293 293 291 290 291 291 291 292 293 292 292 291 292 291 292 293 294 293 297 290 290 295 292 293 296 293 294 295 294 292 292 293 293 293 293 292 292 292 291 290 289 288 286 285 284 284
294 293 292 292 291 292 292 293 293 292 291 290 292 292 292 292 292 293 292 292 292 294 293 292 294 295 297 297 293 294 298 298 299 294 297 297 288 290 291 291 290 291 291 292 291 292 290 289 288 287 286 285 284 283
294 293 292 291 290 291 292 293 293 292 291 292 292 292 293 293 292 292 291 293 288 293 294 295 290 295 297 297 294 293 295 299 296 298 295 289 288 288 289 289 289 289 289 289 289 289 288 287 286 285 285 284 284 283
294 294 293 291 290 291 292 293 292 292 293 293 292 292 289 291 289 286 287 286 293 295 295 296 295 297 295 292 290 295 288 295 295 296 292 284 287 288 289 288 288 288 287 287 286 286 286 285 285 284 284 283 282 282
293 294 292 291 292 292 292 292 290 291 291 293 293 288 291 291 292 294 295 295 296 296 297 296 294 295 288 287 293 293 295 295 296 290 285 288 288 289 289 288 287 286 285 285 285 285 284 284 283 283 283 281 279 278
292 292 291 292 293 293 293 291 290 290 291 293 293 292 293 294 294 295 295 295 295 296 296 296 290 287 289 292 296 295 297 293 292 285 289 288 289 289 288 287 286 285 284 284 284 283 283 282 282 281 279 279 279 278
291 292 292 292 293 292 292 291 291 290 291 293 293 293 293 294 293 294 294 295 295 296 293 295 295 292 293 296 297 296 295 288 289 289 290 290 290 288 287 286 286 284 284 284 283 283 283 281 280 279 279 279 279 279
292 292 292 292 292 292 292 291 290 291 291 292 291 293 293 293 293 294 293 294 294 296 296 296 296 295 292 293 288 286 289 288 288 289 290 289 289 288 287 286 285 284 284 283 283 282 280 281 280 280 279 279 279 279
292 292 292 292 291 291 291 291 291 291 290 292 292 292 292 291 292 293 294 295 295 295 295 295 295 295 288 290 291 292 291 291 289 289 289 288 288 287 286 284 284 283 283 282 281 281 281 281 281 280 280 280 279 279
292 292 291 292 291 291 290 290 291 292 292 292 291 291 291 290 291 291 292 293 293 293 293 292 290 294 295 295 295 295 294 292 290 288 287 286 285 285 284 284 283 283 282 281 281 281 281 281 280 280 280 279 279 278
291 291 291 290 291 292 292 291 291 293 292 291 291 290 291 290 290 290 291 291 293 293 290 295 296 296 295 295 294 293 293 292 291 290 289 286 285 284 283 283 282 282 282 281 281 281 281 280 280 280 279 279 278 278
290 290 290 290 291 291 292 292 293 292 292 291 291 291 291 290 291 291 292 292 292 292 293 295 295 296 295 294 293 292 291 290 288 288 287 286 285 283 282 282 282 282 281 282 282 281 281 280 280 280 279 278 278 276
290 291 291 291 290 291 291 292 292 292 286 290 291 290 289 292 292 291 290 292 293 293 294 294 294 294 293 293 291 290 289 289 288 287 286 285 285 284 283 282 282 282 281 281 281 281 281 280 280 279 278 277 276 275
290 290 290 290 290 289 291 292 292 292 291 290 289 288 288 291 291 290 288 290 291 292 292 293 293 293 292 291 290 289 288 288 286 285 284 284 283 282 282 282 282 282 282 281 281 281 281 280 279 279 277 276 275 275
290 291 291 289 291 290 287 290 292 290 288 285 288 285 289 290 282 280 283 288 290 288 289 291 291 291 291 290 289 288 287 286 286 285 284 283 283 282 281 282 282 282 282 282 281 281 280 279 279 278 277 276 275 273
285 291 290 290 288 288 289 291 290 287 286 288 287 290 290 281 285 287 285 289 289 288 288 288 289 289 289 288 288 287 286 286 286 285 283 283 283 283 283 283 282 282 282 282 281 280 279 278 277 276 276 274 273 272
289 289 290 291 291 292 289 291 292 288 287 284 285 284 283 285 285 285 289 289 289 288 288 288 287 288 288 287 286 286 286 286 285 284 283 283 283 283 283 283 282 282 281 280 279 278 277 276 275 274 273 272 272 271
290 290 288 290 291 292 290 290 291 287 289 291 288 286 285 286 288 289 289 288 288 288 287 287 287 286 286 286 286 286 285 285 284 283 283 283 283 283 283 282 281 280 280 279 279 277 275 274 273 273 272 272 272 271
290 291 290 287 290 291 291 287 287 292 291 291 286 284 286 289 290 290 289 288 288 287 286 286 286 286 285 285 285 285 285 285 284 283 284 283 283 283 282 282 281 280 280 279 277 275 274 273 273 273 272 271 270 270
290 289 289 287 283 284 290 290 289 290 290 290 290 289 289 289 290 289 289 288 287 287 286 285 286 286 285 285 285 284 285 284 284 284 284 283 283 282 282 281 281 280 278 275 274 274 274 273 273 272 271 270 270 269
288 289 288 287 283 285 287 288 288 288 288 288 288 287 288 288 288 289 288 287 286 286 286 285 285 285 285 285 285 285 284 284 284 283 283 282 282 282 281 279 278 276 275 274 274 273 273 272 271 270 270 270 269 269
287 287 285 282 281 282 284 285 285 285 284 285 285 285 285 286 286 287 287 287 285 285 285 284 284 285 285 285 285 285 284 284 283 283 282 282 280 279 277 276 275 274 273 273 273 272 272 271 271 271 270 269 269 268
284 284 283 282 280 280 281 283 282 282 281 281 282 282 283 284 285 284 283 284 283 283 283 283 283 283 284 284 283 283 283 282 282 281 281 279 278 276 275 274 273 273 273 273 272 272 271 271 271 270 269 269 268 268

GFSWCAN_850_thetae_099.txt.gz
Theta_e
295 295 296 298 295 294 294 295 294 292 292 292 296 297 296 296 297 298 298 297 298 297 296 297 297 297 297 296 298 295 296 296 295 297 297 295 298 300 299 295 302 302 302 301 300 301 301 295 296 297 295 293 291 290
295 295 296 295 295 296 295 295 294 291 291 294 296 296 295 295 295 297 297 297 297 297 296 297 297 297 297 297 296 295 294 295 294 295 296 296 299 298 297 302 298 301 299 300 299 298 296 293 293 291 291 290 290 289
296 296 297 295 296 296 296 296 294 291 291 293 294 295 295 294 294 297 297 297 297 296 296 296 295 295 296 296 296 297 297 296 295 295 294 296 299 298 300 299 298 298 297 298 298 296 295 293 291 290 289 288 288 288
296 298 296 295 296 296 297 295 294 291 292 292 293 293 294 295 294 296 297 297 297 296 297 296 296 295 295 296 296 296 296 296 296 295 295 296 298 296 299 298 298 296 296 298 296 295 294 292 291 289 288 288 287 286
295 297 296 296 296 296 296 295 294 292 292 292 292 294 295 295 296 296 297 297 296 296 297 297 297 296 296 296 295 295 296 296 295 295 296 297 296 298 298 296 296 295 295 297 296 294 293 292 290 289 288 287 286 286
296 297 296 296 296 296 296 294 293 292 292 291 291 295 295 295 295 295 295 297 297 297 297 297 296 297 297 297 297 297 297 297 296 294 294 294 295 296 297 297 295 294 294 294 293 293 292 290 289 289 288 287 286 285
297 297 297 296 296 295 294 293 292 292 291 291 291 295 295 294 294 294 294 295 296 296 297 295 296 297 297 297 297 297 297 297 296 295 294 294 295 297 296 298 295 295 293 292 292 291 290 290 288 287 287 285 285 285
296 296 295 295 295 295 293 294 294 292 292 292 292 294 294 294 293 294 294 295 294 295 296 294 295 296 297 296 297 297 297 296 296 294 294 296 296 297 298 294 295 294 293 293 292 292 292 290 289 288 287 286 285 284
295 295 294 293 293 294 294 294 294 292 292 292 292 293 293 293 294 294 294 294 294 294 293 293 296 296 296 296 297 297 297 296 295 296 295 295 295 297 296 295 294 293 293 293 292 292 290 290 288 288 287 286 285 284
295 295 293 293 293 294 293 294 293 292 291 291 290 289 292 293 293 294 294 294 294 293 294 293 293 298 295 294 294 295 293 296 297 295 294 295 297 294 294 294 294 293 293 292 290 290 289 288 288 287 286 286 285 284
295 295 294 293 293 292 294 294 292 291 290 290 290 291 293 293 293 292 292 292 292 293 292 292 294 296 296 296 296 294 296 295 296 296 296 295 296 294 293 294 293 293 293 292 292 292 291 291 289 288 286 285 284 283
295 294 293 293 292 293 293 293 292 291 291 291 291 292 292 293 292 292 292 292 293 294 292 293 294 295 296 296 295 294 298 297 299 294 296 298 292 291 292 292 292 292 292 292 291 291 290 290 289 288 286 285 284 283
295 294 293 292 292 293 293 293 292 291 290 291 292 292 292 292 289 288 291 293 292 292 293 294 294 295 296 296 293 296 295 300 296 299 299 294 290 288 289 290 290 290 290 291 290 290 289 289 287 286 285 284 283 283
292 292 292 292 292 293 293 292 291 292 293 292 292 291 287 291 288 289 290 290 293 292 294 295 293 294 294 294 293 295 293 295 297 298 298 290 289 288 289 289 289 288 288 288 288 288 287 286 286 285 283 283 283 282
292 291 291 290 292 292 292 292 292 292 291 292 292 290 291 291 291 293 294 295 295 295 296 295 294 293 292 292 294 295 295 296 297 297 293 288 288 288 288 288 287 287 286 287 286 286 285 285 284 283 283 282 279 278
292 291 290 291 292 292 292 290 291 291 291 293 292 291 292 293 294 295 295 295 295 296 296 295 292 291 293 293 295 295 297 296 296 291 288 288 288 288 288 287 286 285 285 285 285 284 284 283 283 282 280 279 279 278
291 292 292 292 292 292 291 290 291 290 291 292 291 292 293 293 293 294 295 295 295 296 296 295 291 293 293 296 296 296 296 294 288 288 288 289 289 288 287 286 285 285 284 284 283 283 283 281 280 280 279 279 279 279
292 292 293 293 292 292 291 291 290 291 290 291 292 292 292 293 293 293 294 294 294 296 296 296 295 296 294 295 295 292 289 288 287 289 289 289 288 288 287 286 285 284 283 283 283 282 280 280 280 279 279 279 279 279
292 292 293 292 292 291 291 291 291 290 290 291 291 292 291 291 291 293 293 294 295 295 295 294 295 295 295 291 291 292 291 291 290 289 289 288 288 287 286 285 284 283 283 283 282 281 281 281 281 280 280 279 279 278
292 292 292 291 291 290 290 290 291 292 290 291 291 291 290 290 290 291 292 293 293 293 293 293 294 295 295 296 295 295 294 293 291 289 288 288 287 286 286 285 284 283 282 281 280 281 281 281 281 280 280 279 279 278
292 292 291 291 291 292 292 290 291 292 291 291 290 290 290 290 290 290 291 292 293 292 291 293 295 296 295 295 294 294 293 293 292 291 290 288 287 285 284 283 283 283 282 281 282 282 281 280 280 280 279 279 278 277
291 291 290 291 291 292 292 291 292 291 291 291 290 291 290 290 290 291 291 291 291 292 292 293 294 295 295 294 294 292 292 291 290 290 289 288 287 285 283 283 282 282 282 282 282 281 280 280 280 280 279 278 278 276
290 290 290 291 290 291 291 291 292 291 287 289 290 289 289 289 291 291 290 290 292 292 293 292 293 293 294 293 292 291 291 290 289 288 287 287 286 285 284 283 283 283 281 281 282 281 280 280 280 279 279 278 276 275
290 291 290 290 290 288 291 292 292 291 290 289 289 288 288 289 290 289 290 289 290 291 292 292 293 293 292 291 291 290 289 288 287 286 285 285 285 284 283 283 282 282 282 282 281 281 281 280 280 279 278 277 276 275
290 290 291 284 289 289 286 288 291 291 285 288 287 286 289 289 285 285 286 287 289 287 288 289 290 291 292 290 289 289 288 287 287 286 285 284 284 283 282 282 281 281 281 281 281 281 281 280 279 278 277 276 275 274
282 290 287 288 285 285 285 284 283 284 284 285 285 288 289 286 288 288 286 289 289 287 287 288 289 289 290 289 289 288 287 286 286 285 284 283 283 284 283 282 282 281 281 282 281 281 280 279 278 277 276 275 274 272
285 283 290 290 290 291 288 290 290 286 286 286 286 285 285 284 285 286 289 289 289 288 288 288 288 288 288 288 287 287 286 286 285 285 284 283 282 282 283 283 282 282 282 282 281 280 278 277 277 276 275 273 272 272
289 289 287 290 290 291 288 287 287 288 288 290 287 287 286 286 289 289 290 289 289 288 288 287 287 287 287 287 286 286 286 285 284 283 283 282 282 282 282 282 282 282 280 279 279 278 277 275 274 274 273 273 272 271
288 289 290 286 289 290 290 289 288 291 291 291 287 288 288 290 290 290 290 289 289 289 288 287 287 286 286 286 285 285 285 285 284 283 282 282 282 282 282 282 281 280 280 279 279 276 275 274 273 273 273 272 271 270
287 289 289 286 285 287 290 291 290 290 290 290 290 290 290 291 291 291 290 290 289 288 287 286 286 286 286 285 285 284 284 284 284 284 284 283 283 283 282 282 281 280 280 279 276 275 274 274 273 273 272 271 271 270
288 288 288 287 284 287 288 288 288 288 288 289 289 288 289 290 290 290 290 290 289 288 287 287 286 286 285 285 285 285 284 284 284 284 283 283 283 283 282 281 280 279 277 275 274 274 274 273 272 272 271 271 270 269
286 287 286 281 282 283 284 285 286 286 285 286 286 287 287 287 288 289 289 289 288 287 286 286 285 285 285 285 285 285 285 284 284 283 283 283 282 282 281 280 278 276 274 274 274 273 273 272 272 271 270 270 269 268
284 284 283 283 281 281 282 283 283 282 281 281 282 282 283 285 286 285 285 286 285 284 284 284 284 284 284 284 284 284 283 283 283 282 282 282 281 280 279 276 275 274 273 273 273 272 272 272 271 270 270 269 269 268

GFSWCAN_850_thetae_105.txt.gz
Theta_e
294 295 295 295 295 296 298 298 299 298 297 297 296 295 293 293 293 296 297 298 301 302 300 301 301 302 302 303 304 302 301 301 301 303 304 304 306 304 306 306 305 304 305 305 305 306 308 299 301 302 297 295 294 292
295 295 295 295 297 298 298 299 297 297 295 293 294 293 293 294 297 297 299 298 298 301 300 299 299 299 300 300 302 300 302 301 303 304 303 304 305 305 306 306 304 306 305 308 304 304 297 296 295 294 294 294 292 291
294 295 296 297 298 298 298 297 296 294 292 294 295 296 297 297 297 297 300 298 299 300 300 300 299 298 297 297 300 300 300 300 300 303 305 305 306 305 306 306 304 303 302 303 303 299 296 294 293 293 293 292 291 290
293 295 295 297 297 297 297 296 294 292 294 295 295 296 296 296 297 296 299 299 300 300 301 298 298 298 298 298 299 301 300 300 300 302 304 306 305 305 306 305 306 304 303 302 299 297 296 294 293 292 291 289 288 288
294 295 297 296 296 296 295 294 293 293 296 296 295 295 295 294 295 298 298 298 300 301 301 298 298 298 298 299 299 299 299 299 299 301 304 304 304 304 304 304 304 302 303 303 305 299 299 295 292 291 290 289 289 288
294 295 296 295 295 295 293 291 292 294 295 295 295 294 294 294 296 297 297 296 298 299 298 301 298 299 299 299 300 300 300 300 300 301 301 301 302 303 305 304 299 299 299 299 298 297 295 293 292 291 290 289 289 288
295 296 296 296 296 295 292 292 293 293 294 294 295 295 296 296 297 298 299 298 298 300 300 299 299 299 299 300 300 300 300 300 301 300 300 300 301 302 304 304 298 298 296 296 295 294 293 292 291 291 290 289 288 287
296 296 296 296 295 294 292 292 292 293 295 295 295 295 295 295 295 297 296 296 297 300 301 301 300 300 299 300 301 300 301 301 300 301 300 301 300 301 303 300 297 296 295 295 295 296 294 292 291 290 289 288 288 287
296 296 297 296 295 293 292 292 292 292 295 294 294 294 296 297 298 296 295 296 295 300 301 301 301 301 299 300 300 300 301 302 300 302 301 300 302 302 302 298 297 296 295 295 295 294 293 292 290 289 289 289 288 287
296 296 296 295 295 294 292 292 291 293 294 294 294 296 297 296 294 294 295 299 299 298 300 302 301 300 300 301 301 301 300 301 301 301 300 301 301 300 299 298 297 295 296 295 294 293 292 291 291 290 290 289 288 287
296 295 295 294 294 293 292 292 292 293 293 294 295 296 295 294 297 297 298 299 298 299 300 300 300 301 300 302 302 300 301 301 301 302 301 301 300 299 297 297 297 296 295 294 295 294 293 292 291 290 289 288 287 286
295 295 294 294 294 293 292 293 293 293 293 294 295 295 294 296 297 298 298 298 299 299 299 301 301 300 300 300 301 299 300 301 302 301 300 300 300 297 296 296 295 294 294 294 294 293 293 292 290 289 287 286 284 284
294 294 294 294 294 292 292 291 292 292 293 294 296 295 297 296 298 299 298 299 300 299 299 300 302 300 300 300 300 300 300 302 301 301 302 301 296 295 295 295 293 293 293 293 293 292 291 289 288 287 285 285 285 285
294 293 293 294 292 292 291 291 291 293 295 296 296 295 298 298 298 298 300 301 297 298 300 300 299 301 300 301 300 299 300 300 301 302 303 300 295 293 294 294 292 291 291 291 290 289 288 288 287 286 286 285 285 284
293 293 293 292 292 291 291 291 292 294 296 295 296 297 297 295 296 296 296 296 296 299 299 300 300 300 300 298 298 298 299 300 302 304 301 297 293 291 291 290 289 289 289 288 289 289 289 288 287 286 285 284 283 281
293 293 293 292 291 291 292 291 292 294 295 295 295 297 297 298 297 297 297 296 297 299 300 300 300 301 300 300 299 299 301 302 303 298 294 293 291 290 289 288 289 289 288 288 288 288 287 286 285 285 284 282 279 280
293 293 293 292 291 291 291 293 294 294 294 295 296 294 297 297 297 296 298 298 299 299 300 299 299 299 299 300 300 300 302 300 295 293 292 291 290 288 288 289 288 288 287 287 287 286 285 284 284 283 280 279 279 279
293 293 292 292 291 291 291 294 294 294 294 295 296 294 295 295 294 294 294 296 298 298 298 299 299 298 299 300 302 301 296 292 291 291 290 289 288 288 288 288 287 286 286 286 285 284 284 283 280 280 279 279 279 278
293 292 292 291 291 293 293 294 294 293 294 294 294 294 294 293 293 294 294 295 296 297 297 297 297 299 300 301 300 295 294 294 292 289 288 288 288 288 287 286 285 284 284 283 283 282 281 281 282 281 280 280 281 280
292 292 292 291 292 293 293 294 293 293 294 293 293 293 293 293 294 293 295 295 296 297 297 298 299 299 299 297 297 297 295 294 291 290 287 286 287 287 287 286 284 282 282 282 282 281 281 282 282 281 281 282 282 281
292 291 291 292 294 293 293 293 293 293 292 293 292 292 293 292 293 294 295 294 295 296 297 297 297 296 295 295 294 294 293 292 294 294 291 287 285 286 284 285 283 283 284 283 282 282 282 283 282 282 281 281 281 279
292 291 292 291 293 293 293 293 293 292 292 292 292 293 293 293 293 294 293 294 295 295 296 296 296 296 295 294 294 293 293 292 292 291 290 288 286 286 285 285 284 284 284 284 283 283 284 283 282 281 281 279 279 278
292 292 292 292 292 293 292 293 293 293 294 293 292 293 294 293 293 292 293 293 294 293 293 293 292 293 294 294 293 292 292 290 291 290 288 288 288 286 286 284 285 284 284 284 284 283 283 282 281 281 279 278 277 276
291 291 291 292 293 292 292 293 293 293 292 293 294 294 294 293 291 292 294 295 294 292 291 291 291 291 291 292 292 291 291 290 290 288 288 288 287 285 285 285 284 284 284 284 283 283 282 281 280 279 279 278 278 277
292 291 292 292 292 293 294 293 293 294 294 293 293 294 294 292 294 294 295 296 293 292 290 289 290 290 292 292 291 289 290 289 289 289 287 287 287 285 284 284 284 284 284 283 283 282 281 280 280 279 278 278 277 276
292 291 293 293 293 294 294 294 294 293 294 294 294 293 293 294 294 296 296 294 293 291 289 289 290 289 290 290 290 289 288 288 287 287 286 286 286 285 285 284 283 283 282 283 282 281 280 280 279 278 278 277 276 275
292 293 292 291 293 293 293 293 293 294 294 295 295 293 293 295 296 296 294 291 291 289 288 288 288 289 290 288 288 288 288 287 286 286 284 284 284 284 284 284 283 283 282 282 282 281 280 279 278 277 276 276 275 273
292 291 293 292 292 293 294 294 294 294 295 294 294 294 295 296 297 295 293 292 290 289 289 288 288 288 288 287 288 288 288 287 286 285 284 283 283 283 283 283 284 283 282 282 281 281 281 280 278 277 276 275 274 273
291 291 292 292 293 293 294 295 295 294 294 294 295 296 296 293 292 292 292 291 291 290 289 288 288 288 287 287 287 287 286 286 285 283 283 282 282 282 282 282 282 282 282 282 282 281 280 278 277 276 275 274 273 272
291 291 292 292 293 294 294 293 293 291 290 291 292 292 291 291 292 291 291 291 290 290 289 288 288 287 287 287 287 286 286 285 283 284 285 284 283 282 282 282 282 282 282 282 281 279 278 277 276 274 274 273 272 272
290 290 291 292 293 291 288 289 289 290 289 289 289 290 293 291 291 291 291 291 290 289 288 288 288 287 286 286 286 285 285 285 284 284 284 283 283 283 282 282 282 281 280 280 279 278 276 274 274 274 273 272 272 271
289 290 291 292 292 286 287 287 289 289 289 289 291 287 288 289 291 289 290 290 289 288 287 286 286 286 286 286 285 284 285 285 284 284 283 284 283 283 282 282 282 281 280 280 277 275 274 274 274 273 272 272 271 270
289 289 289 289 290 289 287 288 289 290 288 289 289 287 288 288 291 288 288 288 287 285 283 283 283 284 285 285 285 285 284 284 284 284 283 283 283 283 282 282 281 280 280 276 274 274 274 273 273 272 272 271 270 270

GFSWCAN_850_thetae_108.txt.gz
Theta_e
292 295 295 295 295 295 296 297 299 300 298 298 299 299 298 296 297 298 298 299 300 300 302 302 304 303 305 304 305 303 303 303 303 304 304 306 307 305 307 307 304 304 304 305 306 307 307 300 302 303 298 296 293 292
293 295 295 295 295 296 297 299 299 299 298 299 298 297 297 296 297 297 298 298 299 300 301 300 300 300 301 303 304 302 303 303 303 304 304 304 306 307 307 307 306 308 305 307 303 303 297 296 296 295 296 295 293 291
293 294 295 295 297 298 298 298 298 297 297 297 295 296 295 296 297 298 299 299 300 300 300 301 300 299 299 300 302 302 302 302 303 305 309 307 306 306 307 307 306 304 304 303 302 298 296 295 294 294 293 292 291 290
293 294 295 296 298 298 298 297 296 294 294 294 294 293 294 296 298 298 299 299 301 301 301 299 299 299 299 297 301 303 302 301 301 304 306 307 307 306 307 306 306 304 304 302 300 298 296 295 293 292 291 291 290 289
293 294 295 297 298 298 297 294 293 293 294 296 296 296 296 297 297 297 299 300 300 301 301 299 299 299 300 300 300 300 301 301 302 303 306 306 305 305 306 306 305 304 304 304 306 299 299 295 293 292 291 290 290 289
293 294 297 297 296 296 295 292 292 295 295 295 296 296 296 297 296 298 298 299 300 300 299 301 299 300 300 300 301 301 301 301 301 302 303 303 305 304 306 306 302 301 301 301 300 298 296 293 292 292 291 291 290 289
294 296 296 296 295 295 294 292 295 295 296 295 295 295 294 295 298 298 300 299 300 301 299 301 300 300 300 301 301 301 301 302 302 301 301 302 302 303 305 305 301 299 298 298 296 295 293 293 292 291 291 290 289 289
295 296 296 295 294 291 291 293 294 295 295 295 295 295 296 298 298 297 298 298 299 300 302 302 301 300 300 301 301 302 301 302 302 302 301 302 301 302 304 301 299 297 296 296 295 296 294 293 292 291 290 289 289 288
296 296 296 295 293 292 293 293 294 295 295 295 295 295 296 298 299 296 297 297 298 301 302 301 301 301 301 302 301 301 302 304 301 303 302 301 304 303 303 300 298 296 296 295 296 295 294 293 292 291 290 290 289 288
297 296 296 294 292 292 292 293 294 294 294 295 296 297 298 298 296 295 296 299 300 299 301 303 302 302 301 302 302 302 301 303 302 302 301 302 303 301 301 299 297 296 296 295 295 294 293 292 291 291 290 290 289 288
296 296 295 294 292 292 292 294 295 294 294 296 297 296 296 295 298 299 299 300 300 300 301 302 301 302 301 303 303 302 302 302 301 303 301 302 301 301 299 298 297 296 295 295 295 294 293 292 291 291 290 289 288 287
296 295 295 294 292 292 292 292 294 294 296 296 297 296 297 298 298 299 299 299 300 300 300 303 301 301 301 301 302 300 301 301 302 302 302 301 300 298 298 297 297 296 295 295 295 294 293 292 291 290 289 287 287 286
295 294 294 293 292 292 293 293 294 293 295 297 297 297 298 297 299 299 298 299 301 300 302 302 303 301 301 301 301 301 301 302 301 301 302 301 298 297 296 296 295 295 294 295 294 293 292 291 290 288 287 287 286 285
294 294 294 293 293 293 292 292 293 296 297 297 297 297 299 299 299 301 302 301 300 300 301 302 301 302 301 301 301 301 301 301 301 302 303 299 296 296 295 294 294 293 294 294 293 292 291 290 289 288 287 286 285 285
294 294 293 292 292 291 291 292 294 297 297 297 297 298 298 297 297 297 297 298 299 301 300 301 301 300 300 298 300 299 299 300 301 304 300 297 295 294 294 293 293 293 292 292 291 291 290 289 288 287 286 285 285 283
293 292 292 291 291 291 292 293 295 296 296 296 296 297 297 298 298 297 297 298 299 301 300 300 301 301 300 300 299 300 302 303 301 297 295 294 293 292 291 291 290 290 290 290 290 289 289 288 287 286 285 284 283 281
293 292 292 291 292 292 294 295 295 295 295 297 297 296 298 297 297 297 297 298 299 301 303 300 300 300 300 300 301 301 302 299 295 293 292 292 291 290 290 289 289 288 288 288 288 288 287 286 285 285 284 281 280 280
293 292 291 291 292 293 295 295 295 295 296 296 297 295 296 295 295 295 295 297 300 299 299 300 300 299 300 300 303 300 295 293 292 291 291 290 290 289 289 289 288 287 287 287 287 286 286 285 283 282 280 280 280 279
292 292 291 292 294 294 295 295 295 294 295 295 295 295 294 294 294 294 295 297 298 298 298 298 298 300 302 301 299 296 294 293 291 290 289 289 288 287 287 287 286 285 285 284 283 283 284 282 282 281 280 280 280 279
291 291 291 292 294 294 294 295 294 295 296 294 294 294 294 295 294 294 296 296 297 297 298 298 300 299 298 297 297 296 294 293 290 289 287 287 287 286 286 285 284 283 283 283 283 282 282 283 282 281 281 282 282 281
291 291 292 295 294 294 295 295 294 293 293 294 293 294 293 293 294 295 296 295 296 298 299 299 297 296 296 295 295 294 294 294 293 293 289 287 286 286 285 286 285 284 284 283 282 282 283 283 282 282 282 283 283 281
291 292 294 292 294 294 293 294 293 293 293 293 293 294 294 295 295 295 294 294 295 296 296 296 296 296 295 294 294 295 293 294 294 293 291 289 287 286 286 286 285 284 284 283 283 283 283 283 283 282 282 282 281 280
293 293 293 293 293 293 293 295 294 294 294 293 293 294 294 294 294 293 294 294 295 294 294 294 294 294 294 294 293 292 292 292 292 291 290 289 288 287 286 286 285 285 285 284 284 284 284 284 283 282 282 280 279 278
291 291 291 293 293 293 293 293 294 293 293 295 295 295 294 294 292 293 295 297 294 293 292 291 292 293 293 292 292 291 291 292 291 289 289 289 288 287 286 285 285 285 285 284 284 284 284 283 282 281 280 279 278 277
293 291 293 293 293 294 294 294 294 295 295 294 295 295 294 293 295 295 295 297 294 292 291 290 290 291 292 293 292 291 290 291 290 289 289 288 287 286 286 285 285 285 285 285 284 284 283 282 281 280 280 279 278 278
293 292 294 293 294 294 294 294 294 294 295 295 294 294 293 294 295 296 297 295 293 291 290 290 290 290 291 291 291 290 289 289 290 289 288 288 287 286 285 285 284 284 285 284 284 283 282 281 281 280 279 279 278 277
293 293 293 293 293 293 294 294 294 294 294 295 295 294 294 295 297 297 294 292 292 290 289 289 289 290 291 290 290 289 288 288 288 288 286 286 286 286 285 285 284 284 283 283 283 282 281 281 280 279 279 278 277 276
293 293 293 293 293 293 294 295 294 294 295 295 295 294 295 296 298 295 293 292 290 290 289 288 288 289 289 289 287 288 288 287 287 286 285 285 284 285 285 284 284 283 283 283 283 282 281 280 279 279 278 276 275 274
292 292 293 292 293 293 294 295 295 295 295 295 296 296 296 295 293 293 292 292 292 290 289 288 288 288 288 288 287 287 287 286 286 283 283 282 282 283 283 284 284 283 282 282 282 282 281 280 279 278 277 276 275 274
292 291 292 292 293 294 294 292 293 292 291 292 293 293 293 292 291 291 291 291 290 290 289 289 288 288 288 287 287 286 286 284 284 285 285 284 282 283 283 283 283 282 281 281 281 281 280 280 279 277 276 275 274 273
292 291 292 292 293 293 291 290 290 290 290 290 291 291 294 293 291 291 290 290 290 289 288 288 288 287 287 286 286 286 285 285 284 284 285 285 284 283 282 282 282 282 282 282 281 281 279 278 277 275 274 274 273 272
290 291 292 292 293 289 289 289 290 290 291 290 291 290 290 290 291 290 290 289 288 287 287 287 287 286 286 286 285 285 285 285 285 284 284 284 284 283 282 282 282 282 281 280 279 279 277 276 274 274 274 273 272 272
291 291 291 291 291 290 289 289 290 291 290 290 291 290 289 290 291 288 288 287 286 284 285 285 285 285 285 284 284 284 284 285 284 284 284 284 283 283 282 282 282 281 281 280 279 276 275 274 274 273 273 272 272 271

GFSWCAN_850_thetae_111.txt.gz
Theta_e
291 291 294 295 295 295 295 296 296 297 296 296 297 297 297 300 300 299 298 299 300 300 300 302 303 303 305 304 303 302 300 301 301 302 305 305 307 305 306 303 303 303 303 303 303 303 304 298 300 301 295 294 293 292
290 291 294 294 295 295 295 295 295 295 296 297 297 297 298 299 298 298 297 298 299 300 300 300 300 301 302 304 303 302 302 301 302 302 302 304 306 303 305 306 305 302 300 302 301 300 296 296 295 296 295 293 292 291
289 293 294 294 295 295 296 296 297 298 298 297 296 299 299 298 297 297 298 299 299 300 300 300 299 299 299 303 303 302 303 302 303 304 303 304 305 303 303 302 303 304 304 298 299 297 295 294 294 294 293 292 290 290
289 293 294 294 295 296 298 299 298 298 298 298 299 299 298 297 297 298 298 299 300 300 300 299 299 300 297 301 302 302 302 301 302 304 303 303 303 305 303 303 302 302 302 300 299 297 295 294 293 292 291 290 289 288
292 294 294 295 298 298 297 297 298 298 297 297 297 297 296 296 297 298 299 299 300 300 299 300 299 300 300 299 300 300 299 300 301 301 301 302 303 302 303 302 302 303 299 298 300 296 296 294 292 291 290 289 289 288
293 294 295 296 297 296 294 294 294 294 294 294 294 293 295 297 298 298 299 300 300 300 299 299 300 300 301 301 301 301 301 301 302 302 301 304 304 303 300 301 301 301 301 301 298 297 295 293 291 290 290 289 289 288
294 295 296 297 295 293 292 294 295 296 296 296 296 296 297 297 298 298 299 300 300 301 299 298 298 300 301 301 301 301 301 302 302 300 300 301 303 303 298 300 299 298 298 297 297 295 293 292 291 291 290 290 289 288
294 296 296 295 293 292 295 295 296 296 296 296 295 295 295 296 298 298 299 299 301 301 301 299 298 298 300 301 300 302 301 301 301 301 300 300 300 301 299 297 298 297 296 296 296 296 293 292 291 291 290 289 288 288
296 296 295 293 293 294 295 295 295 295 295 294 295 296 296 298 298 297 299 299 300 301 300 300 298 297 300 301 301 301 302 299 300 300 300 300 297 299 299 297 296 296 296 295 295 294 293 292 291 290 289 289 288 288
296 295 292 291 292 294 294 295 295 295 295 296 296 297 298 299 296 297 296 297 299 299 301 299 301 298 301 302 301 301 301 299 299 299 301 296 296 301 300 298 297 296 295 295 294 293 293 291 290 290 289 289 288 287
296 295 292 292 293 294 294 294 295 295 295 296 296 297 297 296 298 298 298 299 300 299 301 301 300 299 301 298 298 301 298 298 299 298 297 297 297 297 298 297 296 296 295 295 294 293 292 291 290 290 290 289 288 287
296 294 292 292 293 294 294 294 294 295 296 297 296 295 297 299 298 298 298 297 299 299 300 299 300 301 301 302 298 299 299 297 301 299 296 295 298 298 297 296 296 296 295 295 294 293 292 291 291 290 289 288 288 286
296 294 293 292 293 293 294 294 295 294 295 297 297 297 297 297 294 295 295 298 298 300 301 301 298 300 301 300 298 295 293 295 299 293 296 297 298 298 297 296 296 295 295 295 293 293 292 291 291 290 289 288 287 286
294 294 292 292 292 293 294 293 294 297 297 297 296 291 294 294 296 298 300 297 300 301 301 301 300 299 300 294 294 293 294 296 293 295 299 296 297 296 296 296 295 294 295 294 293 292 292 291 290 289 288 287 287 286
293 292 292 293 292 293 293 296 297 297 297 297 297 295 294 297 297 297 298 299 301 301 300 299 299 299 293 290 294 295 293 294 294 300 297 296 296 295 295 294 294 294 294 293 293 292 291 290 289 288 287 286 286 285
293 293 292 292 293 293 293 294 295 296 296 295 296 296 297 295 296 297 298 299 301 300 300 299 296 293 294 295 296 294 298 298 297 295 295 295 295 294 294 294 294 293 293 293 291 291 290 289 288 288 286 285 284 284
292 291 291 292 294 294 294 295 295 295 296 296 295 297 297 296 296 297 297 298 300 300 296 296 294 298 295 297 298 296 296 296 294 294 293 293 293 293 293 293 292 292 292 291 290 289 289 288 287 286 285 284 282 280
291 291 291 292 295 296 295 295 295 296 296 296 296 295 295 295 295 296 297 299 299 299 299 297 299 296 292 297 298 296 293 293 292 292 292 292 292 292 291 291 290 290 289 289 288 288 288 287 285 284 284 282 280 279
291 292 292 294 294 295 295 295 294 295 295 295 295 294 294 294 294 295 295 297 298 298 298 297 295 296 298 298 297 294 292 292 291 290 290 290 290 290 289 289 288 288 288 287 287 287 286 285 284 283 282 280 280 279
291 291 293 295 294 294 295 294 294 295 295 294 294 294 294 294 294 295 296 297 297 297 297 295 296 297 297 296 296 294 293 292 290 289 289 288 288 287 288 287 286 285 285 285 285 285 283 281 282 281 281 281 280 280
292 293 293 294 293 294 295 294 294 293 293 293 293 293 293 293 294 295 294 295 296 297 293 297 296 296 296 295 294 293 292 291 290 291 288 287 286 286 286 285 285 283 283 283 283 283 282 282 282 281 281 282 281 281
293 292 291 293 293 293 293 293 293 293 293 293 293 294 294 294 293 294 293 294 294 296 295 295 295 295 294 294 294 294 293 293 293 293 291 288 286 286 285 285 285 284 283 283 283 282 283 283 282 281 282 282 282 282
293 292 292 293 293 293 293 294 294 294 294 293 293 294 293 293 293 293 293 293 295 294 294 294 294 294 294 294 293 293 293 293 293 292 290 289 287 287 286 286 285 284 284 283 282 283 283 283 282 282 282 282 282 281
290 290 291 292 292 291 293 293 293 293 293 294 293 295 293 293 292 293 293 296 294 293 293 292 293 292 292 292 292 291 292 292 291 290 289 289 288 287 286 286 285 285 285 284 283 283 284 283 283 283 282 282 280 279
291 290 293 289 293 292 291 291 291 293 290 293 292 292 292 292 293 293 294 295 293 292 291 290 290 291 292 292 292 292 291 291 290 289 289 289 288 288 287 286 285 285 285 284 284 284 284 284 283 282 281 280 279 277
287 291 291 293 290 292 292 289 290 290 290 290 292 293 293 293 293 294 295 294 293 291 290 290 290 290 291 292 292 291 290 290 290 290 289 289 288 287 286 285 285 285 285 285 284 284 284 283 282 281 280 279 279 278
288 289 293 293 293 293 291 294 294 291 290 289 289 291 292 288 289 294 293 291 291 290 289 289 290 290 291 291 291 290 289 289 289 288 288 287 287 286 286 285 285 285 285 285 285 284 284 283 282 280 280 279 279 278
292 293 287 292 292 293 290 290 289 289 290 295 294 288 290 291 295 294 292 291 290 290 289 288 289 289 290 289 289 289 288 288 288 288 287 286 286 286 286 285 285 284 284 284 284 284 283 282 281 280 280 279 278 278
292 293 292 291 292 293 293 291 291 294 294 295 288 291 294 293 292 292 292 292 291 290 289 288 288 287 287 287 287 288 288 287 286 286 285 285 284 285 285 285 284 284 283 283 283 283 282 281 281 280 279 279 278 277
292 291 292 292 288 288 292 291 292 292 292 293 293 293 293 291 291 291 291 290 290 290 289 288 288 288 288 287 286 286 286 285 285 285 284 284 283 283 283 284 284 283 283 283 282 282 281 281 280 279 279 278 276 275
292 290 291 292 291 292 291 291 291 291 291 291 291 292 293 292 290 291 290 289 289 288 289 288 287 287 286 286 286 286 285 284 284 285 285 286 284 283 283 283 283 283 282 282 282 282 281 280 280 279 278 276 274 274
290 290 291 287 291 289 289 289 290 290 290 289 291 290 290 289 290 289 288 288 287 286 287 287 286 286 286 286 286 285 285 285 285 285 285 285 284 284 283 283 282 282 282 281 281 281 280 279 278 277 275 274 274 273
290 290 291 291 290 290 289 289 289 290 290 290 290 290 290 290 289 288 287 287 285 285 285 285 286 286 286 285 285 285 284 284 284 284 284 284 284 284 283 282 282 282 281 281 280 279 279 278 276 275 274 274 273 272

GFSWCAN_850_thetae_114.txt.gz
Theta_e
290 290 290 292 295 295 295 294 295 294 293 293 293 294 295 296 297 297 298 299 298 300 299 299 300 304 304 303 301 301 302 301 299 300 302 301 302 303 302 301 302 302 303 304 303 302 303 297 300 301 294 293 293 292
289 288 289 294 294 295 295 295 296 296 295 295 296 295 297 297 297 297 298 299 299 299 299 299 299 301 304 303 303 301 301 300 301 300 300 302 304 305 304 305 304 301 299 300 300 297 295 295 295 295 295 292 291 290
287 288 291 294 294 294 295 295 295 295 296 296 296 297 297 297 299 298 299 299 299 300 299 299 298 301 303 303 303 302 301 302 303 304 301 303 305 303 305 301 303 303 300 296 297 296 295 295 295 295 294 292 291 290
288 290 293 294 294 294 295 295 295 295 296 295 296 297 297 299 299 299 297 299 300 299 298 299 299 299 301 302 302 302 301 302 304 304 300 303 304 303 303 302 301 301 300 298 297 296 294 294 293 293 292 291 290 289
289 292 294 294 295 296 298 298 297 296 296 297 297 297 298 298 298 297 298 299 300 300 298 299 300 299 300 301 302 302 301 301 302 300 299 302 302 302 301 300 300 301 297 297 296 296 295 294 292 292 291 290 289 288
292 293 294 296 296 297 298 297 297 298 296 297 298 299 297 297 297 297 298 298 300 299 299 297 300 300 301 300 300 300 300 301 301 301 300 303 304 302 300 300 300 300 300 300 295 295 295 293 292 291 290 289 288 287
293 295 297 297 296 296 297 298 298 298 299 298 297 296 296 297 297 298 299 299 300 300 299 296 297 300 300 301 301 301 301 301 301 299 299 301 302 302 297 298 298 297 299 297 296 295 292 292 291 290 289 289 288 288
295 296 295 293 294 294 294 294 295 295 296 295 295 296 298 298 298 299 299 300 300 300 300 297 297 298 300 300 300 301 301 301 301 299 300 298 299 300 299 297 296 296 296 295 295 296 293 292 291 290 289 289 288 287
296 295 292 293 294 295 296 296 296 296 296 296 297 297 297 298 298 299 299 300 301 301 298 297 296 295 301 301 300 301 301 297 300 298 298 299 296 298 298 297 296 295 295 295 295 293 292 291 291 290 289 288 288 287
295 293 293 295 296 295 295 295 295 296 295 296 297 297 298 298 298 299 297 298 299 299 301 297 299 297 300 300 298 299 299 297 298 298 299 297 296 299 298 298 297 296 296 295 292 292 291 291 290 289 289 288 288 287
292 292 294 294 295 295 295 295 295 296 296 296 296 297 296 297 298 297 298 297 298 297 301 300 299 298 301 297 296 299 297 296 300 298 297 296 297 295 297 297 296 295 295 295 294 292 292 291 290 289 289 288 288 287
292 293 294 294 295 295 295 295 296 296 296 296 296 296 297 299 298 296 295 296 298 299 299 298 299 300 301 301 296 298 298 296 301 296 295 293 296 296 297 296 295 295 295 294 293 292 291 291 290 289 289 288 288 287
292 293 294 294 294 295 295 295 295 295 296 296 297 298 296 296 292 293 293 296 295 297 300 300 297 300 300 299 295 295 292 293 295 288 294 297 297 296 296 296 295 295 295 294 293 292 291 290 290 290 289 288 288 287
292 293 294 294 294 294 294 294 295 297 297 296 295 290 290 289 295 298 299 295 299 300 300 300 299 297 298 293 291 291 292 293 289 292 296 296 297 296 296 296 295 295 295 294 293 292 291 291 290 290 290 289 287 286
293 292 293 293 294 294 294 295 297 296 296 296 296 294 292 296 295 296 298 300 300 300 299 299 297 297 291 289 290 292 290 290 291 290 295 295 296 296 296 295 295 295 295 294 293 292 292 291 291 289 288 288 286 286
292 292 292 292 293 295 295 295 295 295 295 295 295 295 294 295 295 297 297 299 300 299 299 299 294 291 292 292 294 291 295 292 290 294 295 296 295 295 295 295 295 294 294 294 293 292 291 291 290 289 287 286 286 285
293 292 292 293 293 294 293 294 294 295 296 295 295 296 296 295 296 296 298 299 300 299 292 294 293 295 292 294 296 295 295 295 294 294 294 294 294 295 295 294 294 294 293 293 292 291 290 289 288 288 287 285 284 283
292 293 294 294 295 294 294 295 295 295 295 295 294 294 294 295 295 297 298 298 299 299 298 297 296 293 287 296 296 293 293 293 293 293 293 293 293 293 293 293 293 293 292 291 290 290 289 288 287 286 285 284 281 279
292 294 294 294 294 295 294 294 294 294 295 295 294 294 294 295 295 297 297 297 297 298 297 296 293 293 297 296 295 295 293 292 291 291 291 291 292 292 292 291 291 290 290 289 289 288 288 287 287 286 285 283 280 279
293 294 294 294 294 294 294 293 294 294 293 293 293 293 293 294 295 296 296 296 296 297 296 293 295 296 296 296 296 294 293 291 291 290 290 290 290 290 290 290 290 289 288 287 287 286 285 285 285 284 284 282 280 279
293 293 293 294 294 294 294 294 293 293 292 293 293 293 293 293 293 294 294 294 296 297 296 294 294 295 295 295 294 293 292 290 290 289 289 288 288 287 288 288 288 287 287 286 286 285 285 285 284 283 281 280 280 279
292 292 292 292 292 293 293 293 293 293 293 293 294 293 293 293 293 293 293 293 295 295 295 295 294 295 295 294 293 293 292 292 291 291 290 288 287 286 286 287 286 286 285 285 285 284 283 283 282 280 280 280 279 280
291 291 293 293 292 293 293 294 293 294 293 292 293 293 292 293 292 292 293 293 294 294 294 294 294 294 294 294 293 292 292 292 292 292 290 289 288 287 286 286 285 285 284 284 283 282 283 282 282 281 281 281 281 281
290 290 291 292 292 289 293 293 293 292 293 293 292 291 292 292 291 292 291 294 293 293 293 293 292 292 292 293 292 293 292 292 291 290 289 288 287 287 286 286 286 285 284 284 282 282 283 283 282 281 282 282 282 281
290 291 292 285 293 288 285 286 289 290 287 290 289 289 290 292 292 290 291 293 293 292 290 290 291 291 291 291 291 291 291 291 290 290 289 289 289 288 287 286 286 285 285 283 282 283 283 283 282 282 282 282 282 281
283 291 288 287 287 287 287 286 284 286 285 285 288 292 292 291 288 290 293 293 293 291 290 290 290 290 291 291 292 291 291 290 290 290 289 289 288 288 287 286 285 285 285 285 284 283 283 283 283 283 282 281 281 280
284 284 292 293 293 293 288 292 292 286 285 284 284 287 281 285 284 291 292 291 291 290 289 289 289 290 290 291 291 291 290 290 289 289 289 288 288 287 287 286 286 285 285 285 284 284 284 284 283 283 282 281 280 279
291 292 285 292 292 292 283 282 283 284 284 292 289 283 284 286 290 293 292 291 289 289 288 288 289 289 290 290 289 289 289 289 288 288 288 287 287 286 286 285 285 285 285 284 284 284 284 284 283 282 281 280 280 279
292 292 291 284 291 292 291 285 286 291 292 293 282 284 289 291 292 291 291 291 290 290 288 289 288 288 288 287 287 286 286 287 287 287 287 286 286 285 285 285 285 284 284 284 285 285 284 283 283 282 281 280 279 279
292 292 291 288 280 284 290 290 291 291 292 292 292 292 292 290 290 290 290 289 288 288 288 288 288 287 286 286 287 287 287 286 286 286 285 286 285 285 285 284 284 284 284 284 284 283 283 282 281 281 280 280 279 278
291 290 290 290 286 291 290 290 290 290 290 290 290 292 292 290 289 288 288 288 288 288 287 287 287 287 287 286 285 285 286 285 285 285 285 285 285 284 284 284 284 284 283 283 283 283 282 281 281 280 280 279 278 277
290 289 289 283 288 288 288 288 289 289 290 289 290 289 290 289 289 288 287 286 287 287 287 287 287 287 287 286 285 285 285 285 285 285 285 285 285 284 283 283 283 283 283 282 282 282 282 281 281 280 279 278 276 275
289 289 290 290 287 288 288 288 288 289 289 289 289 290 290 289 289 287 286 285 285 285 285 286 286 286 286 286 286 285 285 284 285 285 285 285 284 284 283 282 282 282 282 281 281 281 281 280 280 279 277 276 274 273

GFSWCAN_850_thetae_117.txt.gz
Theta_e
290 290 290 290 291 292 292 294 293 292 290 291 292 292 293 293 293 294 295 296 297 299 299 300 300 301 303 303 300 301 302 301 300 303 305 302 300 301 301 296 303 303 304 303 303 302 301 298 301 301 294 294 294 294
289 288 288 288 290 294 295 295 294 295 294 290 290 291 293 293 294 295 297 296 297 298 299 299 300 299 301 302 302 302 302 300 301 302 301 302 303 299 301 302 302 299 298 299 301 299 295 295 296 295 295 294 292 292
288 287 287 289 291 294 294 295 295 295 294 294 293 292 292 293 295 296 298 298 298 299 299 299 299 299 300 302 302 301 300 302 301 301 301 301 303 299 301 299 303 301 299 297 298 296 295 295 294 294 294 293 291 291
287 287 288 290 293 293 294 294 295 295 296 295 295 294 294 295 296 297 297 297 298 299 297 299 299 299 302 303 302 302 301 303 303 304 297 297 302 302 302 302 302 301 299 298 297 296 295 294 294 293 292 291 290 289
288 289 290 292 294 293 293 294 294 295 295 296 295 296 296 297 297 297 297 298 299 299 297 299 299 299 301 301 302 302 302 303 303 299 298 300 301 302 299 300 300 300 298 297 298 296 295 294 293 292 292 290 289 289
291 291 293 294 294 295 295 295 294 295 295 296 296 296 297 298 298 297 297 298 299 300 298 298 299 299 300 301 301 301 301 301 301 301 300 302 303 303 301 300 299 299 299 298 297 295 295 293 293 292 291 290 289 288
291 294 296 296 298 298 298 297 296 295 295 296 296 296 297 298 298 298 298 299 299 299 299 294 297 300 301 301 301 301 301 301 300 299 299 301 301 301 298 300 298 297 297 298 296 295 291 292 291 292 290 289 288 288
295 296 295 296 298 298 298 297 296 296 296 297 297 298 298 297 297 298 299 299 299 300 299 294 296 298 300 300 300 301 301 300 300 298 299 298 298 299 299 297 295 295 295 294 295 296 293 292 291 290 289 288 287 287
294 294 295 295 297 298 298 297 298 298 298 298 297 297 297 298 298 299 299 300 300 300 297 296 295 294 300 300 300 300 300 296 299 298 298 298 296 298 297 297 294 294 295 294 295 295 292 292 290 290 288 288 287 286
293 295 295 296 296 295 295 295 296 296 297 297 297 297 298 298 299 299 299 299 300 300 300 296 297 297 299 299 297 298 298 296 298 297 298 296 295 297 298 297 297 296 296 295 293 291 291 291 290 289 288 288 287 287
295 295 295 295 295 296 296 296 296 296 297 297 296 296 298 298 297 297 298 296 297 297 299 299 299 298 300 296 296 297 296 296 299 298 297 296 296 294 297 297 296 296 296 295 295 293 292 291 290 289 289 288 287 287
295 295 295 295 294 295 296 296 296 297 296 296 297 297 297 298 298 295 293 295 297 299 297 296 298 300 300 299 297 297 298 296 301 294 296 294 291 296 296 296 295 295 295 294 294 292 291 291 291 290 289 288 288 287
294 295 295 295 296 295 295 295 296 296 296 297 297 297 296 294 290 291 292 295 294 296 299 299 296 300 298 299 294 295 293 293 294 288 293 293 296 296 296 296 295 295 294 294 293 292 291 291 290 289 289 288 288 287
295 295 295 294 295 295 295 296 296 296 297 296 295 291 291 290 296 297 297 294 298 298 300 300 296 295 295 293 290 293 292 292 288 291 294 295 296 296 296 296 295 295 294 294 293 292 291 290 290 289 289 289 288 287
294 294 294 295 294 296 296 296 296 296 296 296 295 292 293 295 296 296 296 297 298 299 299 297 295 296 290 289 290 291 291 289 290 288 293 296 296 296 296 295 295 294 294 293 292 292 291 290 290 290 289 289 287 287
293 293 293 293 295 296 296 295 295 296 296 296 295 294 294 293 296 298 297 298 299 299 299 299 293 291 292 292 292 290 292 289 287 293 294 296 296 296 295 295 295 294 294 294 292 291 291 291 290 290 289 288 287 286
293 292 292 294 294 295 294 294 295 295 295 295 294 294 294 295 295 296 297 299 299 299 293 293 292 295 292 293 295 295 292 292 293 294 295 295 295 295 295 295 295 294 294 293 293 292 291 291 290 289 288 287 286 285
293 293 293 293 294 294 294 294 295 295 294 294 293 294 294 295 295 296 297 298 299 298 297 296 295 292 286 295 297 294 294 293 293 293 293 293 294 294 295 295 294 294 293 293 292 292 291 290 289 288 287 286 284 284
294 294 295 293 294 294 294 294 294 293 294 294 294 294 294 294 296 295 296 297 297 297 297 296 293 294 293 296 294 294 293 292 291 292 292 292 292 293 293 293 293 293 292 292 291 290 289 289 288 287 286 285 284 282
294 294 294 293 294 294 293 293 293 293 293 293 293 293 294 295 295 294 295 296 297 297 295 292 294 295 294 295 295 294 293 292 291 291 291 291 291 291 291 291 291 291 290 289 288 288 287 287 286 286 285 285 284 282
293 294 294 293 294 294 294 293 293 292 292 293 293 293 293 293 293 293 294 295 296 295 292 292 293 295 294 293 293 292 291 290 290 290 290 289 289 289 289 289 289 289 288 288 287 286 286 286 286 285 284 284 283 280
291 292 291 292 293 293 293 293 293 292 293 293 294 293 293 291 293 292 293 294 293 294 295 294 294 295 294 293 292 292 291 291 290 290 289 289 288 287 286 288 288 287 287 287 286 286 286 285 285 284 283 281 279 278
291 291 292 291 292 293 293 294 293 293 289 290 293 292 291 292 292 292 292 293 294 294 293 293 293 294 294 293 293 292 292 292 291 291 290 289 288 287 287 286 286 286 285 285 285 285 284 283 282 282 280 279 278 279
290 290 292 292 292 288 292 293 292 292 292 292 292 290 292 291 291 292 290 293 292 293 292 292 292 293 293 293 293 292 292 291 291 290 288 288 288 287 286 286 286 285 285 284 284 283 282 282 282 282 281 280 280 280
290 291 291 283 292 287 283 285 290 289 287 289 289 289 291 291 290 285 289 292 292 291 291 290 291 291 291 291 291 291 291 291 291 290 289 288 288 288 287 286 286 285 284 283 283 282 282 282 282 282 282 282 281 281
282 291 288 285 285 286 286 285 283 284 283 284 286 291 291 289 283 286 292 293 292 291 290 290 290 290 290 290 291 291 291 290 290 290 289 289 288 288 288 287 286 285 284 284 283 282 282 283 282 282 282 282 282 281
283 283 292 292 292 292 286 289 290 284 283 284 283 287 279 283 282 289 292 291 290 289 289 289 289 289 290 290 291 291 291 290 289 289 289 289 289 288 287 287 286 286 285 285 284 283 283 283 283 283 282 282 282 281
291 291 283 290 291 291 282 280 282 284 283 289 287 283 284 285 288 292 292 290 289 288 288 288 289 289 289 290 290 290 289 289 289 288 288 288 288 287 287 286 285 285 285 285 285 284 284 284 283 283 282 282 281 280
291 291 291 280 289 290 289 286 284 290 290 291 282 282 290 291 291 291 290 290 288 288 287 287 288 288 288 288 287 287 286 286 286 287 287 287 287 286 286 285 285 285 284 284 284 284 284 284 284 283 283 282 281 280
291 291 290 284 279 283 289 290 291 290 290 290 291 291 291 290 289 289 289 289 288 288 288 287 286 286 286 286 285 286 286 285 285 286 286 286 286 285 285 285 285 284 284 284 284 284 284 284 283 282 282 281 280 279
290 290 290 287 284 290 289 288 288 289 289 289 290 292 291 289 288 288 288 288 288 288 287 287 287 287 287 286 286 285 285 286 286 285 285 285 285 284 284 284 284 284 284 283 284 284 283 283 282 281 281 280 280 279
289 289 287 284 287 288 287 287 288 289 289 289 289 290 290 289 289 288 287 286 287 287 287 287 287 287 287 286 286 285 284 285 285 285 285 285 285 285 284 284 284 284 283 283 283 283 282 282 282 281 280 280 279 278
289 289 289 289 286 287 288 287 287 288 288 289 289 289 289 289 289 288 287 286 286 286 286 286 286 286 286 286 285 286 285 285 284 285 285 285 285 284 284 283 283 283 283 282 282 282 282 281 281 280 279 279 278 277

GFSWCAN_850_thetae_120.txt.gz
Theta_e
291 291 291 290 290 290 290 291 291 290 291 293 293 293 294 294 293 294 294 293 295 296 297 299 299 300 301 301 299 301 303 302 301 303 304 303 301 302 303 299 304 305 304 304 304 303 301 300 300 300 296 293 295 294
291 290 289 290 289 289 291 291 292 291 290 291 292 293 293 294 293 294 294 293 294 295 297 299 299 300 301 302 301 302 301 299 300 301 302 303 305 299 300 301 300 303 297 297 300 298 294 296 297 297 296 295 294 294
289 288 288 288 287 288 291 294 295 294 294 293 291 291 293 293 293 294 293 293 295 296 296 297 298 299 299 300 301 301 301 302 301 302 298 299 304 300 303 299 301 300 298 294 296 295 294 295 295 295 295 295 295 295
288 288 287 287 287 289 293 294 295 295 295 294 292 291 291 291 293 293 293 294 295 298 298 298 299 298 299 298 299 301 301 301 302 302 300 302 304 301 300 299 298 299 298 298 296 295 295 294 294 294 294 293 292 291
287 287 288 289 289 290 293 294 293 295 295 294 293 292 290 291 292 293 294 296 297 297 297 298 298 299 299 300 301 302 301 301 302 300 299 300 300 298 297 297 298 299 298 299 299 297 296 295 294 293 293 291 291 291
287 290 291 292 292 292 292 294 293 294 296 294 294 293 292 291 293 295 296 296 296 297 298 299 299 299 299 300 301 300 300 301 301 300 299 301 302 300 297 300 299 299 298 298 297 296 295 294 293 292 292 290 289 289
290 291 292 293 294 294 293 293 293 294 295 296 295 295 294 295 295 295 297 298 297 298 298 298 299 299 300 300 300 300 300 301 299 299 298 299 301 302 301 302 297 296 297 297 296 295 291 292 290 291 291 289 289 288
294 295 297 297 298 298 296 295 294 294 295 296 296 296 296 296 296 297 298 298 299 299 299 297 298 298 299 299 299 300 300 299 299 297 298 297 299 299 302 297 294 294 294 294 295 296 294 292 291 291 290 289 288 287
295 296 298 297 297 297 296 295 294 294 296 296 296 296 296 297 297 298 299 299 299 299 297 295 295 295 300 299 299 300 299 296 298 297 297 297 295 297 297 296 293 294 295 294 294 294 292 292 291 291 289 288 288 286
296 296 297 296 297 296 295 295 295 296 296 297 297 297 297 297 298 299 299 299 299 300 299 293 296 295 298 298 296 297 297 296 298 297 297 295 295 296 298 297 296 295 295 295 292 290 290 290 290 289 288 288 288 287
296 296 296 297 297 297 298 297 297 297 297 297 296 296 298 297 297 297 296 295 296 296 298 297 298 297 299 296 296 297 296 295 298 297 296 296 296 295 297 297 296 296 295 295 295 294 292 291 290 289 288 288 287 287
295 296 296 296 296 296 297 297 296 297 297 297 298 297 297 297 297 296 293 295 296 299 296 296 298 299 299 298 297 297 297 295 300 293 295 294 292 295 296 296 296 295 295 294 294 293 292 291 291 289 288 288 287 287
294 294 295 296 296 296 296 296 297 297 297 297 297 296 296 293 291 292 292 295 294 295 297 298 295 298 297 298 293 294 293 293 293 289 294 292 295 295 296 296 295 294 294 294 293 292 291 291 290 290 289 288 288 287
295 294 294 294 295 295 296 297 296 296 296 295 295 292 291 289 295 295 296 294 296 297 299 299 294 293 295 292 289 293 291 292 290 291 292 289 295 295 295 295 295 294 294 294 293 292 291 291 290 290 289 288 288 287
294 295 295 295 296 296 296 296 295 296 296 295 294 293 294 295 296 296 296 297 297 297 298 296 295 295 290 289 290 292 292 289 289 287 289 295 295 296 295 295 295 294 294 294 292 292 291 290 290 289 289 289 288 287
294 294 294 294 295 296 296 295 296 296 296 295 295 294 294 294 297 297 296 297 298 298 298 297 292 291 292 292 292 289 291 287 286 292 294 295 296 296 296 296 295 294 294 293 292 292 291 291 290 289 289 288 288 287
293 293 294 294 294 295 295 294 295 295 295 294 292 294 293 294 295 296 297 298 298 298 291 294 293 296 292 292 295 294 292 291 293 294 295 295 296 296 296 295 294 294 294 293 292 291 291 291 290 290 289 288 287 286
293 293 294 295 294 294 294 294 295 294 293 293 292 293 294 294 295 296 297 299 299 298 297 296 294 291 285 293 295 294 293 293 293 293 293 294 294 295 295 295 294 293 292 293 292 292 291 290 290 289 288 287 286 285
293 293 293 293 294 294 294 294 294 292 293 294 294 294 294 295 294 295 296 297 297 297 297 295 293 295 295 295 294 294 293 292 292 292 292 292 293 293 294 293 293 292 291 292 292 291 290 290 290 289 288 287 286 285
294 294 293 293 293 293 293 293 293 293 291 292 293 293 294 295 294 294 296 296 297 296 294 292 293 294 293 294 294 294 293 292 291 291 291 291 291 292 292 292 292 291 291 290 290 290 289 288 288 287 287 286 285 284
294 293 293 293 293 293 293 292 292 292 292 293 293 293 293 293 293 293 293 294 295 293 291 292 293 294 293 293 292 291 291 290 290 290 290 290 290 290 290 290 290 290 290 289 289 288 287 287 287 286 286 285 284 284
291 291 291 292 293 293 292 292 292 292 293 293 293 293 292 291 292 292 292 293 291 292 294 294 294 294 293 292 291 291 290 290 290 290 289 289 289 289 288 288 288 288 288 288 287 287 286 286 285 285 285 284 283 283
290 290 291 291 293 293 292 293 293 293 287 289 293 290 288 290 291 292 291 292 293 293 294 293 293 294 293 293 292 292 291 290 290 290 290 289 288 287 287 287 287 287 287 286 286 285 285 284 284 284 283 282 281 279
290 290 292 292 292 287 292 292 292 292 292 291 290 290 290 291 291 290 290 291 292 292 292 292 293 293 293 293 292 292 291 291 290 289 289 288 288 287 287 286 286 285 285 284 284 284 284 283 283 283 282 281 280 279
290 290 290 283 290 286 283 285 286 288 287 288 287 288 291 291 285 284 289 292 292 291 291 291 291 291 291 291 291 291 292 291 291 290 289 288 288 288 287 286 285 285 284 284 283 283 283 282 282 282 282 281 280 279
281 290 287 284 284 286 285 286 282 284 282 285 286 291 291 283 283 286 290 292 292 291 290 289 289 290 290 290 290 290 290 290 290 290 289 289 288 288 288 287 286 285 285 284 283 283 282 282 282 282 281 281 281 281
282 281 291 291 291 291 285 288 289 283 283 284 283 286 279 283 282 287 291 291 291 290 289 289 289 289 289 290 290 291 291 290 290 289 289 289 289 288 288 287 286 286 285 284 284 283 283 283 282 282 282 281 282 281
290 290 283 289 290 290 281 279 281 283 282 288 285 282 284 284 286 291 291 290 289 288 288 288 289 289 289 290 290 290 290 289 289 288 288 288 288 287 287 287 286 285 285 285 284 283 282 283 283 283 282 282 282 281
291 290 290 280 288 288 287 285 285 289 289 289 281 281 285 291 291 291 290 289 288 287 287 287 288 288 289 288 288 287 287 286 286 287 287 287 287 287 286 286 285 285 285 285 284 284 284 284 283 283 283 282 282 281
290 290 288 281 279 282 287 289 290 289 289 290 290 290 290 290 290 290 289 289 288 287 287 287 287 286 286 286 286 285 284 285 285 285 286 286 286 286 286 285 285 285 284 284 284 284 284 284 283 283 283 282 281 280
289 290 289 285 283 288 288 288 288 288 288 289 289 290 291 290 289 288 288 288 287 287 286 286 286 286 286 286 286 285 284 286 286 286 285 285 285 285 285 285 285 285 284 284 284 284 284 284 283 283 282 282 281 280
289 288 287 285 287 288 287 288 287 288 288 288 289 290 289 290 289 289 287 287 287 287 287 287 287 287 287 286 286 285 285 285 285 285 285 284 285 285 284 284 284 284 284 283 284 284 284 283 283 282 282 281 280 280
288 289 289 288 285 287 287 287 286 286 287 288 288 289 289 288 288 289 288 287 287 286 286 287 286 286 286 286 285 285 285 285 284 284 285 285 285 285 284 283 283 283 283 283 283 283 283 282 282 281 281 280 279 279

GFSWCAN_850_thetae_123.txt.gz
Theta_e
290 290 291 291 291 291 291 291 291 292 293 293 293 293 294 295 295 295 295 294 295 295 296 298 299 300 300 299 300 300 302 302 302 303 302 303 303 304 305 303 306 307 307 307 306 307 306 301 300 303 301 295 297 296
291 291 291 290 290 290 290 291 291 290 290 292 293 293 293 294 295 294 294 294 294 295 295 296 295 296 299 300 300 300 301 301 301 302 302 303 304 302 303 306 302 306 306 306 305 306 297 297 297 297 296 295 295 295
290 290 289 289 289 288 288 289 290 291 291 291 291 293 293 294 294 294 293 293 294 294 294 294 294 297 298 300 300 300 300 301 301 301 302 303 305 303 304 303 302 301 298 302 302 299 297 296 297 296 296 296 296 296
288 288 288 288 287 287 287 289 292 295 294 293 291 291 293 293 293 294 294 293 293 295 295 296 297 298 297 297 299 300 301 300 301 301 302 303 304 301 304 303 302 301 300 300 299 296 296 295 296 296 295 295 295 294
286 286 287 287 287 288 288 288 293 294 294 294 294 292 291 292 293 294 293 293 293 293 298 297 298 298 299 299 298 298 299 301 301 301 302 302 301 302 300 300 302 300 300 303 304 299 299 297 296 295 295 294 294 294
289 287 287 287 288 290 292 291 293 294 295 295 293 294 291 291 292 294 294 293 293 294 295 299 298 299 298 298 298 298 299 300 301 299 301 300 301 301 303 304 300 299 298 298 299 296 296 295 295 294 294 292 291 291
288 289 290 290 291 291 292 292 292 294 294 295 294 293 291 290 291 293 295 296 294 295 296 298 299 299 298 299 300 300 300 300 300 299 298 300 301 302 301 304 298 296 297 297 297 296 291 292 291 292 292 290 290 290
293 294 294 294 294 292 292 292 292 293 295 294 294 293 292 292 293 293 297 298 297 296 297 299 300 299 298 298 299 299 298 298 299 297 297 300 300 300 304 298 294 294 294 294 294 295 295 293 292 290 290 289 288 288
296 296 296 297 297 296 294 293 293 293 296 295 295 293 293 294 295 294 294 297 297 298 298 296 300 300 299 298 299 299 298 299 297 299 299 298 298 302 299 297 294 293 294 294 294 294 292 292 290 289 289 288 287 285
296 296 296 297 298 296 294 293 294 294 297 296 297 296 296 296 297 297 297 296 296 298 298 296 295 300 298 296 297 298 296 298 301 299 296 300 300 296 297 297 296 295 295 294 292 290 290 289 288 288 288 287 287 285
297 296 296 295 295 294 294 294 295 297 297 296 296 295 296 297 297 297 296 297 297 297 297 296 297 299 298 299 299 296 298 298 300 299 300 299 300 297 296 296 296 295 295 294 294 294 293 292 289 288 288 287 287 286
297 297 297 297 296 295 295 296 297 296 297 297 297 296 296 297 296 296 293 295 296 299 296 298 297 298 298 298 299 297 299 298 301 294 299 299 295 295 295 295 295 295 294 294 293 293 292 291 291 290 289 287 287 287
295 296 296 296 296 296 296 296 297 297 297 296 296 295 295 293 292 293 292 295 296 296 296 297 297 297 297 297 295 297 297 298 294 296 298 296 294 295 295 295 294 294 294 293 292 292 291 290 290 289 288 288 288 287
295 295 295 296 296 297 297 296 296 296 296 296 295 294 293 292 295 294 297 296 295 296 297 297 294 296 294 295 292 297 294 294 296 297 297 293 294 295 295 295 294 294 293 293 292 291 291 290 289 289 289 289 288 287
295 295 296 296 296 296 296 296 296 296 295 295 294 294 295 294 295 295 296 296 296 296 297 296 295 294 293 293 292 294 295 295 295 295 294 294 295 295 295 295 294 294 294 293 292 291 291 290 290 289 289 288 288 287
294 294 295 295 295 294 295 295 296 296 296 295 293 295 294 295 297 297 296 295 296 297 297 296 294 295 295 294 294 293 295 293 292 293 294 295 295 295 295 294 294 294 294 293 292 291 291 290 290 289 289 288 288 287
294 294 294 294 295 295 295 295 295 295 294 294 293 293 292 293 294 295 296 297 297 297 295 296 295 296 294 295 296 293 294 294 293 294 294 295 295 295 295 295 295 294 294 293 292 291 290 290 289 289 289 288 287 287
293 293 294 294 294 294 294 294 294 294 293 293 292 293 294 293 295 295 296 297 298 297 296 296 293 293 292 295 295 295 292 292 293 293 293 294 295 295 295 295 294 293 292 292 292 291 290 290 289 289 288 288 287 286
293 293 293 293 293 293 294 294 294 292 292 293 293 294 295 294 294 295 296 297 297 296 296 295 294 295 295 295 295 293 293 292 292 292 292 293 293 294 293 292 292 291 290 291 291 290 290 290 290 289 289 288 287 286
294 293 292 293 293 293 293 293 293 293 290 292 293 292 294 294 293 295 296 296 296 295 294 294 294 294 294 293 293 293 293 292 291 291 291 291 292 292 292 292 292 291 290 290 290 290 289 289 288 288 288 287 287 286
292 293 293 293 293 293 292 292 292 292 292 292 292 293 292 294 293 293 293 294 294 293 293 292 293 293 293 292 292 292 291 291 290 291 291 290 291 291 291 291 291 290 290 290 290 289 289 288 288 287 287 286 285 285
291 291 292 292 292 292 292 292 292 292 292 292 293 292 291 290 291 291 292 292 291 291 291 293 293 293 292 291 290 290 290 289 289 289 289 289 290 289 289 289 289 289 289 289 288 288 288 287 287 286 286 285 284 284
290 290 291 292 293 292 292 293 292 292 288 289 292 290 289 289 291 291 290 290 291 292 293 293 293 293 292 292 291 290 290 289 289 289 289 289 288 288 288 287 288 288 288 288 287 286 286 286 285 285 284 284 283 282
290 290 291 291 291 287 291 292 292 291 291 291 290 289 289 290 291 289 290 291 292 292 292 292 293 293 292 292 292 291 291 291 290 289 288 288 288 287 287 287 287 286 286 286 286 285 285 285 284 284 283 283 282 281
290 289 290 283 290 285 283 284 285 287 287 288 287 287 291 290 286 285 290 292 292 291 291 291 291 291 291 291 292 292 291 291 290 290 289 288 288 287 286 286 286 285 285 285 285 284 284 284 283 283 283 282 281 281
281 289 286 282 283 285 285 285 282 284 285 285 287 290 290 284 285 288 290 291 291 290 290 290 290 290 290 290 290 290 290 290 289 289 289 289 288 288 288 287 286 286 285 284 284 284 283 283 283 282 282 281 281 281
281 282 290 290 290 290 285 286 287 283 283 286 286 285 282 284 285 287 291 291 291 291 290 289 289 289 290 290 290 290 290 290 290 289 289 289 288 288 288 287 287 286 286 285 284 284 283 283 282 282 282 281 281 281
289 289 283 288 289 289 281 279 280 282 283 287 285 284 284 285 288 290 290 290 289 288 288 288 288 289 289 289 290 290 290 289 289 289 288 288 288 288 287 287 287 286 286 285 284 283 283 283 283 282 282 282 281 281
290 289 288 279 286 286 287 285 285 288 289 288 282 282 285 290 290 290 290 289 288 287 287 288 288 288 289 289 289 288 288 287 286 286 287 287 287 287 287 286 286 285 285 285 284 283 283 282 283 283 282 282 282 281
289 289 287 279 279 282 287 289 289 289 289 289 290 290 290 290 290 290 290 289 288 287 287 287 287 287 287 287 286 285 285 285 285 285 286 286 286 286 286 286 285 285 285 285 284 284 283 283 283 282 282 282 282 281
288 289 288 284 281 288 288 288 288 288 288 288 289 289 290 290 289 289 289 288 288 287 287 287 286 286 286 286 286 285 285 285 286 285 286 286 286 285 285 285 285 285 284 284 284 284 284 284 283 283 283 282 282 281
288 288 286 282 283 288 287 287 287 287 288 288 288 289 289 289 289 289 288 287 288 287 287 287 287 287 287 286 286 285 285 285 285 286 285 285 285 285 285 285 285 285 284 284 284 284 284 284 284 283 283 282 282 281
287 286 287 286 285 286 287 287 285 283 285 285 287 288 289 289 288 289 289 289 287 287 287 287 287 287 286 286 286 285 285 285 284 285 284 284 285 285 285 284 284 284 284 283 283 283 283 283 283 282 282 281 281 280

GFSWCAN_850_thetae_126.txt.gz
Theta_e
290 290 290 291 292 292 292 291 292 293 295 297 296 297 296 296 296 296 296 296 297 298 298 299 300 301 301 301 303 302 303 303 303 304 303 303 304 304 304 307 304 306 307 309 309 308 309 305 305 305 308 302 304 304
290 290 291 291 291 291 290 290 291 291 293 295 295 295 295 295 295 295 296 295 295 297 298 298 298 299 301 301 301 301 301 303 303 304 304 304 305 305 305 306 305 307 309 309 308 308 305 304 304 301 301 303 302 301
290 290 290 290 290 289 289 288 291 291 290 292 293 294 294 294 295 295 296 295 295 296 296 296 296 297 297 298 301 301 301 302 303 303 304 305 305 305 306 306 305 306 305 307 305 306 304 303 300 300 299 300 299 299
288 289 289 289 288 288 288 288 290 291 293 292 292 293 293 294 294 295 295 293 295 295 297 296 296 296 295 296 298 300 301 301 301 302 303 305 306 305 306 306 306 305 305 306 306 303 301 300 301 300 297 297 297 296
287 287 287 288 288 288 287 287 288 292 293 294 291 292 294 293 294 295 294 294 295 295 297 297 297 298 297 297 299 300 301 301 302 303 303 303 304 304 304 304 306 304 306 307 307 305 305 304 301 299 296 296 296 295
286 286 288 287 287 287 287 289 288 293 294 294 294 291 293 293 294 294 294 294 294 295 295 297 299 299 299 299 300 300 300 300 300 301 302 302 302 301 307 307 305 304 302 302 304 301 298 298 297 296 295 295 294 294
288 289 288 287 287 287 289 291 292 294 294 294 294 294 292 294 293 294 295 296 293 293 295 298 300 298 299 299 300 300 300 299 299 299 300 302 301 303 307 305 304 301 300 299 298 297 296 296 295 293 292 292 292 292
290 290 290 291 290 288 290 291 292 294 294 295 293 294 293 293 293 294 295 297 294 294 295 299 300 299 297 298 298 299 298 298 299 300 299 302 302 304 305 303 300 298 298 297 296 296 297 295 293 292 291 290 290 290
296 295 294 294 293 291 289 290 292 294 294 294 293 293 293 293 294 294 293 294 295 296 297 299 301 302 297 298 298 299 299 302 298 302 303 302 305 304 303 302 299 297 298 297 295 295 294 293 292 291 290 290 290 289
296 296 296 296 295 294 292 292 292 295 294 294 293 293 295 293 293 293 293 294 295 297 298 299 298 302 299 301 301 301 300 303 304 303 300 304 304 301 299 299 298 297 296 295 294 294 293 293 291 290 290 290 289 288
296 297 297 297 296 294 293 293 295 296 295 294 294 296 296 294 297 296 297 297 297 299 298 299 298 302 299 302 302 300 302 302 302 303 303 303 303 301 298 298 296 295 295 295 295 295 294 293 291 290 290 289 289 288
295 295 295 294 293 293 293 293 295 296 296 296 297 296 296 297 297 298 299 298 300 301 300 301 301 301 300 299 302 301 301 302 300 301 303 302 301 298 297 296 295 295 294 294 294 294 293 292 291 290 289 288 287 286
295 295 294 293 294 294 295 296 296 296 296 296 296 296 297 296 297 298 298 299 301 301 300 300 302 300 299 300 301 301 302 302 299 303 301 301 298 297 296 295 294 294 294 293 292 292 291 290 290 289 288 287 286 286
296 296 295 294 295 296 297 296 297 296 295 297 296 297 297 298 298 298 300 301 297 299 300 301 300 301 298 300 298 301 298 299 302 302 301 299 297 296 296 295 294 293 293 292 292 291 291 290 289 289 288 288 288 287
296 296 296 296 296 295 295 296 296 296 295 296 296 297 297 296 296 295 297 298 296 298 299 299 299 299 299 299 298 298 299 300 300 301 299 296 296 295 294 294 294 294 293 292 292 291 290 290 289 288 288 288 288 288
296 295 295 295 296 295 295 296 296 296 295 295 295 297 297 298 298 297 297 297 296 297 296 298 299 299 298 298 298 298 298 298 299 298 296 295 295 295 294 294 294 294 293 292 291 291 290 289 289 289 288 288 287 287
295 294 294 295 294 294 295 296 295 295 295 295 296 293 294 296 297 296 296 297 296 299 302 299 299 298 298 298 298 296 299 298 296 295 294 295 295 295 295 294 294 294 293 292 291 291 290 289 289 289 288 287 287 286
293 294 294 293 293 294 295 295 294 295 294 294 297 295 294 294 295 295 295 296 298 299 299 299 297 298 299 298 298 298 295 293 293 293 294 294 295 295 295 294 294 293 293 292 291 291 290 290 289 288 288 288 286 286
293 293 293 293 293 293 294 294 294 294 294 293 294 294 294 294 294 294 295 296 296 296 297 297 298 298 298 297 297 295 294 293 293 291 293 293 294 294 294 293 293 291 291 291 291 291 290 290 287 287 288 288 286 286
293 293 293 293 293 293 293 293 293 294 295 294 293 294 294 294 294 294 295 296 296 296 296 296 296 296 296 295 294 294 293 292 292 292 291 292 292 292 292 291 290 291 290 290 290 290 290 289 289 288 288 288 286 285
291 293 293 293 293 292 293 293 293 293 293 294 293 294 294 294 294 294 295 294 295 295 296 294 295 293 293 293 292 292 292 292 292 292 292 290 291 292 292 292 291 290 289 289 289 289 289 287 288 288 288 287 286 285
290 291 292 292 292 292 293 292 293 292 294 294 294 293 294 295 295 294 292 295 294 293 293 294 294 293 292 291 291 291 291 291 290 290 290 291 290 291 290 290 290 289 288 289 288 289 288 288 288 288 287 286 285 285
290 290 291 292 292 292 292 292 293 292 293 294 293 293 294 294 293 292 294 292 292 292 292 293 293 293 292 291 290 290 289 289 289 289 289 289 289 289 289 289 288 288 288 287 287 287 287 287 287 286 286 285 284 283
290 290 291 291 292 292 291 292 292 293 293 294 293 293 293 293 292 293 295 294 292 291 292 293 293 292 291 291 291 290 290 290 290 290 289 288 288 288 288 287 287 287 287 286 287 286 286 286 286 285 284 284 283 283
290 289 290 291 290 292 292 292 292 292 293 293 292 292 292 291 293 293 294 294 292 292 292 292 292 292 293 292 292 291 291 291 290 290 289 289 288 287 287 287 286 286 286 286 286 285 285 285 284 284 283 283 282 281
289 289 291 291 291 292 292 293 292 292 292 292 292 292 291 292 292 294 293 293 293 291 291 291 291 291 291 291 292 291 291 291 290 290 289 289 288 288 288 287 286 286 286 285 285 284 284 284 284 283 282 282 282 281
289 291 290 289 290 291 291 290 290 292 292 292 292 292 291 291 293 292 291 291 291 291 290 290 290 290 290 290 290 290 290 290 290 290 289 289 288 288 288 287 287 287 286 286 285 284 284 284 283 283 282 281 281 281
289 288 291 289 290 288 291 290 291 292 291 289 290 291 291 291 293 291 290 290 291 290 290 289 289 289 289 290 290 290 290 290 290 290 289 288 288 288 288 288 287 287 286 286 285 284 284 283 283 283 282 282 281 280
290 288 288 286 287 289 290 290 291 289 290 289 291 292 290 290 290 290 290 290 289 289 288 288 288 288 289 289 289 290 289 289 289 288 288 288 287 288 287 287 287 286 286 285 284 284 283 283 283 282 282 282 281 281
288 288 289 284 287 290 290 289 290 289 289 289 289 290 290 290 290 290 290 290 289 289 287 287 288 288 288 288 288 288 287 287 286 286 287 287 287 287 287 287 286 286 285 285 284 283 282 282 282 282 282 282 281 281
288 288 289 287 289 289 288 288 287 287 288 288 289 290 291 290 290 290 289 289 289 288 287 287 287 287 287 287 287 286 286 286 286 285 286 286 287 287 286 286 286 285 285 285 284 284 283 283 283 282 282 282 282 282
287 288 289 289 289 287 287 288 288 288 288 288 288 288 288 289 290 290 290 289 289 288 288 287 287 287 287 287 287 286 286 286 286 286 286 286 286 286 285 286 285 285 285 284 284 284 284 284 283 283 283 283 282 282
285 285 285 286 288 287 288 287 286 286 286 287 287 286 288 290 290 290 290 289 288 288 289 288 287 287 287 286 286 286 286 285 285 285 285 285 285 285 285 285 285 285 284 284 284 284 284 284 284 283 283 283 282 282

GFSWCAN_850_thetae_129.txt.gz
Theta_e
293 290 290 290 290 291 292 292 292 292 293 295 295 296 297 297 297 298 298 299 299 301 301 302 303 303 304 304 305 304 304 305 305 305 305 305 305 305 305 308 305 307 307 308 308 309 309 306 308 309 310 308 308 308
290 290 290 291 292 292 291 291 290 291 291 296 296 295 296 297 297 297 297 298 299 300 300 300 301 302 302 302 302 303 303 304 304 305 305 304 305 305 305 307 305 308 309 309 307 308 308 308 307 308 306 307 307 307
289 290 291 291 291 290 289 289 289 291 291 295 296 296 297 296 295 297 298 296 298 299 298 299 300 300 301 303 303 303 302 302 304 304 306 306 306 305 306 308 306 306 306 308 307 307 308 307 306 305 304 304 305 305
289 289 290 290 290 289 289 288 288 291 293 293 295 296 296 295 295 298 298 298 298 298 300 299 298 299 300 301 302 302 302 303 303 303 303 305 305 305 307 307 307 307 307 307 307 307 307 306 306 306 303 303 303 302
288 288 288 289 289 288 288 287 287 290 294 293 294 294 295 295 295 297 298 297 297 297 299 299 299 298 298 299 300 300 301 302 302 302 303 304 303 304 306 306 306 305 308 308 309 307 307 307 306 304 303 301 301 300
287 287 286 286 287 288 287 288 290 292 294 293 293 294 294 294 295 296 295 297 297 297 297 299 299 299 299 299 299 301 301 301 301 302 303 303 303 304 305 305 306 306 305 306 306 305 303 303 304 304 301 301 300 299
287 287 286 286 287 287 287 289 291 292 294 294 292 293 294 294 296 296 297 298 296 297 297 299 300 300 300 299 300 300 300 301 301 301 302 302 303 303 304 306 304 305 305 304 303 301 301 300 300 299 299 299 298 297
286 287 288 289 289 287 287 290 292 293 294 294 294 293 294 293 296 296 295 296 296 296 296 299 300 300 299 299 300 300 300 299 300 301 302 303 302 302 307 306 304 304 303 302 301 300 301 300 298 297 296 296 296 295
293 292 290 288 289 289 288 291 292 293 294 293 294 293 294 295 295 296 295 295 296 296 298 298 299 302 298 299 298 299 299 302 300 302 302 302 303 305 305 305 304 302 302 301 299 299 298 297 296 295 294 294 295 293
296 295 294 292 291 289 288 290 292 294 294 294 293 294 294 295 294 294 294 293 295 295 296 300 300 302 298 300 301 302 301 304 303 302 302 307 306 305 303 303 302 301 300 299 299 298 298 296 295 294 294 293 293 292
296 296 295 294 293 291 289 291 294 294 293 295 295 296 296 293 294 295 296 296 298 300 298 299 299 301 298 305 305 303 304 304 306 305 305 305 304 305 302 302 300 299 298 298 298 297 297 296 295 294 293 293 292 291
297 296 296 295 294 293 292 294 295 294 295 295 295 296 295 294 296 299 300 299 300 302 301 301 299 299 300 302 302 302 302 303 303 303 303 303 304 301 301 299 298 298 297 296 296 296 296 295 294 293 292 291 290 289
295 295 295 294 293 292 295 295 295 295 295 296 297 297 297 298 301 299 299 301 302 302 301 301 303 302 301 302 302 302 304 303 303 304 302 304 300 299 298 298 297 297 295 295 294 294 294 293 292 292 290 290 289 288
293 293 293 293 293 294 296 296 296 296 296 298 298 298 300 300 300 301 303 304 300 302 301 302 302 303 302 303 302 303 302 302 303 302 302 302 298 298 297 297 296 295 294 293 293 292 291 291 290 290 289 288 288 287
296 296 296 296 296 297 297 296 296 296 297 298 298 298 298 298 296 296 298 298 298 302 302 302 301 301 302 302 301 301 301 302 301 303 302 298 297 297 296 295 294 293 293 292 292 291 290 290 288 288 288 287 287 287
296 296 296 296 295 295 296 296 296 297 297 297 297 299 299 299 300 297 297 298 300 301 301 300 302 302 301 301 300 301 299 299 303 300 298 297 296 296 295 294 294 293 293 292 291 291 290 289 289 288 287 287 287 287
295 294 294 295 296 294 295 297 297 297 297 297 298 294 296 299 298 297 298 300 299 301 304 300 301 300 300 300 299 299 302 300 298 297 296 296 296 295 294 294 294 293 293 292 291 291 290 289 289 288 287 287 287 286
296 295 293 293 294 295 295 296 297 297 296 296 298 296 296 296 297 297 299 300 301 301 300 301 300 300 301 299 300 300 296 295 295 295 295 295 295 294 294 294 294 293 292 292 291 291 290 289 288 287 286 286 286 286
293 293 293 293 294 296 296 296 297 296 296 295 296 296 296 296 297 297 299 299 299 299 299 299 300 300 300 299 299 297 296 296 295 294 293 294 295 295 295 294 293 293 292 292 291 290 289 288 289 288 286 285 285 283
293 293 293 293 293 296 295 296 296 297 297 297 296 297 297 297 296 296 298 299 299 299 299 299 300 299 298 297 296 297 296 295 295 294 293 292 293 293 293 293 292 291 291 291 290 290 289 288 288 287 286 286 285 284
292 292 293 294 295 295 295 295 296 296 296 296 296 297 298 297 298 298 298 297 299 299 299 298 296 295 295 294 294 295 294 294 294 294 294 293 291 291 291 291 291 290 290 290 289 289 288 289 287 286 287 286 285 285
290 291 292 293 294 294 295 294 295 295 296 296 296 296 297 298 298 298 296 298 298 296 296 295 295 294 293 293 293 293 292 292 292 292 292 292 291 291 291 290 290 290 290 289 289 289 288 288 287 287 287 286 285 284
290 290 292 293 293 294 294 294 295 294 296 296 295 296 297 297 296 294 297 296 295 293 293 294 294 294 293 292 291 291 291 291 291 291 290 291 291 291 291 290 289 290 289 288 288 288 288 286 287 287 286 285 284 283
290 291 291 293 294 294 293 294 294 294 295 295 296 295 295 295 294 296 297 297 294 292 292 292 293 293 293 292 292 291 291 291 291 291 291 291 290 290 290 289 289 288 288 288 287 286 286 286 286 285 285 284 283 283
291 291 292 293 292 294 294 294 294 294 295 294 294 295 294 294 295 296 296 297 293 292 292 293 293 293 293 293 292 292 291 291 292 292 290 291 290 290 289 288 288 287 286 286 286 285 285 285 285 283 284 283 282 282
291 292 293 294 294 294 294 295 294 294 294 294 294 293 293 294 294 296 296 295 294 293 293 292 293 294 294 294 293 292 292 292 291 291 291 290 290 289 289 289 288 287 286 286 286 285 284 284 283 282 282 282 282 281
291 293 292 291 293 293 294 293 293 294 294 294 294 293 293 294 295 295 293 292 293 293 293 292 292 292 292 292 292 292 291 291 291 291 291 290 289 289 289 288 288 288 287 286 286 285 283 283 282 282 281 281 281 281
292 291 293 292 293 292 294 294 294 294 294 293 293 293 293 294 296 292 292 291 291 291 291 290 290 290 290 291 291 290 290 290 290 290 289 289 289 289 288 288 288 287 287 286 286 285 284 283 282 282 281 281 281 281
292 291 291 290 291 292 293 293 293 292 291 291 293 294 294 292 292 291 290 290 290 290 290 289 289 289 289 289 290 290 290 290 290 289 289 289 288 288 288 288 288 287 287 286 285 284 284 283 282 282 282 281 281 280
291 289 292 290 290 292 293 292 292 291 291 291 291 291 291 292 291 290 290 290 290 289 289 289 288 288 288 288 289 289 289 289 289 289 289 289 289 288 288 287 287 287 286 285 285 284 283 283 282 281 281 281 281 280
289 290 290 291 292 291 290 289 289 289 288 289 290 290 290 292 291 291 290 290 289 289 289 288 288 288 288 288 288 288 287 288 287 287 287 287 287 287 287 287 287 286 286 285 285 284 283 283 282 282 282 282 281 281
289 290 290 291 291 290 288 289 289 289 290 290 289 290 290 290 290 291 291 290 289 289 289 289 288 288 287 288 288 287 287 287 287 287 286 286 286 286 286 286 286 286 285 285 285 284 284 283 282 282 282 282 282 282
288 288 289 289 290 289 290 289 289 289 289 289 289 289 289 290 292 292 291 290 290 289 289 289 289 288 287 287 287 287 286 286 286 286 286 286 286 286 286 285 286 285 285 285 284 284 284 284 283 283 283 282 282 282

GFSWCAN_850_thetae_132.txt.gz
Theta_e
293 294 294 292 289 289 290 291 292 292 291 291 292 293 294 295 294 296 296 296 297 301 303 303 304 304 304 305 306 306 306 306 307 307 306 306 306 306 306 308 306 308 309 308 308 308 309 307 308 308 311 309 309 309
294 293 290 289 290 291 292 292 291 290 290 292 294 295 295 296 297 295 298 299 300 302 303 303 304 304 304 305 305 305 305 305 305 305 305 306 306 307 305 307 306 307 308 309 308 309 309 307 307 305 308 308 308 308
292 289 290 291 291 291 291 290 289 289 291 293 296 295 295 295 296 297 298 300 300 301 301 302 303 303 303 305 304 305 305 305 305 305 307 306 306 305 307 307 306 306 306 307 308 307 307 306 308 308 308 307 307 307
289 288 290 291 291 291 290 289 288 289 292 294 296 296 296 296 297 297 297 298 299 299 302 300 300 300 301 303 304 305 304 304 305 305 305 306 305 305 305 306 305 307 307 307 308 308 308 307 307 308 307 305 305 305
288 289 289 290 290 290 289 288 288 289 294 294 295 296 296 297 297 298 298 298 298 300 301 300 299 300 300 301 301 302 303 303 303 304 304 304 303 304 306 306 305 305 306 307 308 307 307 308 307 307 307 304 304 303
287 288 288 288 288 289 288 287 288 292 294 293 295 295 295 296 297 297 297 298 298 298 299 300 300 300 299 300 301 302 302 302 302 303 303 302 303 304 305 305 305 305 306 306 308 307 306 305 305 306 306 303 303 302
287 287 287 286 287 287 288 288 291 292 294 293 294 295 294 295 298 298 299 298 297 298 299 299 300 300 300 299 299 300 300 301 302 302 302 302 303 303 305 305 303 303 304 303 304 304 304 303 303 303 303 302 301 300
289 289 288 287 286 287 287 288 292 292 294 294 292 294 294 296 295 298 295 295 297 298 298 299 301 300 299 300 300 300 300 301 301 301 301 302 302 303 303 302 304 305 305 305 304 303 303 303 301 300 301 300 299 297
288 288 288 286 288 288 287 290 292 293 294 294 293 294 294 295 296 297 295 295 296 298 298 298 300 301 299 300 299 299 299 301 301 302 302 302 304 304 303 303 305 304 304 304 303 302 301 300 299 298 298 298 297 295
292 289 289 289 289 288 287 291 292 294 293 294 293 295 296 296 295 295 296 297 295 297 297 299 299 301 298 299 299 300 300 301 301 301 301 303 303 302 302 304 305 304 303 302 301 301 300 299 298 296 296 296 296 294
295 294 292 290 289 290 291 291 293 294 294 295 296 295 296 294 297 297 297 297 298 298 298 298 299 301 298 302 301 301 302 303 302 304 303 304 304 305 305 304 303 302 301 300 300 300 299 298 296 295 295 295 294 293
296 295 294 292 291 291 290 293 293 294 295 296 296 295 295 296 297 297 298 298 299 300 301 301 301 301 299 299 302 302 304 304 304 303 304 305 306 304 303 301 300 299 298 297 298 298 297 296 295 294 294 293 292 291
296 295 294 292 291 290 291 294 293 295 295 295 296 297 297 297 299 299 300 300 302 302 302 302 302 299 299 300 303 304 303 304 304 305 304 305 302 301 300 299 299 298 296 296 296 296 295 295 294 293 292 291 291 290
295 295 294 292 293 294 294 294 296 295 295 295 297 300 300 299 300 301 302 303 301 302 302 302 302 303 302 303 304 303 303 303 303 302 303 303 300 299 298 298 297 296 295 294 294 294 293 293 292 292 291 291 290 289
293 293 293 293 294 295 295 295 296 296 296 298 299 300 299 299 299 298 299 300 300 302 303 303 302 302 303 303 303 302 301 302 302 303 303 300 298 297 297 297 295 294 293 292 292 290 290 290 290 289 289 289 288 288
296 296 296 295 295 296 296 296 297 296 298 298 297 299 299 300 299 298 298 299 300 302 303 301 302 303 302 302 300 301 300 301 304 301 299 298 297 297 296 294 293 293 292 292 291 291 289 289 288 287 287 286 287 286
295 295 296 295 295 296 296 296 297 298 298 298 299 295 296 299 298 298 297 300 301 302 303 301 301 301 301 300 299 300 302 301 299 298 297 297 296 295 294 294 293 293 292 292 291 291 289 289 288 287 286 285 286 286
296 294 293 293 295 295 297 297 298 298 297 297 299 296 296 297 298 297 298 300 302 302 301 301 300 300 301 300 301 301 298 297 296 295 295 296 295 295 294 294 293 293 292 292 291 291 290 289 288 287 286 286 284 284
293 293 293 293 296 297 297 297 298 298 296 295 296 297 296 296 298 298 299 301 301 301 301 300 301 300 302 301 300 298 296 295 295 294 294 295 295 294 294 294 293 293 292 292 291 290 289 288 288 288 286 285 284 283
292 293 293 293 295 297 296 297 297 298 298 298 297 298 297 297 297 298 300 300 300 300 300 300 302 301 300 298 297 298 296 297 295 294 293 293 294 294 294 294 293 292 291 291 291 290 289 289 289 288 287 286 286 284
294 295 293 295 297 297 297 297 297 297 296 297 297 297 299 298 299 299 300 299 300 300 301 300 297 295 295 295 295 296 295 295 295 295 294 293 292 292 292 292 292 292 291 290 290 290 289 289 288 288 287 287 286 286
292 290 294 295 296 296 296 296 297 297 297 297 297 297 298 299 299 299 298 299 300 299 298 297 296 294 294 294 293 294 294 294 294 294 294 293 292 291 291 291 291 291 290 290 290 289 289 289 289 288 287 287 286 286
291 292 294 294 294 295 295 295 297 296 297 297 296 297 298 297 297 296 297 298 298 296 295 295 295 294 294 293 292 292 292 292 292 292 292 293 293 292 292 291 290 290 290 290 289 289 289 288 288 287 287 286 286 285
292 292 291 294 295 296 294 296 296 296 296 296 297 296 297 296 296 296 297 298 296 294 293 294 294 293 292 292 292 291 291 291 291 291 291 291 291 291 291 290 290 289 289 289 289 288 288 287 286 286 286 285 285 284
292 293 293 294 294 295 295 295 295 296 295 295 296 296 296 295 296 296 297 299 296 294 293 292 293 293 293 292 292 292 292 292 291 291 291 290 290 290 290 289 288 288 288 288 288 287 286 286 285 285 285 285 284 284
292 293 294 295 295 295 295 295 295 295 295 295 295 295 294 295 295 296 297 297 295 293 293 292 292 293 293 293 294 292 292 291 291 292 291 291 290 290 289 289 288 287 287 287 287 286 286 285 284 284 284 284 284 283
292 294 293 293 294 294 294 295 294 295 295 295 295 295 294 294 295 297 294 294 295 294 293 293 293 294 294 294 294 293 292 291 291 292 292 291 290 290 289 289 288 288 288 287 286 285 285 284 284 283 283 283 283 283
292 292 293 293 293 293 294 294 294 294 295 295 294 294 294 295 297 294 292 292 292 292 293 293 292 292 292 292 292 292 292 291 291 291 291 290 290 289 288 288 288 288 288 287 286 285 284 284 283 283 283 283 282 282
292 292 292 292 292 293 293 294 294 294 293 293 294 295 295 294 293 292 291 291 292 291 291 291 290 290 290 290 290 291 290 290 290 289 289 290 289 288 288 288 288 288 287 287 286 285 284 283 283 282 282 282 282 282
292 290 292 292 291 292 293 293 293 293 292 292 292 292 292 292 292 292 291 291 290 291 290 290 290 289 289 289 289 289 289 289 289 289 289 289 290 289 288 288 288 287 287 286 286 285 284 283 282 282 282 281 281 281
290 290 290 291 292 293 291 290 290 289 289 290 290 291 291 291 291 291 291 291 291 290 290 289 289 289 289 288 288 288 288 288 288 289 288 288 288 288 287 288 287 287 286 286 285 285 284 283 282 282 281 281 281 280
290 290 291 291 292 291 289 290 290 291 291 291 291 291 290 291 291 291 291 291 290 290 290 289 289 289 288 289 288 288 288 289 288 288 288 287 287 287 287 287 287 286 286 285 285 284 283 283 282 281 281 281 281 280
289 290 289 290 290 290 291 290 290 290 290 290 290 290 290 291 291 291 292 291 291 290 290 290 289 289 288 288 288 288 288 287 287 287 287 287 287 286 287 286 286 286 285 284 284 283 283 283 282 281 281 280 280 281